Temperatur und Luftfeuchte

Temperatur und Luftfeuchte

Nummer Datum und Zeit Sensor ID Temperatur in Celsius gef├╝hlte Temperatur Luftfeuchte in %
45172 2021-06-24 04:48:13 Terrasse 18.40 18.90 99.90
45171 2021-06-24 04:19:54 Terrasse 18.40 18.90 99.90
45170 2021-06-24 03:51:36 Terrasse 18.50 19.01 99.90
45169 2021-06-24 03:23:17 Terrasse 18.60 19.12 99.90
45168 2021-06-24 02:54:59 Terrasse 18.70 19.23 99.90
45167 2021-06-24 02:26:42 Terrasse 18.80 19.34 99.90
45166 2021-06-24 01:58:25 Terrasse 19.10 19.67 99.90
45165 2021-06-24 01:30:07 Terrasse 19.10 19.67 99.90
45164 2021-06-24 01:01:48 Terrasse 19.30 19.89 99.90
45163 2021-06-24 00:33:30 Terrasse 19.30 19.89 99.90
45162 2021-06-24 00:05:12 Terrasse 19.40 20.00 99.90
45161 2021-06-23 23:36:56 Terrasse 19.50 20.11 99.90
45160 2021-06-23 23:10:43 Terrasse 19.70 20.33 99.90
45159 2021-06-23 22:36:50 Terrasse 20.10 20.77 99.90
45158 2021-06-23 22:00:29 Terrasse 20.30 20.99 99.90
45157 2021-06-23 21:27:04 Terrasse 20.70 21.43 99.90
45156 2021-06-23 19:49:09 Terrasse 21.50 22.31 99.90
45155 2021-06-23 19:17:54 Terrasse 21.70 22.53 99.90
45154 2021-06-23 18:14:07 Terrasse 22.20 23.08 99.90
45153 2021-06-23 17:16:23 Terrasse 23.70 24.73 99.90
45152 2021-06-23 16:48:02 Terrasse 23.70 24.73 99.90
45151 2021-06-23 15:17:49 Terrasse 21.40 22.20 99.90
45150 2021-06-23 13:47:59 Terrasse 22.40 23.30 99.90
45149 2021-06-23 13:19:45 Terrasse 23.20 24.18 99.90
45148 2021-06-23 12:51:38 Terrasse 24.80 25.79 94.00
45147 2021-06-23 12:23:29 Terrasse 26.00 28.14 92.60
45146 2021-06-23 11:54:57 Terrasse 24.00 25.06 99.90
45145 2021-06-23 11:26:39 Terrasse 24.70 25.83 99.90
45144 2021-06-23 10:58:01 Terrasse 22.70 23.63 99.90
45143 2021-06-23 10:29:31 Terrasse 21.40 22.20 99.90
45142 2021-06-23 10:01:04 Terrasse 20.00 20.66 99.90
45141 2021-06-23 09:32:38 Terrasse 18.90 19.45 99.90
45140 2021-06-23 05:59:36 Terrasse 16.60 16.92 99.90
45139 2021-06-23 05:33:44 Terrasse 16.90 17.25 99.90
45138 2021-06-23 04:37:46 Terrasse 16.90 17.25 99.90
45137 2021-06-23 03:39:51 Terrasse 16.90 17.25 99.90
45136 2021-06-23 02:39:23 Terrasse 16.90 17.25 99.90
45135 2021-06-23 01:38:22 Terrasse 17.00 17.36 99.90
45134 2021-06-23 00:43:15 Terrasse 17.30 17.69 99.90
45133 2021-06-22 23:41:10 Terrasse 17.10 17.47 99.90
45132 2021-06-22 23:12:55 Terrasse 17.30 17.69 99.90
45131 2021-06-22 22:44:41 Terrasse 17.50 17.91 99.90
45130 2021-06-22 22:16:27 Terrasse 17.70 18.13 99.90
45129 2021-06-22 21:48:11 Terrasse 17.90 18.35 99.90
45128 2021-06-22 21:19:59 Terrasse 18.30 18.79 99.90
45127 2021-06-22 20:51:45 Terrasse 18.70 19.23 99.90
45126 2021-06-22 20:23:31 Terrasse 19.00 19.56 99.90
45125 2021-06-22 19:55:14 Terrasse 19.00 19.56 99.90
45124 2021-06-22 19:26:59 Terrasse 19.00 19.56 99.90
45123 2021-06-22 18:58:45 Terrasse 19.30 19.89 99.90
45122 2021-06-22 18:30:29 Terrasse 19.30 19.89 99.90
45121 2021-06-22 18:02:14 Terrasse 19.10 19.67 99.90
45120 2021-06-22 17:33:59 Terrasse 19.10 19.67 99.90
45119 2021-06-22 17:05:45 Terrasse 19.00 19.56 99.90
45118 2021-06-22 16:37:28 Terrasse 18.90 19.45 99.90
45117 2021-06-22 16:09:13 Terrasse 18.70 19.23 99.90
45116 2021-06-22 15:40:57 Terrasse 18.90 19.45 99.90
45115 2021-06-22 15:12:41 Terrasse 18.80 19.34 99.90
45114 2021-06-22 14:44:27 Terrasse 18.90 19.45 99.90
45113 2021-06-22 14:16:15 Terrasse 19.40 20.00 99.90
45112 2021-06-22 13:48:12 Terrasse 20.20 20.88 99.90
45111 2021-06-22 13:19:50 Terrasse 19.70 20.33 99.90
45110 2021-06-22 12:51:32 Terrasse 19.00 19.56 99.90
45109 2021-06-22 12:23:18 Terrasse 19.40 20.00 99.90
45108 2021-06-22 11:55:05 Terrasse 19.90 20.55 99.90
45107 2021-06-22 11:26:47 Terrasse 19.60 20.22 99.90
45106 2021-06-22 10:58:33 Terrasse 19.80 20.44 99.90
45105 2021-06-22 10:30:14 Terrasse 19.40 20.00 99.90
45104 2021-06-22 10:01:57 Terrasse 19.40 20.00 99.90
45103 2021-06-22 09:33:39 Terrasse 19.20 19.78 99.90
45102 2021-06-22 09:05:17 Terrasse 18.50 19.01 99.90
45101 2021-06-22 08:36:57 Terrasse 18.00 18.46 99.90
45100 2021-06-22 08:08:39 Terrasse 17.40 17.80 99.90
45099 2021-06-22 07:40:21 Terrasse 16.90 17.25 99.90
45098 2021-06-22 07:12:47 Terrasse 16.70 17.03 99.90
45097 2021-06-22 06:44:24 Terrasse 16.70 17.03 99.90
45096 2021-06-22 06:16:09 Terrasse 16.50 16.81 99.90
45095 2021-06-22 05:48:07 Terrasse 16.60 16.92 99.90
45094 2021-06-22 05:20:04 Terrasse 16.80 17.14 99.90
45093 2021-06-22 04:51:50 Terrasse 17.20 17.58 99.90
45092 2021-06-22 04:23:38 Terrasse 17.20 17.58 99.90
45091 2021-06-22 03:55:27 Terrasse 17.40 17.80 99.90
45090 2021-06-22 03:27:20 Terrasse 17.80 18.24 99.90
45089 2021-06-22 02:59:08 Terrasse 18.00 18.46 99.90
45088 2021-06-22 02:30:50 Terrasse 18.00 18.46 99.90
45087 2021-06-22 02:02:41 Terrasse 18.20 18.68 99.90
45086 2021-06-22 01:34:25 Terrasse 18.60 19.12 99.90
45085 2021-06-22 01:06:13 Terrasse 19.20 19.78 99.90
45084 2021-06-22 00:37:58 Terrasse 19.60 19.97 90.00
45083 2021-06-22 00:09:45 Terrasse 20.00 20.38 89.20
45082 2021-06-21 23:43:34 Terrasse 20.20 20.54 86.80
45081 2021-06-21 23:11:16 Terrasse 20.50 20.69 79.80
45080 2021-06-21 22:39:56 Terrasse 20.90 21.12 79.50
45079 2021-06-21 22:09:50 Terrasse 21.30 21.59 80.60
45078 2021-06-21 21:37:06 Terrasse 21.80 22.07 78.10
45077 2021-06-21 21:08:53 Terrasse 22.40 22.67 75.70
45076 2021-06-21 20:42:16 Terrasse 22.90 23.21 75.30
45075 2021-06-21 20:13:06 Terrasse 23.50 23.86 74.70
45074 2021-06-21 19:42:43 Terrasse 24.10 24.47 73.10
45073 2021-06-21 19:15:49 Terrasse 24.60 25.03 73.30
45072 2021-06-21 18:47:17 Terrasse 25.20 25.70 73.80
45071 2021-06-21 18:18:55 Terrasse 25.90 27.28 74.00
45070 2021-06-21 17:50:40 Terrasse 26.40 27.99 71.90
45069 2021-06-21 17:22:09 Terrasse 26.90 28.80 71.40
45068 2021-06-21 16:53:51 Terrasse 27.10 28.59 64.80
45067 2021-06-21 16:25:41 Terrasse 27.80 29.65 64.60
45066 2021-06-21 15:57:22 Terrasse 28.40 30.62 64.20
45065 2021-06-21 15:29:23 Terrasse 29.70 32.73 62.40
45064 2021-06-21 15:01:12 Terrasse 30.60 34.08 60.30
45063 2021-06-21 14:33:22 Terrasse 28.50 31.05 66.00
45062 2021-06-21 14:05:14 Terrasse 28.00 30.60 69.50
45061 2021-06-21 13:37:16 Terrasse 27.70 30.98 77.10
45060 2021-06-21 13:09:26 Terrasse 24.20 25.23 97.70
45059 2021-06-21 12:40:40 Terrasse 23.80 24.82 98.80
45058 2021-06-21 12:11:38 Terrasse 24.10 25.17 99.90
45057 2021-06-21 11:41:55 Terrasse 23.30 24.29 99.90
45056 2021-06-21 11:13:24 Terrasse 22.80 23.74 99.90
45055 2021-06-21 09:43:21 Terrasse 20.90 21.65 99.90
45054 2021-06-21 09:15:04 Terrasse 20.80 21.54 99.90
45053 2021-06-21 08:48:47 Terrasse 20.00 20.66 99.90
45052 2021-06-21 08:16:44 Terrasse 20.00 20.66 99.90
45051 2021-06-21 07:45:49 Terrasse 19.60 20.22 99.90
45050 2021-06-21 07:10:30 Terrasse 19.20 19.78 99.90
45049 2021-06-21 06:42:16 Terrasse 19.10 19.67 99.90
45048 2021-06-21 06:13:59 Terrasse 19.40 20.00 99.90
45047 2021-06-21 05:45:43 Terrasse 19.50 20.11 99.90
45046 2021-06-21 05:17:29 Terrasse 19.90 20.55 99.90
45045 2021-06-21 04:51:14 Terrasse 20.10 20.77 99.90
45044 2021-06-21 04:19:57 Terrasse 20.50 21.21 99.90
45043 2021-06-21 03:49:05 Terrasse 20.70 21.43 99.90
45042 2021-06-21 03:18:00 Terrasse 21.00 21.76 99.90
45041 2021-06-21 02:49:46 Terrasse 21.20 21.98 99.90
45040 2021-06-21 02:19:39 Terrasse 21.40 22.20 99.90
45039 2021-06-21 01:49:08 Terrasse 21.60 22.42 99.90
45038 2021-06-21 01:18:57 Terrasse 22.30 23.19 99.90
45037 2021-06-21 00:49:11 Terrasse 22.50 23.41 99.90
45036 2021-06-21 00:19:51 Terrasse 22.70 23.63 99.90
45035 2021-06-20 22:11:04 Terrasse 25.20 26.05 93.90
45034 2021-06-20 20:43:40 Terrasse 27.00 28.46 65.10
45033 2021-06-20 20:16:13 Terrasse 27.40 28.93 63.60
45032 2021-06-20 19:47:53 Terrasse 27.90 29.39 60.80
45031 2021-06-20 19:19:23 Terrasse 28.50 29.91 57.60
45030 2021-06-20 18:51:20 Terrasse 28.80 30.18 56.30
45029 2021-06-20 18:23:15 Terrasse 28.80 30.11 55.70
45028 2021-06-20 17:55:11 Terrasse 29.20 30.55 54.60
45027 2021-06-20 17:27:16 Terrasse 29.80 31.32 53.60
45026 2021-06-20 16:58:16 Terrasse 30.20 32.08 54.20
45025 2021-06-20 16:30:13 Terrasse 30.10 32.06 55.00
45024 2021-06-20 16:01:41 Terrasse 31.80 34.62 52.60
45023 2021-06-20 15:33:24 Terrasse 32.30 36.02 54.10
45022 2021-06-20 15:05:21 Terrasse 33.20 37.49 52.60
45021 2021-06-20 14:36:59 Terrasse 32.30 36.80 56.80
45020 2021-06-20 14:08:54 Terrasse 33.10 38.21 55.50
45019 2021-06-20 13:40:25 Terrasse 31.90 36.23 57.90
45018 2021-06-20 13:11:42 Terrasse 27.70 30.04 69.50
45017 2021-06-20 12:43:11 Terrasse 26.40 28.03 72.50
45016 2021-06-20 12:14:57 Terrasse 26.70 28.79 76.10
45015 2021-06-20 11:46:46 Terrasse 27.50 29.90 71.60
45014 2021-06-20 11:18:32 Terrasse 27.50 30.50 76.80
45013 2021-06-20 10:50:02 Terrasse 26.40 28.73 84.40
45012 2021-06-20 10:21:40 Terrasse 25.50 26.79 86.80
45011 2021-06-20 09:54:41 Terrasse 25.00 25.92 90.60
45010 2021-06-20 09:26:01 Terrasse 24.40 25.38 95.20
45009 2021-06-20 08:57:55 Terrasse 24.10 25.02 94.00
45008 2021-06-20 08:28:05 Terrasse 23.80 24.66 93.00
45007 2021-06-20 08:00:02 Terrasse 23.70 24.64 96.20
45006 2021-06-20 07:31:39 Terrasse 23.40 24.32 96.70
45005 2021-06-20 07:03:24 Terrasse 23.50 24.32 92.30
45004 2021-06-20 06:35:11 Terrasse 24.10 24.89 88.90
45003 2021-06-20 04:31:14 Terrasse 25.70 27.07 78.60
45002 2021-06-20 02:25:54 Terrasse 26.50 28.22 72.90
45001 2021-06-19 22:39:15 Terrasse 28.10 29.94 62.90
45000 2021-06-19 22:09:13 Terrasse 28.50 30.37 61.20
44999 2021-06-19 21:41:24 Terrasse 28.80 30.67 59.80
44998 2021-06-19 21:09:30 Terrasse 29.20 31.17 58.70
44997 2021-06-19 20:42:42 Terrasse 29.60 31.66 57.60
44996 2021-06-19 20:11:57 Terrasse 30.00 32.01 55.70
44995 2021-06-19 19:43:46 Terrasse 30.60 33.05 55.60
44994 2021-06-19 19:15:50 Terrasse 31.30 33.25 50.60
44993 2021-06-19 18:47:31 Terrasse 31.80 33.86 49.40
44992 2021-06-19 18:19:17 Terrasse 32.00 34.10 48.90
44991 2021-06-19 17:51:03 Terrasse 32.30 34.45 48.10
44990 2021-06-19 17:22:50 Terrasse 32.80 35.01 46.70
44989 2021-06-19 16:54:38 Terrasse 33.20 35.44 45.50
44988 2021-06-19 16:26:28 Terrasse 33.90 37.09 46.60
44987 2021-06-19 15:58:28 Terrasse 35.50 40.17 45.70
44986 2021-06-19 15:30:10 Terrasse 35.90 41.07 45.70
44985 2021-06-19 15:02:02 Terrasse 36.60 42.49 45.20
44984 2021-06-19 14:33:47 Terrasse 36.00 42.17 47.80
44983 2021-06-19 14:05:49 Terrasse 38.20 47.19 46.50
44982 2021-06-19 13:37:24 Terrasse 38.00 47.52 48.10
44981 2021-06-19 13:08:48 Terrasse 36.30 45.01 52.30
44980 2021-06-19 12:40:14 Terrasse 32.90 38.07 56.50
44979 2021-06-19 12:11:55 Terrasse 31.90 37.63 62.60
44978 2021-06-19 11:43:35 Terrasse 31.10 35.76 62.70
44977 2021-06-19 11:15:12 Terrasse 30.10 35.46 70.70
44976 2021-06-19 10:46:39 Terrasse 28.70 33.61 78.40
44975 2021-06-19 10:18:17 Terrasse 27.60 31.41 82.20
44974 2021-06-19 09:49:54 Terrasse 26.60 29.00 81.80
44973 2021-06-19 09:21:32 Terrasse 25.60 27.03 88.30
44972 2021-06-19 08:53:07 Terrasse 24.70 25.61 91.40
44971 2021-06-19 08:24:46 Terrasse 24.00 24.94 95.00
44970 2021-06-19 07:56:27 Terrasse 23.60 24.55 96.90
44969 2021-06-19 07:28:10 Terrasse 23.30 24.23 97.30
44968 2021-06-19 07:00:04 Terrasse 23.20 24.16 99.10
44967 2021-06-19 06:31:44 Terrasse 23.20 24.18 99.90
44966 2021-06-19 06:03:29 Terrasse 23.20 24.18 99.90
44965 2021-06-19 05:35:22 Terrasse 23.40 24.40 99.90
44964 2021-06-18 23:07:54 Terrasse 27.00 29.09 72.80
44963 2021-06-18 21:40:14 Terrasse 28.50 31.20 67.00
44962 2021-06-18 21:10:29 Terrasse 29.00 32.08 66.40
44961 2021-06-18 20:41:52 Terrasse 29.50 32.85 65.10
44960 2021-06-18 20:13:08 Terrasse 29.80 33.10 63.30
44959 2021-06-18 19:40:28 Terrasse 30.20 33.75 62.50
44958 2021-06-18 18:44:13 Terrasse 31.20 33.55 52.80
44957 2021-06-18 18:16:01 Terrasse 32.10 34.70 50.60
44956 2021-06-18 17:47:46 Terrasse 32.40 35.51 51.50
44955 2021-06-18 17:19:33 Terrasse 32.70 35.53 49.40
44954 2021-06-18 16:51:18 Terrasse 33.10 35.89 47.90
44953 2021-06-18 16:23:05 Terrasse 33.50 37.26 49.80
44952 2021-06-18 15:54:55 Terrasse 34.00 38.70 50.90
44951 2021-06-18 15:26:26 Terrasse 33.20 39.41 58.30
44950 2021-06-18 14:58:06 Terrasse 30.80 35.53 64.40
44949 2021-06-18 14:29:48 Terrasse 31.10 35.34 61.10
44948 2021-06-18 14:01:38 Terrasse 31.70 36.58 60.70
44947 2021-06-18 13:33:36 Terrasse 32.40 36.75 55.90
44946 2021-06-18 13:05:41 Terrasse 35.50 44.53 55.90
44945 2021-06-18 12:37:17 Terrasse 34.50 43.05 58.80
44944 2021-06-18 12:09:00 Terrasse 33.60 41.17 60.20
44943 2021-06-18 11:40:38 Terrasse 32.70 40.48 64.80
44942 2021-06-18 11:12:15 Terrasse 31.40 36.32 62.20
44941 2021-06-18 10:43:45 Terrasse 29.80 33.77 66.50
44940 2021-06-18 10:15:21 Terrasse 28.50 33.24 79.20
44939 2021-06-18 09:46:58 Terrasse 27.30 29.81 74.40
44938 2021-06-18 09:19:33 Terrasse 26.20 28.09 80.70
44937 2021-06-18 08:50:32 Terrasse 25.00 25.92 90.50
44936 2021-06-18 08:22:11 Terrasse 24.00 24.82 90.50
44935 2021-06-18 07:53:50 Terrasse 23.40 24.33 96.90
44934 2021-06-18 07:27:13 Terrasse 22.90 23.52 87.30
44933 2021-06-18 06:56:18 Terrasse 22.80 23.16 77.60
44932 2021-06-18 06:28:01 Terrasse 22.60 22.99 79.30
44931 2021-06-18 04:55:38 Terrasse 23.40 23.56 67.60
44930 2021-06-18 04:27:26 Terrasse 23.70 23.83 65.20
44929 2021-06-18 03:59:15 Terrasse 23.90 24.04 65.00
44928 2021-06-18 03:30:59 Terrasse 24.10 24.31 66.90
44927 2021-06-18 03:02:44 Terrasse 24.20 24.42 66.80
44926 2021-06-18 02:34:30 Terrasse 24.50 24.66 63.50
44925 2021-06-18 02:06:16 Terrasse 24.90 25.11 63.80
44924 2021-06-18 01:38:02 Terrasse 25.20 25.44 63.90
44923 2021-06-18 01:09:49 Terrasse 25.60 25.92 65.20
44922 2021-06-18 00:41:46 Terrasse 25.80 26.86 64.50
44921 2021-06-18 00:13:28 Terrasse 26.00 27.16 66.40
44920 2021-06-17 23:45:15 Terrasse 26.30 27.53 65.80
44919 2021-06-17 23:17:01 Terrasse 26.80 28.17 65.10
44918 2021-06-17 22:48:48 Terrasse 27.20 28.75 65.00
44917 2021-06-17 22:20:37 Terrasse 27.70 29.35 63.30
44916 2021-06-17 21:52:23 Terrasse 28.20 30.26 64.10
44915 2021-06-17 21:24:10 Terrasse 28.80 31.27 63.80
44914 2021-06-17 20:55:59 Terrasse 29.60 32.29 61.10
44913 2021-06-17 20:27:48 Terrasse 30.50 33.48 58.50
44912 2021-06-17 19:59:36 Terrasse 31.20 33.66 53.30
44911 2021-06-17 19:31:21 Terrasse 31.60 34.10 52.00
44910 2021-06-17 19:03:08 Terrasse 32.00 34.63 51.10
44909 2021-06-17 18:34:53 Terrasse 32.40 35.14 50.10
44908 2021-06-17 18:06:39 Terrasse 32.70 35.88 50.70
44907 2021-06-17 17:38:24 Terrasse 32.90 36.09 50.00
44906 2021-06-17 17:10:10 Terrasse 33.30 36.37 48.20
44905 2021-06-17 16:41:58 Terrasse 34.00 37.29 46.60
44904 2021-06-17 16:13:47 Terrasse 34.70 38.64 46.30
44903 2021-06-17 15:45:38 Terrasse 36.10 41.08 44.60
44902 2021-06-17 15:17:27 Terrasse 36.90 42.67 44.00
44901 2021-06-17 14:49:06 Terrasse 37.50 43.87 43.50
44900 2021-06-17 14:21:12 Terrasse 38.10 44.60 42.00
44899 2021-06-17 13:52:58 Terrasse 39.40 48.15 42.50
44898 2021-06-17 13:24:22 Terrasse 38.00 46.92 47.00
44897 2021-06-17 12:55:33 Terrasse 34.80 39.94 49.30
44896 2021-06-17 12:27:13 Terrasse 32.30 35.79 53.30
44895 2021-06-17 11:58:55 Terrasse 31.90 34.79 52.50
44894 2021-06-17 11:30:31 Terrasse 30.90 33.74 56.20
44893 2021-06-17 11:02:05 Terrasse 29.30 31.48 59.60
44892 2021-06-17 10:33:36 Terrasse 27.90 29.95 65.70
44891 2021-06-17 10:05:13 Terrasse 26.70 28.93 77.90
44890 2021-06-17 09:36:49 Terrasse 25.50 26.78 86.00
44889 2021-06-17 09:08:25 Terrasse 24.20 25.17 95.70
44888 2021-06-17 08:40:06 Terrasse 23.40 24.40 99.90
44887 2021-06-17 08:11:49 Terrasse 23.00 23.43 79.50
44886 2021-06-17 07:43:32 Terrasse 22.70 23.10 79.50
44885 2021-06-17 07:15:14 Terrasse 22.40 22.79 80.10
44884 2021-06-17 06:46:58 Terrasse 22.10 22.57 84.50
44883 2021-06-17 06:18:42 Terrasse 22.10 22.41 78.40
44882 2021-06-17 05:50:27 Terrasse 21.80 22.15 81.00
44881 2021-06-17 05:22:13 Terrasse 22.10 22.44 79.50
44880 2021-06-17 04:54:00 Terrasse 22.20 22.57 80.10
44879 2021-06-17 04:25:46 Terrasse 22.60 22.91 76.40
44878 2021-06-17 03:57:32 Terrasse 22.90 23.22 75.60
44877 2021-06-17 03:29:18 Terrasse 23.00 23.31 74.80
44876 2021-06-17 03:01:04 Terrasse 23.00 23.35 76.50
44875 2021-06-17 02:32:47 Terrasse 23.00 23.36 76.80
44874 2021-06-17 02:04:33 Terrasse 23.00 23.36 76.80
44873 2021-06-17 01:36:21 Terrasse 23.40 23.79 76.40
44872 2021-06-17 01:08:07 Terrasse 23.80 24.19 74.90
44871 2021-06-17 00:39:52 Terrasse 24.10 24.50 74.00
44870 2021-06-17 00:11:39 Terrasse 24.50 24.93 73.70
44869 2021-06-16 21:34:39 Terrasse 27.30 29.03 66.40
44868 2021-06-16 21:06:26 Terrasse 27.60 30.09 71.60
44867 2021-06-16 20:38:13 Terrasse 28.00 31.87 78.50
44866 2021-06-16 20:10:04 Terrasse 29.10 30.56 55.70
44865 2021-06-16 19:41:53 Terrasse 29.90 30.84 49.60
44864 2021-06-16 19:13:40 Terrasse 30.30 31.00 46.90
44863 2021-06-16 18:45:27 Terrasse 30.80 32.08 48.90
44862 2021-06-16 18:17:14 Terrasse 31.10 32.21 47.00
44861 2021-06-16 17:49:00 Terrasse 31.50 32.78 46.70
44860 2021-06-16 17:20:48 Terrasse 31.90 33.29 46.00
44859 2021-06-16 16:52:37 Terrasse 32.60 34.46 45.90
44858 2021-06-16 16:24:25 Terrasse 33.00 35.28 46.30
44857 2021-06-16 15:56:20 Terrasse 34.30 38.64 48.80
44856 2021-06-16 15:28:08 Terrasse 34.90 39.61 47.80
44855 2021-06-16 15:00:03 Terrasse 36.20 42.79 48.10
44854 2021-06-16 14:31:48 Terrasse 35.50 41.51 49.10
44853 2021-06-16 14:03:40 Terrasse 36.90 45.35 49.70
44852 2021-06-16 13:35:23 Terrasse 37.20 45.70 48.80
44851 2021-06-16 13:06:46 Terrasse 35.20 41.64 51.20
44850 2021-06-16 12:38:12 Terrasse 31.10 35.21 60.60
44849 2021-06-16 12:10:12 Terrasse 30.20 32.93 58.60
44848 2021-06-16 11:42:01 Terrasse 29.50 33.83 69.90
44847 2021-06-16 11:14:00 Terrasse 27.50 31.33 83.50
44846 2021-06-16 10:44:27 Terrasse 25.50 26.80 88.40
44845 2021-06-16 10:16:10 Terrasse 24.90 25.89 93.50
44844 2021-06-16 09:48:22 Terrasse 24.30 25.38 99.40
44843 2021-06-16 09:19:45 Terrasse 23.60 24.62 99.90
44842 2021-06-16 08:52:12 Terrasse 22.70 23.63 99.90
44841 2021-06-16 08:23:20 Terrasse 22.10 22.97 99.90
44840 2021-06-16 07:55:03 Terrasse 21.80 22.64 99.90
44839 2021-06-16 07:28:03 Terrasse 21.50 22.31 99.90
44838 2021-06-16 07:00:24 Terrasse 21.10 21.87 99.90
44837 2021-06-16 06:27:50 Terrasse 20.70 21.43 99.90
44836 2021-06-16 05:59:34 Terrasse 20.70 21.43 99.90
44835 2021-06-16 05:31:19 Terrasse 20.80 21.54 99.90
44834 2021-06-16 05:03:05 Terrasse 21.00 21.76 99.90
44833 2021-06-16 04:34:52 Terrasse 21.30 22.09 99.90
44832 2021-06-16 04:06:38 Terrasse 21.50 22.31 99.70
44831 2021-06-16 03:38:24 Terrasse 21.70 22.43 96.10
44830 2021-06-16 03:10:09 Terrasse 21.90 22.56 92.40
44829 2021-06-16 02:41:56 Terrasse 22.10 22.67 88.20
44828 2021-06-16 02:13:41 Terrasse 22.30 22.77 83.70
44827 2021-06-16 01:45:28 Terrasse 22.50 22.94 81.80
44826 2021-06-16 01:17:14 Terrasse 22.70 23.09 79.10
44825 2021-06-16 00:49:00 Terrasse 22.80 23.17 77.80
44824 2021-06-16 00:20:47 Terrasse 23.00 23.35 76.30
44823 2021-06-15 23:52:33 Terrasse 23.20 23.51 74.00
44822 2021-06-15 23:24:20 Terrasse 23.30 23.58 72.40
44821 2021-06-15 22:56:07 Terrasse 23.70 23.98 71.20
44820 2021-06-15 22:27:55 Terrasse 24.50 24.78 68.00
44819 2021-06-15 21:59:43 Terrasse 24.80 25.06 66.10
44818 2021-06-15 21:31:31 Terrasse 25.20 25.45 64.10
44817 2021-06-15 21:03:20 Terrasse 25.70 25.91 60.80
44816 2021-06-15 20:35:09 Terrasse 26.30 27.24 59.70
44815 2021-06-15 20:06:58 Terrasse 26.80 27.83 60.00
44814 2021-06-15 19:38:47 Terrasse 27.40 28.18 54.90
44813 2021-06-15 19:10:34 Terrasse 28.20 28.97 53.00
44812 2021-06-15 18:42:22 Terrasse 28.70 29.65 53.20
44811 2021-06-15 18:14:09 Terrasse 29.20 30.07 51.10
44810 2021-06-15 17:45:55 Terrasse 29.60 30.85 52.60
44809 2021-06-15 17:17:40 Terrasse 29.80 30.97 51.40
44808 2021-06-15 16:49:29 Terrasse 30.00 31.19 50.90
44807 2021-06-15 16:21:20 Terrasse 30.80 32.42 50.70
44806 2021-06-15 15:53:17 Terrasse 32.30 34.60 48.70
44805 2021-06-15 15:24:49 Terrasse 31.60 33.04 47.20
44804 2021-06-15 14:56:40 Terrasse 31.80 33.95 49.80
44803 2021-06-15 14:28:26 Terrasse 30.90 32.17 48.50
44802 2021-06-15 14:00:25 Terrasse 32.50 34.92 48.50
44801 2021-06-15 13:32:02 Terrasse 33.50 36.89 48.60
44800 2021-06-15 13:03:30 Terrasse 34.10 38.11 48.50
44799 2021-06-15 12:35:01 Terrasse 30.30 32.23 54.10
44798 2021-06-15 12:06:44 Terrasse 29.70 32.46 61.00
44797 2021-06-15 11:38:23 Terrasse 28.60 31.04 64.70
44796 2021-06-15 11:09:48 Terrasse 26.30 27.95 74.10
44795 2021-06-15 10:41:19 Terrasse 24.90 25.53 79.90
44794 2021-06-15 10:12:56 Terrasse 23.60 24.46 93.80
44793 2021-06-15 09:44:35 Terrasse 22.70 23.44 92.50
44792 2021-06-15 09:16:14 Terrasse 21.70 22.46 97.00
44791 2021-06-15 08:47:53 Terrasse 20.50 21.11 96.10
44790 2021-06-15 08:19:34 Terrasse 19.70 20.11 91.50
44789 2021-06-15 07:51:17 Terrasse 19.10 19.30 85.60
44788 2021-06-15 07:23:02 Terrasse 18.80 19.13 91.60
44787 2021-06-15 06:54:48 Terrasse 18.60 18.50 75.90
44786 2021-06-15 06:26:34 Terrasse 18.60 18.33 69.50
44785 2021-06-15 05:58:27 Terrasse 18.70 18.33 65.40
44784 2021-06-15 05:30:18 Terrasse 18.70 18.33 65.20
44783 2021-06-15 05:02:09 Terrasse 18.90 18.53 64.50
44782 2021-06-15 04:34:01 Terrasse 18.90 18.52 64.20
44781 2021-06-15 04:05:56 Terrasse 19.10 18.71 62.90
44780 2021-06-15 03:37:40 Terrasse 19.30 18.96 64.10
44779 2021-06-15 03:09:37 Terrasse 19.50 19.15 63.00
44778 2021-06-15 02:41:30 Terrasse 19.70 19.36 62.60
44777 2021-06-15 02:13:14 Terrasse 20.10 19.76 61.10
44776 2021-06-15 01:45:10 Terrasse 20.30 19.94 59.70
44775 2021-06-15 01:17:04 Terrasse 20.60 20.26 59.30
44774 2021-06-15 00:48:47 Terrasse 20.80 20.45 58.10
44773 2021-06-15 00:20:34 Terrasse 21.00 20.67 57.90
44772 2021-06-14 23:52:22 Terrasse 21.30 21.00 58.00
44771 2021-06-14 23:24:10 Terrasse 21.60 21.31 57.20
44770 2021-06-14 22:55:57 Terrasse 22.10 21.82 55.60
44769 2021-06-14 22:27:45 Terrasse 22.50 22.23 54.50
44768 2021-06-14 21:59:34 Terrasse 23.00 22.78 54.50
44767 2021-06-14 21:31:24 Terrasse 23.60 23.44 54.70
44766 2021-06-14 21:03:14 Terrasse 24.50 24.42 54.30
44765 2021-06-14 20:35:02 Terrasse 25.30 25.21 50.90
44764 2021-06-14 20:06:49 Terrasse 25.80 25.73 49.50
44763 2021-06-14 19:38:36 Terrasse 26.30 26.64 46.30
44762 2021-06-14 19:10:23 Terrasse 26.70 26.88 44.80
44761 2021-06-14 18:42:10 Terrasse 27.10 27.13 43.60
44760 2021-06-14 18:13:56 Terrasse 27.20 27.26 44.50
44759 2021-06-14 17:45:43 Terrasse 27.70 27.52 41.70
44758 2021-06-14 17:17:32 Terrasse 28.40 28.11 41.10
44757 2021-06-14 16:49:23 Terrasse 29.20 29.03 42.20
44756 2021-06-14 16:21:14 Terrasse 29.90 29.78 41.80
44755 2021-06-14 15:53:14 Terrasse 31.80 32.15 40.90
44754 2021-06-14 15:24:56 Terrasse 31.60 31.67 39.70
44753 2021-06-14 14:56:51 Terrasse 32.80 33.62 40.70
44752 2021-06-14 14:28:43 Terrasse 32.60 32.93 38.80
44751 2021-06-14 14:00:33 Terrasse 34.50 35.64 37.50
44750 2021-06-14 13:32:08 Terrasse 33.90 35.78 42.00
44749 2021-06-14 13:03:27 Terrasse 31.50 32.57 45.60
44748 2021-06-14 12:34:59 Terrasse 27.70 28.09 49.60
44747 2021-06-14 12:06:44 Terrasse 27.00 27.45 50.50
44746 2021-06-14 11:38:23 Terrasse 25.90 25.85 49.80
44745 2021-06-14 11:09:59 Terrasse 24.70 24.66 54.90
44744 2021-06-14 10:41:26 Terrasse 22.80 22.68 59.20
44743 2021-06-14 10:13:03 Terrasse 21.40 21.17 60.40
44742 2021-06-14 09:44:41 Terrasse 20.30 19.99 61.50
44741 2021-06-14 09:16:20 Terrasse 19.30 18.94 63.40
44740 2021-06-14 08:47:57 Terrasse 18.10 17.70 66.30
44739 2021-06-14 08:19:36 Terrasse 17.30 16.79 65.10
44738 2021-06-14 07:51:28 Terrasse 16.70 16.14 65.50
44737 2021-06-14 07:23:12 Terrasse 16.30 15.74 67.10
44736 2021-06-14 06:54:55 Terrasse 16.00 15.46 69.10
44735 2021-06-14 06:26:40 Terrasse 16.00 15.42 67.40
44734 2021-06-14 05:58:27 Terrasse 16.10 15.46 65.00
44733 2021-06-14 05:30:23 Terrasse 16.10 15.44 64.30
44732 2021-06-14 05:02:16 Terrasse 16.20 15.52 63.10
44731 2021-06-14 04:34:12 Terrasse 16.50 15.84 62.50
44730 2021-06-14 04:06:02 Terrasse 16.70 15.99 60.10
44729 2021-06-14 03:37:52 Terrasse 16.90 16.23 60.50
44728 2021-06-14 03:09:43 Terrasse 17.00 16.35 61.00
44727 2021-06-14 02:41:28 Terrasse 17.40 16.75 59.50
44726 2021-06-14 02:13:22 Terrasse 17.70 17.07 59.30
44725 2021-06-14 01:45:13 Terrasse 17.80 17.20 59.80
44724 2021-06-14 01:16:59 Terrasse 18.30 17.78 60.90
44723 2021-06-14 00:48:46 Terrasse 18.40 17.87 60.40
44722 2021-06-14 00:20:34 Terrasse 18.80 18.28 59.20
44721 2021-06-13 23:52:21 Terrasse 19.10 18.59 58.30
44720 2021-06-13 23:24:07 Terrasse 19.10 18.62 59.70
44719 2021-06-13 22:55:55 Terrasse 19.50 19.05 59.30
44718 2021-06-13 22:29:38 Terrasse 19.80 19.37 58.60
44717 2021-06-13 21:25:23 Terrasse 21.50 21.19 56.80
44716 2021-06-13 20:57:07 Terrasse 22.30 21.98 53.50
44715 2021-06-13 20:28:55 Terrasse 22.90 22.61 52.40
44714 2021-06-13 20:00:42 Terrasse 23.40 23.12 50.70
44713 2021-06-13 19:32:28 Terrasse 23.70 23.44 50.20
44712 2021-06-13 19:04:16 Terrasse 24.20 23.97 49.70
44711 2021-06-13 18:36:03 Terrasse 24.60 24.37 48.20
44710 2021-06-13 18:07:51 Terrasse 25.20 25.09 50.20
44709 2021-06-13 17:40:59 Terrasse 25.40 25.25 48.10
44708 2021-06-13 17:12:29 Terrasse 25.80 25.70 48.40
44707 2021-06-13 16:44:00 Terrasse 26.20 26.65 48.30
44706 2021-06-13 16:15:42 Terrasse 27.10 27.39 48.00
44705 2021-06-13 15:47:09 Terrasse 29.20 29.38 45.50
44704 2021-06-13 15:19:14 Terrasse 28.70 29.17 49.00
44703 2021-06-13 14:50:44 Terrasse 29.30 29.75 47.60
44702 2021-06-13 14:22:44 Terrasse 29.30 29.59 46.30
44701 2021-06-13 13:54:29 Terrasse 30.60 31.00 44.20
44700 2021-06-13 13:26:19 Terrasse 30.00 30.80 48.40
44699 2021-06-13 12:57:09 Terrasse 25.50 25.52 54.20
44698 2021-06-13 12:29:03 Terrasse 24.70 24.66 55.10
44697 2021-06-13 12:00:44 Terrasse 24.00 23.92 56.10
44696 2021-06-13 11:00:13 Terrasse 21.50 21.38 64.00
44695 2021-06-13 10:31:50 Terrasse 19.50 19.28 68.10
44694 2021-06-13 10:03:29 Terrasse 19.00 18.73 67.90
44693 2021-06-13 09:35:10 Terrasse 18.20 17.83 67.10
44692 2021-06-13 09:06:48 Terrasse 17.20 16.90 73.70
44691 2021-06-13 08:38:28 Terrasse 16.20 15.98 80.60
44690 2021-06-13 08:10:10 Terrasse 15.60 15.47 86.50
44689 2021-06-13 07:41:51 Terrasse 15.00 15.01 94.10
44688 2021-06-13 07:13:34 Terrasse 14.40 14.50 99.90
44687 2021-06-13 06:45:19 Terrasse 14.10 14.17 99.90
44686 2021-06-13 06:17:13 Terrasse 14.10 14.03 94.30
44685 2021-06-13 05:49:16 Terrasse 14.60 14.36 85.80
44684 2021-06-13 05:21:15 Terrasse 15.00 14.57 77.30
44683 2021-06-13 04:53:11 Terrasse 15.10 14.81 82.30
44682 2021-06-13 04:25:05 Terrasse 15.30 14.92 77.90
44681 2021-06-13 03:57:04 Terrasse 15.70 15.26 73.90
44680 2021-06-13 03:29:04 Terrasse 16.30 15.83 70.50
44679 2021-06-13 03:01:03 Terrasse 16.70 16.22 68.60
44678 2021-06-13 02:32:58 Terrasse 16.80 16.32 68.40
44677 2021-06-13 02:04:57 Terrasse 17.50 17.03 66.10
44676 2021-06-13 01:36:56 Terrasse 17.80 17.30 63.80
44675 2021-06-13 01:08:42 Terrasse 18.20 17.72 63.10
44674 2021-06-13 00:40:33 Terrasse 18.60 18.13 61.70
44673 2021-06-13 00:12:20 Terrasse 18.90 18.44 61.20
44672 2021-06-12 23:44:09 Terrasse 19.30 18.85 60.00
44671 2021-06-12 23:15:57 Terrasse 19.60 19.18 60.10
44670 2021-06-12 22:47:46 Terrasse 20.00 19.63 60.30
44669 2021-06-12 22:19:35 Terrasse 20.40 20.05 59.70
44668 2021-06-12 21:51:23 Terrasse 20.80 20.49 59.50
44667 2021-06-12 21:23:13 Terrasse 21.40 21.14 59.20
44666 2021-06-12 20:55:03 Terrasse 22.00 21.79 58.90
44665 2021-06-12 20:26:52 Terrasse 22.40 22.27 60.40
44664 2021-06-12 19:58:44 Terrasse 23.20 23.14 59.90
44663 2021-06-12 19:30:32 Terrasse 23.80 23.80 59.90
44662 2021-06-12 19:02:18 Terrasse 24.10 24.14 60.20
44661 2021-06-12 18:34:05 Terrasse 24.40 24.45 59.40
44660 2021-06-12 18:05:52 Terrasse 24.70 24.73 57.50
44659 2021-06-12 17:37:40 Terrasse 25.00 25.17 61.70
44658 2021-06-12 17:09:25 Terrasse 25.20 25.41 62.50
44657 2021-06-12 16:41:11 Terrasse 25.30 25.52 62.70
44656 2021-06-12 16:12:54 Terrasse 24.40 24.59 64.80
44655 2021-06-12 15:44:49 Terrasse 26.10 27.12 62.10
44654 2021-06-12 15:16:38 Terrasse 26.60 27.62 60.50
44653 2021-06-12 14:48:43 Terrasse 28.60 29.84 55.90
44652 2021-06-12 14:20:37 Terrasse 29.60 30.63 51.10
44651 2021-06-12 13:52:16 Terrasse 30.20 31.69 52.00
44650 2021-06-12 13:23:43 Terrasse 28.00 29.11 56.80
44649 2021-06-12 12:55:20 Terrasse 28.50 30.01 58.40
44648 2021-06-12 12:27:04 Terrasse 27.70 29.17 61.50
44647 2021-06-12 11:58:41 Terrasse 26.70 28.52 72.30
44646 2021-06-12 11:30:19 Terrasse 25.30 26.00 80.80
44645 2021-06-12 11:02:03 Terrasse 24.70 25.57 89.80
44644 2021-06-12 10:33:44 Terrasse 24.30 25.23 93.80
44643 2021-06-12 10:05:24 Terrasse 23.60 24.58 98.30
44642 2021-06-12 09:37:05 Terrasse 22.90 23.85 99.90
44641 2021-06-12 09:08:45 Terrasse 22.00 22.86 99.90
44640 2021-06-12 08:40:26 Terrasse 21.40 22.20 99.90
44639 2021-06-12 08:12:09 Terrasse 20.80 21.54 99.90
44638 2021-06-12 07:43:54 Terrasse 20.60 21.32 99.90
44637 2021-06-12 07:15:37 Terrasse 20.20 20.88 99.90
44636 2021-06-12 06:47:23 Terrasse 20.10 20.77 99.90
44635 2021-06-12 06:19:07 Terrasse 20.00 20.66 99.90
44634 2021-06-12 05:50:54 Terrasse 19.90 20.55 99.90
44633 2021-06-12 05:22:40 Terrasse 20.00 20.47 92.40
44632 2021-06-12 04:54:29 Terrasse 20.30 20.49 80.60
44631 2021-06-12 04:26:18 Terrasse 20.80 20.85 73.50
44630 2021-06-12 03:58:08 Terrasse 21.40 21.44 70.70
44629 2021-06-12 03:29:56 Terrasse 21.80 21.80 67.70
44628 2021-06-12 03:01:43 Terrasse 22.00 21.98 66.10
44627 2021-06-12 02:33:33 Terrasse 22.20 22.19 65.70
44626 2021-06-12 02:05:18 Terrasse 22.30 22.27 64.70
44625 2021-06-12 01:37:06 Terrasse 22.60 22.56 63.10
44624 2021-06-12 01:08:54 Terrasse 22.80 22.76 62.30
44623 2021-06-12 00:40:41 Terrasse 23.00 22.94 60.80
44622 2021-06-12 00:12:28 Terrasse 23.10 23.05 60.60
44621 2021-06-11 23:44:15 Terrasse 23.40 23.40 61.60
44620 2021-06-11 23:16:02 Terrasse 23.60 23.61 61.20
44619 2021-06-11 22:47:50 Terrasse 23.80 23.84 61.50
44618 2021-06-11 22:19:37 Terrasse 24.30 24.35 60.10
44617 2021-06-11 21:51:27 Terrasse 24.70 24.79 60.00
44616 2021-06-11 21:23:15 Terrasse 25.40 25.49 57.20
44615 2021-06-11 20:55:03 Terrasse 25.80 25.89 55.80
44614 2021-06-11 20:26:51 Terrasse 26.20 26.91 54.60
44613 2021-06-11 19:58:39 Terrasse 26.80 27.37 52.50
44612 2021-06-11 19:30:28 Terrasse 27.30 27.74 50.40
44611 2021-06-11 19:02:16 Terrasse 27.80 28.30 50.80
44610 2021-06-11 18:34:04 Terrasse 28.30 28.60 48.00
44609 2021-06-11 18:05:52 Terrasse 28.80 29.19 48.10
44608 2021-06-11 17:37:39 Terrasse 29.20 29.77 48.80
44607 2021-06-11 17:09:27 Terrasse 29.70 30.34 48.10
44606 2021-06-11 16:41:14 Terrasse 30.20 31.14 48.70
44605 2021-06-11 16:13:06 Terrasse 31.00 32.20 47.80
44604 2021-06-11 15:45:01 Terrasse 32.60 34.51 46.10
44603 2021-06-11 15:16:43 Terrasse 32.70 34.81 46.60
44602 2021-06-11 14:48:23 Terrasse 32.90 35.20 46.70
44601 2021-06-11 14:20:11 Terrasse 32.20 34.34 48.40
44600 2021-06-11 13:52:19 Terrasse 33.40 36.51 48.00
44599 2021-06-11 13:23:45 Terrasse 30.30 31.52 50.10
44598 2021-06-11 12:55:25 Terrasse 32.40 35.37 51.00
44597 2021-06-11 12:27:02 Terrasse 29.00 30.27 54.70
44596 2021-06-11 11:58:45 Terrasse 28.80 31.33 64.20
44595 2021-06-11 11:30:22 Terrasse 27.80 29.70 65.00
44594 2021-06-11 11:01:54 Terrasse 26.10 27.77 78.00
44593 2021-06-11 10:33:26 Terrasse 24.50 25.34 89.30
44592 2021-06-11 10:05:05 Terrasse 23.20 24.18 99.90
44591 2021-06-11 09:36:44 Terrasse 22.20 23.08 99.90
44590 2021-06-11 09:08:21 Terrasse 21.10 21.87 99.90
44589 2021-06-11 08:39:59 Terrasse 19.90 20.55 99.90
44588 2021-06-11 08:11:41 Terrasse 19.20 19.78 99.90
44587 2021-06-11 07:43:25 Terrasse 18.70 19.23 99.90
44586 2021-06-11 07:15:09 Terrasse 18.20 18.68 99.90
44585 2021-06-11 06:46:54 Terrasse 17.80 18.24 99.90
44584 2021-06-11 06:18:39 Terrasse 17.60 18.02 99.90
44583 2021-06-11 05:50:26 Terrasse 17.40 17.80 99.90
44582 2021-06-11 05:22:14 Terrasse 17.60 18.02 99.90
44581 2021-06-11 04:54:00 Terrasse 18.00 18.46 99.90
44580 2021-06-11 04:25:47 Terrasse 18.10 18.57 99.90
44579 2021-06-11 03:57:35 Terrasse 18.60 19.12 99.90
44578 2021-06-11 03:29:24 Terrasse 19.00 19.56 99.90
44577 2021-06-11 03:01:12 Terrasse 19.40 19.96 98.30
44576 2021-06-11 02:32:59 Terrasse 19.60 20.08 94.40
44575 2021-06-11 02:04:46 Terrasse 19.80 20.08 86.10
44574 2021-06-11 01:36:33 Terrasse 20.00 20.09 77.80
44573 2021-06-11 01:08:20 Terrasse 20.20 20.16 72.30
44572 2021-06-11 00:40:07 Terrasse 20.40 20.31 69.60
44571 2021-06-11 00:11:55 Terrasse 20.80 20.67 66.30
44570 2021-06-10 23:43:44 Terrasse 21.10 20.89 62.20
44569 2021-06-10 23:15:32 Terrasse 21.50 21.23 58.40
44568 2021-06-10 22:47:22 Terrasse 22.00 21.78 58.20
44567 2021-06-10 22:19:10 Terrasse 22.70 22.52 57.10
44566 2021-06-10 21:50:57 Terrasse 23.10 22.95 57.00
44565 2021-06-10 21:22:46 Terrasse 23.80 23.70 56.20
44564 2021-06-10 20:54:34 Terrasse 24.30 24.19 53.90
44563 2021-06-10 20:26:24 Terrasse 24.90 24.84 53.60
44562 2021-06-10 19:58:12 Terrasse 25.50 25.49 52.90
44561 2021-06-10 19:30:02 Terrasse 26.00 26.02 52.10
44560 2021-06-10 19:01:49 Terrasse 26.50 27.11 52.90
44559 2021-06-10 18:33:37 Terrasse 27.10 27.66 52.30
44558 2021-06-10 18:06:40 Terrasse 27.60 28.21 52.40
44557 2021-06-10 17:36:22 Terrasse 28.20 28.85 51.80
44556 2021-06-10 17:08:09 Terrasse 28.60 29.49 53.00
44555 2021-06-10 16:39:57 Terrasse 29.10 30.13 52.60
44554 2021-06-10 16:11:48 Terrasse 29.70 30.87 51.70
44553 2021-06-10 15:43:48 Terrasse 31.30 33.36 51.10
44552 2021-06-10 15:15:25 Terrasse 30.50 31.50 48.20
44551 2021-06-10 14:47:10 Terrasse 30.80 32.62 51.70
44550 2021-06-10 14:19:10 Terrasse 31.50 33.85 51.70
44549 2021-06-10 13:51:01 Terrasse 32.00 35.29 53.70
44548 2021-06-10 13:21:59 Terrasse 28.80 32.33 70.20
44547 2021-06-10 12:53:51 Terrasse 27.80 30.33 70.40
44546 2021-06-10 12:25:30 Terrasse 26.60 28.75 78.20
44545 2021-06-10 11:57:09 Terrasse 24.90 25.57 81.30
44544 2021-06-10 11:29:07 Terrasse 26.80 29.07 77.10
44543 2021-06-10 11:00:46 Terrasse 25.50 26.82 93.70
44542 2021-06-10 10:32:20 Terrasse 24.20 25.28 99.90
44541 2021-06-10 10:03:57 Terrasse 22.80 23.74 99.90
44540 2021-06-10 09:35:36 Terrasse 21.70 22.53 99.90
44539 2021-06-10 09:07:16 Terrasse 20.80 21.54 99.90
44538 2021-06-10 08:38:54 Terrasse 19.70 20.33 99.90
44537 2021-06-10 08:10:37 Terrasse 19.10 19.67 99.90
44536 2021-06-10 07:42:21 Terrasse 18.80 19.34 99.90
44535 2021-06-10 07:14:04 Terrasse 18.50 19.01 99.90
44534 2021-06-10 06:45:50 Terrasse 18.00 18.46 99.90
44533 2021-06-10 06:17:33 Terrasse 17.60 18.02 99.90
44532 2021-06-10 05:49:26 Terrasse 17.50 17.91 99.90
44531 2021-06-10 05:21:11 Terrasse 17.50 17.91 99.90
44530 2021-06-10 04:52:58 Terrasse 17.80 18.24 99.90
44529 2021-06-10 04:24:49 Terrasse 18.00 18.46 99.90
44528 2021-06-10 03:56:34 Terrasse 18.10 18.57 99.90
44527 2021-06-10 03:28:23 Terrasse 18.30 18.79 99.90
44526 2021-06-10 03:00:12 Terrasse 18.50 19.01 99.90
44525 2021-06-10 02:32:00 Terrasse 18.80 19.34 99.90
44524 2021-06-10 02:03:49 Terrasse 19.10 19.67 99.90
44523 2021-06-10 01:35:36 Terrasse 19.60 20.22 99.90
44522 2021-06-10 01:07:24 Terrasse 20.00 20.66 99.90
44521 2021-06-10 00:39:11 Terrasse 20.40 21.10 99.90
44520 2021-06-10 00:10:58 Terrasse 20.50 21.21 99.90
44519 2021-06-09 23:42:45 Terrasse 20.60 21.32 99.90
44518 2021-06-09 23:14:34 Terrasse 21.20 21.98 99.90
44517 2021-06-09 22:46:22 Terrasse 21.60 22.42 99.90
44516 2021-06-09 22:18:12 Terrasse 22.20 22.95 94.70
44515 2021-06-09 21:50:01 Terrasse 22.90 23.37 81.20
44514 2021-06-09 21:21:49 Terrasse 23.40 23.75 74.80
44513 2021-06-09 20:53:37 Terrasse 23.70 24.09 75.30
44512 2021-06-09 20:25:25 Terrasse 24.20 24.58 72.80
44511 2021-06-09 19:57:13 Terrasse 24.80 25.13 68.90
44510 2021-06-09 19:29:01 Terrasse 25.30 25.65 67.40
44509 2021-06-09 19:00:58 Terrasse 25.80 26.11 64.00
44508 2021-06-09 18:32:45 Terrasse 26.10 27.10 61.70
44507 2021-06-09 18:04:33 Terrasse 26.60 27.66 61.10
44506 2021-06-09 17:36:20 Terrasse 26.90 28.04 61.20
44505 2021-06-09 17:08:10 Terrasse 27.40 28.78 62.00
44504 2021-06-09 16:39:55 Terrasse 27.50 28.97 62.50
44503 2021-06-09 16:11:45 Terrasse 28.00 29.70 62.20
44502 2021-06-09 15:43:40 Terrasse 29.50 32.10 61.10
44501 2021-06-09 15:15:16 Terrasse 28.50 30.85 64.60
44500 2021-06-09 14:46:54 Terrasse 27.10 28.96 69.30
44499 2021-06-09 14:18:45 Terrasse 27.30 29.31 69.40
44498 2021-06-09 13:50:36 Terrasse 29.60 33.44 67.00
44497 2021-06-09 13:21:39 Terrasse 24.90 25.75 88.10
44496 2021-06-09 12:53:26 Terrasse 26.50 29.83 96.60
44495 2021-06-09 12:24:58 Terrasse 23.50 24.51 99.90
44494 2021-06-09 11:56:30 Terrasse 21.80 22.64 99.90
44493 2021-06-09 11:28:14 Terrasse 21.50 22.31 99.90
44492 2021-06-09 11:00:02 Terrasse 21.70 22.53 99.90
44491 2021-06-09 10:31:52 Terrasse 22.50 23.41 99.90
44490 2021-06-09 10:03:32 Terrasse 22.10 22.97 99.90
44489 2021-06-09 09:35:11 Terrasse 20.80 21.54 99.90
44488 2021-06-09 09:06:48 Terrasse 19.80 20.44 99.90
44487 2021-06-09 08:38:28 Terrasse 18.80 19.34 99.90
44486 2021-06-09 08:10:10 Terrasse 18.00 18.46 99.90
44485 2021-06-09 07:41:54 Terrasse 17.70 18.13 99.90
44484 2021-06-09 07:13:37 Terrasse 17.40 17.80 99.90
44483 2021-06-09 06:45:21 Terrasse 17.10 17.47 99.90
44482 2021-06-09 06:17:07 Terrasse 16.80 17.14 99.90
44481 2021-06-09 05:49:11 Terrasse 16.80 17.14 99.90
44480 2021-06-09 04:50:46 Terrasse 16.90 17.25 99.90
44479 2021-06-09 04:22:21 Terrasse 17.20 17.58 99.90
44478 2021-06-09 03:54:10 Terrasse 17.40 17.80 99.90
44477 2021-06-09 03:27:24 Terrasse 17.60 18.02 99.90
44476 2021-06-09 02:56:01 Terrasse 17.60 18.02 99.90
44475 2021-06-09 01:57:05 Terrasse 17.80 18.24 99.90
44474 2021-06-09 01:28:52 Terrasse 18.00 18.46 99.90
44473 2021-06-09 01:00:38 Terrasse 18.30 18.79 99.90
44472 2021-06-09 00:32:31 Terrasse 18.30 18.79 99.90
44471 2021-06-09 00:04:26 Terrasse 18.60 19.12 99.90
44470 2021-06-08 23:36:10 Terrasse 18.80 19.34 99.90
44469 2021-06-08 23:08:08 Terrasse 18.90 19.45 99.90
44468 2021-06-08 22:39:52 Terrasse 19.20 19.78 99.90
44467 2021-06-08 22:11:42 Terrasse 19.60 20.22 99.90
44466 2021-06-08 21:43:31 Terrasse 20.30 20.99 99.90
44465 2021-06-08 21:15:19 Terrasse 20.90 21.65 99.90
44464 2021-06-08 20:47:07 Terrasse 21.40 22.20 99.90
44463 2021-06-08 20:18:55 Terrasse 21.70 22.53 99.90
44462 2021-06-08 19:50:45 Terrasse 22.20 23.08 99.90
44461 2021-06-08 19:22:33 Terrasse 22.70 23.63 99.90
44460 2021-06-08 18:54:21 Terrasse 23.00 23.96 99.90
44459 2021-06-08 18:26:08 Terrasse 23.10 24.07 99.90
44458 2021-06-08 17:57:56 Terrasse 23.50 24.51 99.90
44457 2021-06-08 17:29:42 Terrasse 23.80 24.84 99.90
44456 2021-06-08 17:01:20 Terrasse 22.70 23.63 99.90
44455 2021-06-08 16:33:06 Terrasse 22.70 23.63 99.90
44454 2021-06-08 16:04:57 Terrasse 22.30 23.19 99.90
44453 2021-06-08 15:36:41 Terrasse 22.40 23.30 99.90
44452 2021-06-08 15:08:28 Terrasse 22.70 23.63 99.90
44451 2021-06-08 14:40:16 Terrasse 22.80 23.74 99.90
44450 2021-06-08 14:12:01 Terrasse 23.00 23.96 99.90
44449 2021-06-08 13:43:46 Terrasse 22.60 23.52 99.90
44448 2021-06-08 13:15:24 Terrasse 21.40 22.20 99.90
44447 2021-06-08 12:47:06 Terrasse 21.10 21.87 99.90
44446 2021-06-08 12:18:47 Terrasse 20.30 20.99 99.90
44445 2021-06-08 11:50:29 Terrasse 19.50 20.11 99.90
44444 2021-06-08 11:22:11 Terrasse 19.10 19.67 99.90
44443 2021-06-08 10:53:55 Terrasse 18.60 19.12 99.90
44442 2021-06-08 10:25:40 Terrasse 18.30 18.79 99.90
44441 2021-06-08 09:57:31 Terrasse 18.10 18.57 99.90
44440 2021-06-08 09:29:15 Terrasse 18.00 18.46 99.90
44439 2021-06-08 09:01:01 Terrasse 17.90 18.35 99.90
44438 2021-06-08 08:32:50 Terrasse 18.10 18.57 99.90
44437 2021-06-08 08:04:36 Terrasse 18.00 18.46 99.90
44436 2021-06-08 07:36:20 Terrasse 17.70 18.13 99.90
44435 2021-06-08 07:08:15 Terrasse 17.40 17.80 99.90
44434 2021-06-08 06:39:57 Terrasse 17.20 17.58 99.90
44433 2021-06-08 06:12:05 Terrasse 17.20 17.58 99.90
44432 2021-06-08 05:43:52 Terrasse 17.20 17.58 99.90
44431 2021-06-08 05:15:34 Terrasse 17.20 17.58 99.90
44430 2021-06-08 04:47:24 Terrasse 17.30 17.69 99.90
44429 2021-06-08 04:19:13 Terrasse 17.30 17.69 99.90
44428 2021-06-08 03:50:58 Terrasse 17.30 17.69 99.90
44427 2021-06-08 03:22:46 Terrasse 17.40 17.80 99.90
44426 2021-06-08 02:54:36 Terrasse 17.40 17.80 99.90
44425 2021-06-08 02:26:43 Terrasse 17.40 17.80 99.90
44424 2021-06-08 01:58:20 Terrasse 17.40 17.80 99.90
44423 2021-06-08 01:30:06 Terrasse 17.50 17.91 99.90
44422 2021-06-08 01:01:56 Terrasse 17.50 17.91 99.90
44421 2021-06-08 00:33:44 Terrasse 17.80 18.24 99.90
44420 2021-06-08 00:05:30 Terrasse 17.90 18.35 99.90
44419 2021-06-07 23:37:17 Terrasse 17.90 18.35 99.90
44418 2021-06-07 23:09:05 Terrasse 18.10 18.57 99.90
44417 2021-06-07 22:40:59 Terrasse 18.20 18.68 99.90
44416 2021-06-07 22:12:44 Terrasse 18.60 19.12 99.90
44415 2021-06-07 21:44:40 Terrasse 18.90 19.45 99.90
44414 2021-06-07 21:16:25 Terrasse 19.40 20.00 99.90
44413 2021-06-07 20:48:14 Terrasse 19.80 20.44 99.90
44412 2021-06-07 20:20:04 Terrasse 20.20 20.88 99.90
44411 2021-06-07 19:51:52 Terrasse 20.50 21.21 99.90
44410 2021-06-07 19:23:44 Terrasse 21.00 21.76 99.90
44409 2021-06-07 18:55:30 Terrasse 21.20 21.98 99.90
44408 2021-06-07 18:27:15 Terrasse 21.00 21.76 99.90
44407 2021-06-07 17:59:03 Terrasse 21.30 22.09 99.90
44406 2021-06-07 17:30:49 Terrasse 21.40 22.20 99.90
44405 2021-06-07 17:02:36 Terrasse 21.60 22.42 99.90
44404 2021-06-07 16:34:20 Terrasse 21.40 22.20 99.90
44403 2021-06-07 16:06:06 Terrasse 21.50 22.31 99.90
44402 2021-06-07 15:37:54 Terrasse 21.30 22.09 99.90
44401 2021-06-07 15:09:35 Terrasse 21.10 21.87 99.90
44400 2021-06-07 14:41:16 Terrasse 20.40 21.10 99.90
44399 2021-06-07 14:13:00 Terrasse 20.20 20.88 99.90
44398 2021-06-07 13:44:42 Terrasse 19.50 20.11 99.90
44397 2021-06-07 13:16:28 Terrasse 19.40 20.00 99.90
44396 2021-06-07 12:48:11 Terrasse 19.10 19.67 99.90
44395 2021-06-07 12:19:52 Terrasse 18.20 18.68 99.90
44394 2021-06-07 11:51:35 Terrasse 17.70 18.13 99.90
44393 2021-06-07 11:23:15 Terrasse 16.70 17.03 99.90
44392 2021-06-07 10:26:55 Terrasse 16.50 16.81 99.90
44391 2021-06-07 09:58:40 Terrasse 16.50 16.81 99.90
44390 2021-06-07 09:01:38 Terrasse 16.20 16.48 99.90
44389 2021-06-07 08:02:44 Terrasse 16.30 16.59 99.90
44388 2021-06-07 07:34:00 Terrasse 16.30 16.59 99.90
44387 2021-06-07 07:05:46 Terrasse 16.30 16.59 99.90
44386 2021-06-07 06:37:32 Terrasse 16.30 16.59 99.90
44385 2021-06-07 06:09:17 Terrasse 16.40 16.70 99.90
44384 2021-06-07 05:41:03 Terrasse 16.30 16.59 99.90
44383 2021-06-07 05:12:50 Terrasse 16.50 16.81 99.90
44382 2021-06-07 04:44:38 Terrasse 16.70 17.03 99.90
44381 2021-06-07 04:16:25 Terrasse 16.90 17.25 99.90
44380 2021-06-07 03:48:13 Terrasse 17.00 17.36 99.90
44379 2021-06-07 03:20:01 Terrasse 17.10 17.47 99.90
44378 2021-06-07 02:51:51 Terrasse 17.10 17.47 99.90
44377 2021-06-07 02:23:37 Terrasse 17.20 17.58 99.90
44376 2021-06-07 01:55:23 Terrasse 17.30 17.69 99.90
44375 2021-06-07 01:27:10 Terrasse 17.30 17.69 99.90
44374 2021-06-07 00:58:56 Terrasse 17.30 17.69 99.90
44373 2021-06-07 00:30:43 Terrasse 17.30 17.69 99.90
44372 2021-06-07 00:02:31 Terrasse 17.40 17.80 99.90
44371 2021-06-06 23:34:18 Terrasse 17.40 17.80 99.90
44370 2021-06-06 23:06:06 Terrasse 17.60 18.02 99.90
44369 2021-06-06 22:37:53 Terrasse 17.70 18.13 99.90
44368 2021-06-06 22:09:41 Terrasse 17.90 18.35 99.90
44367 2021-06-06 21:41:29 Terrasse 18.20 18.68 99.90
44366 2021-06-06 21:13:17 Terrasse 18.40 18.90 99.90
44365 2021-06-06 20:45:04 Terrasse 18.50 19.01 99.90
44364 2021-06-06 20:16:52 Terrasse 18.70 19.23 99.90
44363 2021-06-06 19:48:50 Terrasse 19.00 19.56 99.90
44362 2021-06-06 19:20:37 Terrasse 19.40 20.00 99.90
44361 2021-06-06 18:52:28 Terrasse 20.00 20.66 99.90
44360 2021-06-06 18:24:14 Terrasse 20.30 20.99 99.90
44359 2021-06-06 17:56:02 Terrasse 20.80 21.54 99.90
44358 2021-06-06 17:27:54 Terrasse 21.40 22.20 99.90
44357 2021-06-06 16:59:48 Terrasse 22.80 23.71 98.70
44356 2021-06-06 16:31:31 Terrasse 22.40 23.30 99.90
44355 2021-06-06 16:03:17 Terrasse 22.10 22.92 97.70
44354 2021-06-06 15:35:12 Terrasse 23.30 23.95 86.60
44353 2021-06-06 15:07:11 Terrasse 25.40 26.10 80.60
44352 2021-06-06 14:38:56 Terrasse 25.70 27.03 76.90
44351 2021-06-06 14:10:56 Terrasse 26.80 28.89 74.80
44350 2021-06-06 13:42:13 Terrasse 25.90 27.84 91.70
44349 2021-06-06 13:14:00 Terrasse 23.60 24.53 96.40
44348 2021-06-06 12:45:31 Terrasse 22.10 22.97 99.90
44347 2021-06-06 12:17:16 Terrasse 21.90 22.75 99.90
44346 2021-06-06 11:48:56 Terrasse 21.10 21.87 99.90
44345 2021-06-06 11:20:37 Terrasse 20.00 20.66 99.90
44344 2021-06-06 10:52:21 Terrasse 19.90 20.55 99.90
44343 2021-06-06 10:24:01 Terrasse 19.10 19.67 99.90
44342 2021-06-06 09:55:44 Terrasse 18.50 19.01 99.90
44341 2021-06-06 09:27:26 Terrasse 17.90 18.35 99.90
44340 2021-06-06 08:59:10 Terrasse 17.50 17.91 99.90
44339 2021-06-06 08:30:52 Terrasse 17.10 17.47 99.90
44338 2021-06-06 08:02:37 Terrasse 17.00 17.36 99.90
44337 2021-06-06 07:34:19 Terrasse 16.70 17.03 99.90
44336 2021-06-06 07:06:03 Terrasse 16.60 16.92 99.90
44335 2021-06-06 06:37:49 Terrasse 16.60 16.92 99.90
44334 2021-06-06 06:09:35 Terrasse 16.70 17.03 99.90
44333 2021-06-06 02:25:30 Terrasse 17.70 18.13 99.90
44332 2021-06-06 01:57:23 Terrasse 17.80 18.24 99.90
44331 2021-06-05 23:34:30 Terrasse 18.50 19.01 99.90
44330 2021-06-05 23:06:19 Terrasse 18.70 19.23 99.90
44329 2021-06-05 22:38:07 Terrasse 19.00 19.56 99.90
44328 2021-06-05 22:09:56 Terrasse 19.30 19.89 99.90
44327 2021-06-05 21:41:45 Terrasse 19.80 20.44 99.90
44326 2021-06-05 21:13:34 Terrasse 20.20 20.88 99.90
44325 2021-06-05 20:45:22 Terrasse 20.60 21.32 99.90
44324 2021-06-05 20:17:12 Terrasse 21.10 21.87 99.90
44323 2021-06-05 19:49:03 Terrasse 21.90 22.75 99.90
44322 2021-06-05 19:20:53 Terrasse 22.40 23.30 99.90
44321 2021-06-05 18:52:35 Terrasse 22.30 23.19 99.90
44320 2021-06-05 18:24:20 Terrasse 22.10 22.97 99.90
44319 2021-06-05 17:56:05 Terrasse 21.90 22.75 99.90
44318 2021-06-05 17:27:50 Terrasse 21.80 22.64 99.90
44317 2021-06-05 16:59:34 Terrasse 21.70 22.53 99.90
44316 2021-06-05 16:31:25 Terrasse 22.10 22.97 99.90
44315 2021-06-05 16:03:18 Terrasse 23.10 24.07 99.90
44314 2021-06-05 15:35:05 Terrasse 23.20 24.18 99.90
44313 2021-06-05 15:06:53 Terrasse 23.20 24.18 99.90
44312 2021-06-05 14:38:31 Terrasse 23.40 24.40 99.90
44311 2021-06-05 14:10:22 Terrasse 23.80 24.84 99.90
44310 2021-06-05 13:42:04 Terrasse 22.70 23.63 99.90
44309 2021-06-05 13:13:57 Terrasse 23.30 24.29 99.90
44308 2021-06-05 12:45:38 Terrasse 23.00 23.96 99.90
44307 2021-06-05 12:17:26 Terrasse 23.50 24.51 99.90
44306 2021-06-05 11:49:03 Terrasse 23.00 23.96 99.90
44305 2021-06-05 11:20:49 Terrasse 22.10 22.97 99.90
44304 2021-06-05 10:52:23 Terrasse 21.00 21.76 99.90
44303 2021-06-05 10:24:04 Terrasse 19.40 20.00 99.90
44302 2021-06-05 09:55:50 Terrasse 19.20 19.78 99.90
44301 2021-06-05 09:27:34 Terrasse 18.80 19.34 99.90
44300 2021-06-05 08:59:19 Terrasse 18.50 19.01 99.90
44299 2021-06-05 08:31:04 Terrasse 18.30 18.79 99.90
44298 2021-06-05 08:02:49 Terrasse 18.10 18.57 99.90
44297 2021-06-05 07:34:36 Terrasse 18.20 18.68 99.90
44296 2021-06-05 07:06:18 Terrasse 17.90 18.35 99.90
44295 2021-06-05 06:38:03 Terrasse 17.50 17.91 99.90
44294 2021-06-05 06:09:49 Terrasse 17.20 17.58 99.90
44293 2021-06-05 05:41:36 Terrasse 17.30 17.69 99.90
44292 2021-06-05 05:13:24 Terrasse 17.30 17.69 99.90
44291 2021-06-05 04:45:12 Terrasse 17.40 17.80 99.90
44290 2021-06-05 04:16:59 Terrasse 17.60 18.02 99.90
44289 2021-06-05 03:48:56 Terrasse 17.80 18.24 99.90
44288 2021-06-05 03:20:40 Terrasse 17.80 18.24 99.90
44287 2021-06-05 02:52:27 Terrasse 17.90 18.35 99.90
44286 2021-06-05 02:24:15 Terrasse 18.30 18.79 99.90
44285 2021-06-05 01:56:02 Terrasse 18.60 19.12 99.90
44284 2021-06-05 01:27:50 Terrasse 18.70 19.23 99.90
44283 2021-06-05 00:59:38 Terrasse 19.10 19.67 99.90
44282 2021-06-05 00:31:25 Terrasse 19.30 19.89 99.90
44281 2021-06-05 00:03:15 Terrasse 19.70 20.33 99.90
44280 2021-06-04 22:26:38 Terrasse 21.80 22.64 99.90
44279 2021-06-04 21:58:24 Terrasse 21.90 22.75 99.90
44278 2021-06-04 21:30:14 Terrasse 22.50 23.41 99.90
44277 2021-06-04 21:02:04 Terrasse 23.10 24.07 99.90
44276 2021-06-04 20:33:52 Terrasse 23.70 24.73 99.90
44275 2021-06-04 20:05:40 Terrasse 24.20 25.28 99.90
44274 2021-06-04 19:37:29 Terrasse 24.40 25.50 99.90
44273 2021-06-04 19:09:16 Terrasse 24.60 25.72 99.90
44272 2021-06-04 18:42:22 Terrasse 24.90 25.95 96.10
44271 2021-06-04 18:14:01 Terrasse 25.70 27.15 82.80
44270 2021-06-04 17:44:53 Terrasse 26.00 27.38 72.20
44269 2021-06-04 17:16:44 Terrasse 26.50 28.26 73.50
44268 2021-06-04 16:48:34 Terrasse 27.30 29.63 72.60
44267 2021-06-04 16:20:23 Terrasse 27.60 29.95 70.30
44266 2021-06-04 15:52:19 Terrasse 28.70 30.61 60.50
44265 2021-06-04 15:24:07 Terrasse 28.90 31.39 63.40
44264 2021-06-04 14:56:05 Terrasse 30.10 33.23 61.00
44263 2021-06-04 14:28:07 Terrasse 30.80 33.51 56.00
44262 2021-06-04 14:00:24 Terrasse 35.20 40.75 49.00
44261 2021-06-04 13:32:00 Terrasse 34.90 41.15 51.80
44260 2021-06-04 13:03:17 Terrasse 31.80 36.55 59.80
44259 2021-06-04 12:34:45 Terrasse 27.70 30.67 74.70
44258 2021-06-04 12:06:32 Terrasse 26.80 29.16 78.30
44257 2021-06-04 11:38:15 Terrasse 26.50 29.40 90.80
44256 2021-06-04 11:09:52 Terrasse 25.20 25.93 99.90
44255 2021-06-04 10:13:36 Terrasse 22.80 23.74 99.90
44254 2021-06-04 09:45:17 Terrasse 22.30 23.19 99.90
44253 2021-06-04 09:16:52 Terrasse 21.30 22.09 99.90
44252 2021-06-04 08:48:33 Terrasse 20.40 21.10 99.90
44251 2021-06-04 08:20:12 Terrasse 19.70 20.33 99.90
44250 2021-06-04 07:51:57 Terrasse 19.10 19.67 99.90
44249 2021-06-03 19:52:39 Terrasse 22.90 23.85 99.90
44248 2021-06-03 19:24:30 Terrasse 23.70 24.49 90.40
44247 2021-06-03 18:56:34 Terrasse 26.20 27.09 58.80
44246 2021-06-03 18:28:24 Terrasse 27.30 28.09 55.20
44245 2021-06-03 18:00:55 Terrasse 28.00 28.81 53.90
44244 2021-06-03 17:33:39 Terrasse 28.40 29.20 52.70
44243 2021-06-03 17:02:11 Terrasse 28.50 29.47 54.00
44242 2021-06-03 16:26:46 Terrasse 28.70 29.66 53.30
44241 2021-06-03 15:56:52 Terrasse 29.20 30.00 50.60
44240 2021-06-03 15:25:55 Terrasse 29.60 30.63 51.10
44239 2021-06-03 14:57:36 Terrasse 30.40 31.35 48.20
44238 2021-06-03 14:29:32 Terrasse 32.50 34.42 46.50
44237 2021-06-03 14:01:43 Terrasse 35.20 38.53 42.90
44236 2021-06-03 13:33:20 Terrasse 34.60 37.94 44.80
44235 2021-06-03 13:04:46 Terrasse 32.50 34.89 48.40
44234 2021-06-03 12:36:13 Terrasse 28.70 29.95 55.60
44233 2021-06-03 12:07:50 Terrasse 26.70 27.69 59.70
44232 2021-06-03 11:39:33 Terrasse 26.00 27.06 63.70
44231 2021-06-03 11:12:12 Terrasse 24.70 24.99 67.40
44230 2021-06-03 10:43:09 Terrasse 24.10 24.34 68.10
44229 2021-06-03 10:14:47 Terrasse 23.00 23.13 67.80
44228 2021-06-03 09:14:04 Terrasse 20.70 20.69 71.60
44227 2021-06-03 08:45:45 Terrasse 19.80 19.85 77.20
44226 2021-06-03 08:17:27 Terrasse 19.20 19.62 93.60
44225 2021-06-03 07:49:11 Terrasse 18.80 19.34 99.90
44224 2021-06-03 07:20:59 Terrasse 18.70 19.23 99.90
44223 2021-06-03 06:52:44 Terrasse 18.30 18.55 90.70
44222 2021-06-03 06:24:29 Terrasse 17.70 17.87 89.80
44221 2021-06-03 05:56:16 Terrasse 17.60 17.51 80.20
44220 2021-06-03 05:28:04 Terrasse 17.70 17.49 75.20
44219 2021-06-03 04:59:54 Terrasse 17.80 17.50 71.40
44218 2021-06-03 04:31:42 Terrasse 18.10 17.68 65.80
44217 2021-06-03 04:03:32 Terrasse 18.40 17.93 62.50
44216 2021-06-03 03:35:22 Terrasse 18.80 18.30 60.10
44215 2021-06-03 03:07:12 Terrasse 19.10 18.64 60.20
44214 2021-06-03 02:39:01 Terrasse 19.40 18.89 57.30
44213 2021-06-03 02:10:49 Terrasse 19.70 19.15 54.40
44212 2021-06-03 01:42:37 Terrasse 19.90 19.34 53.60
44211 2021-06-03 01:14:25 Terrasse 20.20 19.67 53.50
44210 2021-06-03 00:46:13 Terrasse 20.40 19.88 53.20
44209 2021-06-03 00:18:02 Terrasse 20.70 20.22 53.60
44208 2021-06-02 23:49:50 Terrasse 20.90 20.42 52.80
44207 2021-06-02 23:21:39 Terrasse 21.10 20.56 49.60
44206 2021-06-02 22:53:31 Terrasse 21.70 21.20 49.00
44205 2021-06-02 22:25:23 Terrasse 22.00 21.53 48.80
44204 2021-06-02 21:57:15 Terrasse 22.70 22.27 47.70
44203 2021-06-02 21:29:07 Terrasse 23.50 23.10 45.70
44202 2021-06-02 21:00:58 Terrasse 24.20 23.85 44.80
44201 2021-06-02 20:32:48 Terrasse 24.70 24.37 43.90
44200 2021-06-02 20:04:39 Terrasse 25.50 25.23 42.90
44199 2021-06-02 19:36:28 Terrasse 25.90 25.62 41.00
44198 2021-06-02 19:08:18 Terrasse 26.30 26.03 40.00
44197 2021-06-02 18:40:09 Terrasse 26.90 26.74 39.00
44196 2021-06-02 18:11:59 Terrasse 27.40 27.13 39.40
44195 2021-06-02 17:43:48 Terrasse 27.90 27.43 37.60
44194 2021-06-02 17:15:38 Terrasse 28.40 27.82 37.20
44193 2021-06-02 16:47:28 Terrasse 29.00 28.51 38.90
44192 2021-06-02 16:19:19 Terrasse 29.60 29.10 38.60
44191 2021-06-02 15:51:23 Terrasse 31.20 30.56 35.60
44190 2021-06-02 15:23:13 Terrasse 32.30 31.63 33.50
44189 2021-06-02 14:55:08 Terrasse 33.40 33.33 34.80
44188 2021-06-02 14:26:57 Terrasse 32.70 32.03 32.80
44187 2021-06-02 13:58:56 Terrasse 34.90 35.37 33.80
44186 2021-06-02 13:30:35 Terrasse 34.50 34.36 32.00
44185 2021-06-02 13:01:59 Terrasse 32.40 32.28 36.80
44184 2021-06-02 12:33:28 Terrasse 28.00 27.98 44.30
44183 2021-06-02 12:05:13 Terrasse 26.90 27.02 44.50
44182 2021-06-02 11:36:52 Terrasse 25.50 25.39 49.10
44181 2021-06-02 11:08:30 Terrasse 23.90 23.59 47.60
44180 2021-06-02 10:40:06 Terrasse 22.60 22.26 51.50
44179 2021-06-02 10:11:46 Terrasse 21.40 20.89 49.50
44178 2021-06-02 09:43:27 Terrasse 20.20 19.69 54.30
44177 2021-06-02 09:15:08 Terrasse 19.00 18.39 54.80
44176 2021-06-02 08:46:47 Terrasse 17.70 17.01 56.70
44175 2021-06-02 08:18:30 Terrasse 16.70 15.95 58.20
44174 2021-06-02 07:50:13 Terrasse 16.00 15.25 61.10
44173 2021-06-02 07:22:01 Terrasse 15.30 14.60 65.60
44172 2021-06-02 06:53:46 Terrasse 14.90 14.16 65.70
44171 2021-06-02 06:25:34 Terrasse 14.80 13.98 62.90
44170 2021-06-02 05:57:27 Terrasse 14.90 14.02 60.30
44169 2021-06-02 05:29:15 Terrasse 15.20 14.32 59.30
44168 2021-06-02 05:01:07 Terrasse 15.50 14.63 58.40
44167 2021-06-02 04:32:59 Terrasse 16.00 15.13 56.30
44166 2021-06-02 04:04:50 Terrasse 16.70 15.84 54.10
44165 2021-06-02 03:36:41 Terrasse 17.00 16.16 53.80
44164 2021-06-02 03:08:31 Terrasse 17.20 16.39 54.00
44163 2021-06-02 02:40:21 Terrasse 17.40 16.60 53.90
44162 2021-06-02 02:12:10 Terrasse 17.50 16.70 53.50
44161 2021-06-02 01:43:59 Terrasse 17.80 17.03 53.30
44160 2021-06-02 01:15:50 Terrasse 18.00 17.23 52.60
44159 2021-06-02 00:47:39 Terrasse 18.10 17.32 51.80
44158 2021-06-02 00:19:28 Terrasse 18.20 17.39 50.30
44157 2021-06-01 23:51:17 Terrasse 18.50 17.71 49.80
44156 2021-06-01 23:23:08 Terrasse 18.90 18.15 50.10
44155 2021-06-01 22:54:59 Terrasse 19.30 18.56 48.90
44154 2021-06-01 22:26:50 Terrasse 19.90 19.19 47.60
44153 2021-06-01 21:58:42 Terrasse 20.50 19.85 47.50
44152 2021-06-01 21:30:33 Terrasse 21.30 20.68 45.70
44151 2021-06-01 21:02:25 Terrasse 22.20 21.59 42.80
44150 2021-06-01 20:34:17 Terrasse 23.10 22.57 42.20
44149 2021-06-01 20:06:06 Terrasse 23.70 23.19 40.90
44148 2021-06-01 19:37:57 Terrasse 24.30 23.82 39.80
44147 2021-06-01 19:09:47 Terrasse 24.80 24.36 39.30
44146 2021-06-01 18:41:38 Terrasse 25.50 25.07 37.10
44145 2021-06-01 18:13:27 Terrasse 26.00 25.66 38.60
44144 2021-06-01 17:45:17 Terrasse 26.40 26.08 37.80
44143 2021-06-01 17:17:06 Terrasse 27.00 26.77 38.10
44142 2021-06-01 16:48:58 Terrasse 27.40 27.01 37.20
44141 2021-06-01 16:20:50 Terrasse 28.00 27.48 37.10
44140 2021-06-01 15:52:52 Terrasse 29.40 28.65 35.90
44139 2021-06-01 15:24:48 Terrasse 30.30 29.56 35.80
44138 2021-06-01 14:56:49 Terrasse 31.30 30.23 31.80
44137 2021-06-01 14:28:36 Terrasse 31.40 30.74 35.10
44136 2021-06-01 14:00:40 Terrasse 33.90 33.64 32.70
44135 2021-06-01 13:32:18 Terrasse 33.40 33.31 34.70
44134 2021-06-01 13:03:41 Terrasse 30.70 30.17 37.20
44133 2021-06-01 12:35:07 Terrasse 26.40 26.58 43.00
44132 2021-06-01 12:06:53 Terrasse 25.40 25.11 42.80
44131 2021-06-01 11:38:30 Terrasse 24.00 23.68 46.80
44130 2021-06-01 11:10:06 Terrasse 22.60 22.15 47.40
44129 2021-06-01 10:41:40 Terrasse 21.00 20.46 50.00
44128 2021-06-01 10:13:21 Terrasse 19.60 18.91 49.70
44127 2021-06-01 09:45:00 Terrasse 18.50 17.73 50.90
44126 2021-06-01 09:16:41 Terrasse 17.50 16.72 54.00
44125 2021-06-01 08:48:19 Terrasse 16.20 15.34 56.20
44124 2021-06-01 08:20:00 Terrasse 15.10 14.14 56.60
44123 2021-06-01 07:51:43 Terrasse 14.40 13.41 58.00
44122 2021-06-01 07:23:27 Terrasse 13.60 12.68 63.70
44121 2021-06-01 06:55:13 Terrasse 13.10 12.10 62.60
44120 2021-06-01 06:27:01 Terrasse 13.00 11.97 61.80
44119 2021-06-01 05:58:51 Terrasse 13.40 12.31 58.10
44118 2021-06-01 05:30:41 Terrasse 13.30 12.24 59.40
44117 2021-06-01 04:32:10 Terrasse 14.30 13.24 55.80
44116 2021-06-01 04:03:59 Terrasse 14.70 13.66 55.10
44115 2021-06-01 03:35:50 Terrasse 14.90 13.87 54.70
44114 2021-06-01 03:07:38 Terrasse 15.20 14.17 53.60
44113 2021-06-01 02:39:26 Terrasse 15.30 14.29 53.90
44112 2021-06-01 02:11:16 Terrasse 15.30 14.29 53.90
44111 2021-06-01 01:12:42 Terrasse 15.70 14.74 54.10
44110 2021-05-31 23:48:29 Terrasse 16.30 15.33 51.40
44109 2021-05-31 23:20:20 Terrasse 16.80 15.88 51.40
44108 2021-05-31 22:52:13 Terrasse 17.40 16.52 50.70
44107 2021-05-31 22:24:05 Terrasse 18.10 17.28 50.30
44106 2021-05-31 21:55:59 Terrasse 18.90 18.13 49.20
44105 2021-05-31 21:27:52 Terrasse 20.00 19.26 46.30
44104 2021-05-31 20:59:43 Terrasse 20.70 20.01 45.30
44103 2021-05-31 20:31:36 Terrasse 21.40 20.76 44.60
44102 2021-05-31 20:03:26 Terrasse 22.10 21.43 40.90
44101 2021-05-31 19:35:17 Terrasse 22.60 22.03 42.60
44100 2021-05-31 19:07:08 Terrasse 23.30 22.78 41.90
44099 2021-05-31 18:38:59 Terrasse 23.80 23.31 41.10
44098 2021-05-31 18:10:51 Terrasse 24.40 23.94 40.10
44097 2021-05-31 17:42:42 Terrasse 24.90 24.47 39.20
44096 2021-05-31 17:14:33 Terrasse 25.40 25.00 38.60
44095 2021-05-31 16:46:23 Terrasse 26.00 25.67 38.70
44094 2021-05-31 16:18:14 Terrasse 26.50 26.44 38.20
44093 2021-05-31 15:50:20 Terrasse 28.10 27.62 38.00
44092 2021-05-31 15:22:06 Terrasse 29.10 28.42 36.60
44091 2021-05-31 14:54:07 Terrasse 30.80 30.25 36.90
44090 2021-05-31 14:25:57 Terrasse 30.30 29.57 35.90
44089 2021-05-31 13:57:57 Terrasse 32.80 32.41 34.30
44088 2021-05-31 13:29:32 Terrasse 31.60 31.06 35.70
44087 2021-05-31 13:00:54 Terrasse 29.20 28.79 39.80
44086 2021-05-31 12:32:26 Terrasse 24.90 24.57 43.20
44085 2021-05-31 12:04:09 Terrasse 23.60 23.21 45.90
44084 2021-05-31 11:35:52 Terrasse 22.70 22.19 44.70
44083 2021-05-31 11:07:27 Terrasse 21.10 20.53 48.30
44082 2021-05-31 10:39:01 Terrasse 19.70 19.08 51.90
44081 2021-05-31 10:10:41 Terrasse 18.30 17.61 54.70
44080 2021-05-31 09:42:23 Terrasse 17.10 16.38 58.10
44079 2021-05-31 09:14:05 Terrasse 16.10 15.27 57.50
44078 2021-05-31 08:45:56 Terrasse 14.70 13.87 63.00
44077 2021-05-31 08:17:46 Terrasse 13.70 12.75 62.20
44076 2021-05-31 07:49:39 Terrasse 13.00 12.28 73.80
44075 2021-05-31 07:21:32 Terrasse 12.40 11.93 85.70
44074 2021-05-31 06:53:14 Terrasse 12.00 11.11 71.20
44073 2021-05-31 06:25:02 Terrasse 11.70 10.68 67.10
44072 2021-05-31 05:56:52 Terrasse 11.90 10.82 64.10
44071 2021-05-31 05:28:53 Terrasse 12.10 11.01 63.10
44070 2021-05-31 05:00:39 Terrasse 12.40 11.33 62.70
44069 2021-05-31 04:32:30 Terrasse 12.70 11.63 61.40
44068 2021-05-31 04:04:19 Terrasse 12.80 11.76 62.40
44067 2021-05-31 03:36:09 Terrasse 13.00 12.00 62.90
44066 2021-05-31 03:07:59 Terrasse 13.40 12.41 61.70
44065 2021-05-31 02:39:49 Terrasse 13.60 12.62 61.60
44064 2021-05-31 02:11:39 Terrasse 14.00 13.05 61.10
44063 2021-05-31 01:43:29 Terrasse 14.30 13.36 60.20
44062 2021-05-31 01:15:19 Terrasse 14.60 13.67 59.70
44061 2021-05-31 00:47:09 Terrasse 15.00 14.11 59.70
44060 2021-05-31 00:19:00 Terrasse 15.30 14.43 59.30
44059 2021-05-30 23:50:49 Terrasse 15.70 14.85 58.40
44058 2021-05-30 23:22:38 Terrasse 16.00 15.17 58.10
44057 2021-05-30 22:54:29 Terrasse 16.40 15.59 57.30
44056 2021-05-30 22:26:20 Terrasse 16.90 16.11 56.20
44055 2021-05-30 21:58:13 Terrasse 17.50 16.75 55.20
44054 2021-05-30 21:30:07 Terrasse 18.40 17.64 51.50
44053 2021-05-30 20:33:00 Terrasse 20.30 19.63 47.60
44052 2021-05-30 20:04:52 Terrasse 20.80 20.18 47.80
44051 2021-05-30 19:36:42 Terrasse 21.30 20.75 48.40
44050 2021-05-30 19:08:32 Terrasse 21.80 21.24 46.30
44049 2021-05-30 18:40:28 Terrasse 22.90 22.39 43.70
44048 2021-05-30 18:12:17 Terrasse 23.00 22.55 45.60
44047 2021-05-30 17:44:08 Terrasse 23.60 23.15 43.60
44046 2021-05-30 17:15:58 Terrasse 23.90 23.48 43.50
44045 2021-05-30 16:47:47 Terrasse 24.40 24.06 44.50
44044 2021-05-30 16:19:41 Terrasse 25.30 24.97 41.50
44043 2021-05-30 15:51:45 Terrasse 26.60 26.61 40.70
44042 2021-05-30 15:23:23 Terrasse 26.40 26.54 42.10
44041 2021-05-30 14:55:17 Terrasse 27.60 27.36 40.60
44040 2021-05-30 14:27:05 Terrasse 28.00 27.69 40.40
44039 2021-05-30 13:59:23 Terrasse 31.90 31.95 38.90
44038 2021-05-30 13:30:48 Terrasse 30.00 30.05 43.00
44037 2021-05-30 13:02:29 Terrasse 28.20 27.89 40.70
44036 2021-05-30 12:33:56 Terrasse 24.40 24.14 47.50
44035 2021-05-30 12:05:43 Terrasse 23.30 23.05 52.40
44034 2021-05-30 11:37:24 Terrasse 22.00 21.62 52.30
44033 2021-05-30 11:09:00 Terrasse 20.30 19.95 59.90
44032 2021-05-30 10:40:31 Terrasse 18.80 18.40 63.90
44031 2021-05-30 10:12:11 Terrasse 17.40 17.03 70.40
44030 2021-05-30 09:43:52 Terrasse 16.10 15.77 76.80
44029 2021-05-30 09:15:33 Terrasse 15.10 14.94 87.00
44028 2021-05-30 08:47:12 Terrasse 13.90 13.76 92.40
44027 2021-05-30 08:18:54 Terrasse 13.00 12.87 96.40
44026 2021-05-30 07:50:39 Terrasse 12.40 12.30 99.90
44025 2021-05-30 07:22:25 Terrasse 12.00 11.86 99.90
44024 2021-05-30 06:54:12 Terrasse 11.70 11.53 99.90
44023 2021-05-30 06:26:02 Terrasse 11.60 11.42 99.90
44022 2021-05-30 05:57:50 Terrasse 11.60 11.42 99.90
44021 2021-05-30 05:29:38 Terrasse 11.60 11.42 99.90
44020 2021-05-30 05:01:28 Terrasse 11.80 11.52 95.20
44019 2021-05-30 04:33:17 Terrasse 11.90 11.34 84.00
44018 2021-05-30 04:05:07 Terrasse 12.10 11.28 73.20
44017 2021-05-30 03:36:58 Terrasse 12.10 11.21 70.60
44016 2021-05-30 03:08:47 Terrasse 12.40 11.43 66.60
44015 2021-05-30 02:40:36 Terrasse 12.70 11.73 65.30
44014 2021-05-30 02:12:26 Terrasse 13.00 12.03 64.30
44013 2021-05-30 01:44:15 Terrasse 13.20 12.27 64.90
44012 2021-05-30 01:16:04 Terrasse 13.50 12.54 62.50
44011 2021-05-30 00:47:54 Terrasse 13.70 12.77 62.90
44010 2021-05-30 00:19:45 Terrasse 14.10 13.18 62.00
44009 2021-05-29 22:50:30 Terrasse 15.30 14.39 57.60
44008 2021-05-29 20:51:15 Terrasse 17.60 16.87 55.60
44007 2021-05-29 20:23:09 Terrasse 18.50 17.83 54.60
44006 2021-05-29 19:55:00 Terrasse 19.30 18.68 53.30
44005 2021-05-29 19:26:53 Terrasse 20.20 19.60 50.80
44004 2021-05-29 18:26:09 Terrasse 20.60 20.01 49.70
44003 2021-05-29 17:57:59 Terrasse 21.30 20.75 48.50
44002 2021-05-29 17:29:51 Terrasse 21.40 20.86 48.30
44001 2021-05-29 17:01:38 Terrasse 21.30 20.78 49.60
44000 2021-05-29 16:33:29 Terrasse 22.00 21.50 47.50
43999 2021-05-29 16:05:27 Terrasse 22.70 22.27 47.80
43998 2021-05-29 15:37:36 Terrasse 25.50 25.27 44.70
43997 2021-05-29 15:09:21 Terrasse 25.50 25.30 45.70
43996 2021-05-29 14:41:22 Terrasse 27.80 27.60 41.60
43995 2021-05-29 14:13:34 Terrasse 28.80 28.65 42.70
43994 2021-05-29 13:44:43 Terrasse 26.60 26.82 45.20
43993 2021-05-29 13:16:59 Terrasse 29.00 28.67 40.70
43992 2021-05-29 12:48:16 Terrasse 25.70 25.64 50.20
43991 2021-05-29 12:19:58 Terrasse 22.70 22.45 54.50
43990 2021-05-29 11:51:46 Terrasse 21.50 21.26 59.70
43989 2021-05-29 10:53:24 Terrasse 18.20 17.79 65.60
43988 2021-05-29 10:25:02 Terrasse 17.10 16.95 80.00
43987 2021-05-29 09:59:12 Terrasse 16.40 16.48 91.20
43986 2021-05-29 09:19:45 Terrasse 14.40 14.50 99.90
43985 2021-05-29 08:51:27 Terrasse 13.00 12.96 99.90
43984 2021-05-29 08:23:11 Terrasse 11.90 11.75 99.90
43983 2021-05-29 07:54:55 Terrasse 11.10 10.87 99.90
43982 2021-05-29 07:26:40 Terrasse 10.50 10.21 99.90
43981 2021-05-29 06:58:28 Terrasse 9.80 9.44 99.90
43980 2021-05-29 06:30:18 Terrasse 9.60 9.22 99.90
43979 2021-05-29 06:02:08 Terrasse 9.60 9.22 99.90
43978 2021-05-29 05:33:59 Terrasse 10.00 9.66 99.90
43977 2021-05-29 05:05:48 Terrasse 10.40 10.10 99.90
43976 2021-05-29 04:37:40 Terrasse 10.80 10.54 99.90
43975 2021-05-29 04:09:30 Terrasse 11.10 10.87 99.90
43974 2021-05-29 03:41:20 Terrasse 11.30 11.09 99.90
43973 2021-05-29 03:13:09 Terrasse 11.50 11.31 99.90
43972 2021-05-29 02:45:01 Terrasse 11.70 11.46 97.10
43971 2021-05-29 02:16:51 Terrasse 11.90 11.56 92.30
43970 2021-05-29 01:48:42 Terrasse 12.00 11.69 93.40
43969 2021-05-29 01:20:49 Terrasse 12.30 12.00 92.50
43968 2021-05-29 00:52:46 Terrasse 12.50 12.41 99.90
43967 2021-05-29 00:24:44 Terrasse 12.60 12.52 99.90
43966 2021-05-28 23:56:29 Terrasse 12.60 12.38 94.50
43965 2021-05-28 23:28:23 Terrasse 12.90 12.62 91.10
43964 2021-05-28 23:02:48 Terrasse 13.60 13.33 88.50
43963 2021-05-28 21:06:54 Terrasse 14.60 14.24 81.20
43962 2021-05-28 20:38:49 Terrasse 15.40 14.94 74.30
43961 2021-05-28 20:10:44 Terrasse 16.30 15.71 66.10
43960 2021-05-28 19:42:37 Terrasse 16.80 16.26 66.20
43959 2021-05-28 18:43:18 Terrasse 17.40 16.76 60.00
43958 2021-05-28 18:14:54 Terrasse 17.40 16.74 59.00
43957 2021-05-28 17:45:58 Terrasse 17.50 16.87 59.90
43956 2021-05-28 17:17:48 Terrasse 17.60 17.02 61.60
43955 2021-05-28 16:49:41 Terrasse 17.90 17.32 60.40
43954 2021-05-28 16:21:37 Terrasse 18.70 18.17 59.30
43953 2021-05-28 15:53:23 Terrasse 18.40 17.88 60.80
43952 2021-05-28 15:25:22 Terrasse 20.10 19.72 59.50
43951 2021-05-28 14:57:22 Terrasse 22.00 21.86 61.40
43950 2021-05-28 14:28:50 Terrasse 18.40 18.02 66.20
43949 2021-05-28 14:00:50 Terrasse 19.30 19.01 66.10
43948 2021-05-28 13:32:24 Terrasse 17.90 17.88 81.80
43947 2021-05-28 13:04:06 Terrasse 15.20 15.25 94.70
43946 2021-05-28 12:35:57 Terrasse 15.40 15.53 97.00
43945 2021-05-28 12:08:04 Terrasse 18.00 18.03 83.20
43944 2021-05-28 11:39:40 Terrasse 15.30 15.49 99.90
43943 2021-05-28 11:11:26 Terrasse 14.70 14.83 99.90
43942 2021-05-28 10:43:05 Terrasse 14.40 14.50 99.90
43941 2021-05-28 10:14:54 Terrasse 13.30 13.29 99.90
43940 2021-05-28 09:46:47 Terrasse 13.60 13.62 99.90
43939 2021-05-28 09:18:34 Terrasse 12.80 12.74 99.90
43938 2021-05-28 08:50:19 Terrasse 12.00 11.86 99.90
43937 2021-05-28 08:22:04 Terrasse 11.40 11.20 99.90
43936 2021-05-28 07:53:50 Terrasse 10.70 10.43 99.90
43935 2021-05-28 07:25:38 Terrasse 10.30 9.99 99.90
43934 2021-05-28 06:57:28 Terrasse 9.90 9.55 99.90
43933 2021-05-28 06:29:18 Terrasse 9.70 9.33 99.90
43932 2021-05-28 06:01:08 Terrasse 9.60 9.22 99.90
43931 2021-05-28 05:32:59 Terrasse 9.50 9.11 99.90
43930 2021-05-28 05:04:51 Terrasse 9.60 9.22 99.90
43929 2021-05-28 04:36:44 Terrasse 9.70 9.33 99.90
43928 2021-05-28 04:08:35 Terrasse 9.70 9.33 99.90
43927 2021-05-28 03:40:27 Terrasse 9.70 9.33 99.90
43926 2021-05-28 03:12:18 Terrasse 9.70 9.33 99.90
43925 2021-05-28 02:16:10 Terrasse 9.80 9.44 99.90
43924 2021-05-28 01:48:02 Terrasse 9.80 9.44 99.90
43923 2021-05-28 01:19:53 Terrasse 9.90 9.55 99.90
43922 2021-05-28 00:51:44 Terrasse 9.90 9.55 99.90
43921 2021-05-28 00:23:37 Terrasse 10.10 9.77 99.90
43920 2021-05-27 23:55:29 Terrasse 10.20 9.88 99.90
43919 2021-05-27 23:27:19 Terrasse 10.30 9.99 99.90
43918 2021-05-27 22:59:11 Terrasse 10.40 10.10 99.90
43917 2021-05-27 22:31:03 Terrasse 10.50 10.21 99.90
43916 2021-05-27 22:02:54 Terrasse 10.80 10.54 99.90
43915 2021-05-27 21:34:47 Terrasse 11.30 11.09 99.90
43914 2021-05-27 21:06:38 Terrasse 11.50 11.31 99.90
43913 2021-05-27 20:38:29 Terrasse 11.70 11.53 99.90
43912 2021-05-27 20:10:22 Terrasse 11.90 11.75 99.90
43911 2021-05-27 19:42:15 Terrasse 12.30 12.19 99.90
43910 2021-05-27 19:14:07 Terrasse 12.50 12.41 99.90
43909 2021-05-27 18:45:59 Terrasse 12.80 12.74 99.90
43908 2021-05-27 18:17:50 Terrasse 13.10 13.07 99.90
43907 2021-05-27 17:49:41 Terrasse 13.00 12.96 99.90
43906 2021-05-27 17:21:33 Terrasse 13.30 13.29 99.90
43905 2021-05-27 16:53:23 Terrasse 12.90 12.85 99.90
43904 2021-05-27 16:25:16 Terrasse 13.00 12.96 99.90
43903 2021-05-27 15:57:07 Terrasse 12.80 12.74 99.90
43902 2021-05-27 15:28:52 Terrasse 12.50 12.41 99.90
43901 2021-05-27 15:00:36 Terrasse 11.50 11.31 99.90
43900 2021-05-27 14:32:27 Terrasse 11.40 11.20 99.90
43899 2021-05-27 14:04:20 Terrasse 11.80 11.64 99.90
43898 2021-05-27 13:36:11 Terrasse 11.50 11.31 99.90
43897 2021-05-27 13:08:05 Terrasse 12.20 12.08 99.90
43896 2021-05-27 12:40:00 Terrasse 13.00 12.96 99.90
43895 2021-05-27 12:11:48 Terrasse 12.10 11.97 99.90
43894 2021-05-27 11:43:40 Terrasse 12.10 11.97 99.90
43893 2021-05-27 11:15:29 Terrasse 11.80 11.64 99.90
43892 2021-05-27 10:47:12 Terrasse 10.60 10.32 99.90
43891 2021-05-27 10:19:03 Terrasse 10.50 10.21 99.90
43890 2021-05-27 09:50:47 Terrasse 9.60 9.22 99.90
43889 2021-05-27 09:22:35 Terrasse 9.10 8.67 99.90
43888 2021-05-27 08:54:28 Terrasse 9.20 8.78 99.90
43887 2021-05-27 08:26:19 Terrasse 9.20 8.78 99.90
43886 2021-05-27 07:58:07 Terrasse 8.90 8.45 99.90
43885 2021-05-27 07:29:57 Terrasse 8.70 8.23 99.90
43884 2021-05-27 07:01:46 Terrasse 8.60 8.12 99.90
43883 2021-05-27 06:33:35 Terrasse 8.40 7.90 99.90
43882 2021-05-27 06:05:26 Terrasse 8.40 7.90 99.90
43881 2021-05-27 05:37:15 Terrasse 8.30 7.79 99.90
43880 2021-05-27 05:09:05 Terrasse 8.30 7.79 99.90
43879 2021-05-27 04:40:57 Terrasse 8.30 7.79 99.90
43878 2021-05-27 04:12:48 Terrasse 8.30 7.79 99.90
43877 2021-05-27 03:14:13 Terrasse 8.00 7.46 99.90
43876 2021-05-27 02:46:03 Terrasse 7.80 7.24 99.90
43875 2021-05-27 02:18:14 Terrasse 7.50 6.91 99.90
43874 2021-05-27 01:49:56 Terrasse 7.40 6.80 99.90
43873 2021-05-27 01:21:49 Terrasse 7.60 7.02 99.90
43872 2021-05-27 00:53:41 Terrasse 7.80 7.24 99.90
43871 2021-05-27 00:25:34 Terrasse 8.20 7.68 99.90
43870 2021-05-26 23:57:28 Terrasse 8.40 7.90 99.90
43869 2021-05-26 23:29:21 Terrasse 8.50 8.01 99.90
43868 2021-05-26 23:01:13 Terrasse 8.60 8.12 99.90
43867 2021-05-26 22:33:06 Terrasse 9.00 8.56 99.90
43866 2021-05-26 22:05:01 Terrasse 9.30 8.89 99.90
43865 2021-05-26 21:36:56 Terrasse 9.80 9.44 99.90
43864 2021-05-26 21:08:49 Terrasse 10.20 9.88 99.90
43863 2021-05-26 20:40:43 Terrasse 10.50 10.21 99.90
43862 2021-05-26 20:12:39 Terrasse 11.00 10.76 99.90
43861 2021-05-26 19:44:33 Terrasse 11.50 11.31 99.90
43860 2021-05-26 19:16:27 Terrasse 11.90 11.75 99.90
43859 2021-05-26 18:48:28 Terrasse 12.70 12.63 99.90
43858 2021-05-26 18:20:19 Terrasse 13.00 12.96 99.90
43857 2021-05-26 17:52:09 Terrasse 13.00 12.96 99.90
43856 2021-05-26 17:23:58 Terrasse 12.90 12.85 99.90
43855 2021-05-26 16:55:49 Terrasse 12.70 12.63 99.90
43854 2021-05-26 16:27:35 Terrasse 11.70 11.53 99.90
43853 2021-05-26 15:59:19 Terrasse 11.10 10.87 99.90
43852 2021-05-26 15:31:13 Terrasse 11.30 11.09 99.90
43851 2021-05-26 15:03:03 Terrasse 11.30 11.09 99.90
43850 2021-05-26 14:34:53 Terrasse 11.30 11.09 99.90
43849 2021-05-26 14:06:42 Terrasse 11.20 10.98 99.90
43848 2021-05-26 13:38:35 Terrasse 11.30 11.09 99.90
43847 2021-05-26 13:10:26 Terrasse 11.10 10.87 99.90
43846 2021-05-26 12:42:18 Terrasse 11.40 11.20 99.90
43845 2021-05-26 12:14:12 Terrasse 12.00 11.86 99.90
43844 2021-05-26 11:46:05 Terrasse 12.20 12.08 99.90
43843 2021-05-26 11:17:49 Terrasse 11.20 10.98 99.90
43842 2021-05-26 10:49:38 Terrasse 10.40 10.10 99.90
43841 2021-05-26 10:21:25 Terrasse 9.80 9.44 99.90
43840 2021-05-26 09:53:15 Terrasse 9.20 8.78 99.90
43839 2021-05-26 09:25:07 Terrasse 9.00 8.56 99.90
43838 2021-05-26 08:56:57 Terrasse 8.90 8.45 99.90
43837 2021-05-26 08:28:48 Terrasse 8.90 8.45 99.90
43836 2021-05-26 08:00:39 Terrasse 8.90 8.45 99.90
43835 2021-05-26 07:32:31 Terrasse 8.80 8.34 99.90
43834 2021-05-26 07:04:23 Terrasse 8.70 8.23 99.90
43833 2021-05-26 06:36:14 Terrasse 8.70 8.23 99.90
43832 2021-05-26 06:08:06 Terrasse 8.60 8.12 99.90
43831 2021-05-26 05:39:58 Terrasse 8.60 8.12 99.90
43830 2021-05-26 05:11:49 Terrasse 8.60 8.12 99.90
43829 2021-05-26 04:43:42 Terrasse 8.60 8.12 99.90
43828 2021-05-26 04:15:33 Terrasse 8.70 8.23 99.90
43827 2021-05-26 03:47:25 Terrasse 8.70 8.23 99.90
43826 2021-05-26 03:19:18 Terrasse 8.70 8.23 99.90
43825 2021-05-26 02:51:10 Terrasse 8.70 8.23 99.90
43824 2021-05-26 02:23:02 Terrasse 8.70 8.23 99.90
43823 2021-05-26 01:54:54 Terrasse 8.80 8.34 99.90
43822 2021-05-26 01:26:48 Terrasse 8.80 8.34 99.90
43821 2021-05-26 00:58:40 Terrasse 8.90 8.45 99.90
43820 2021-05-26 00:30:34 Terrasse 9.10 8.67 99.90
43819 2021-05-26 00:02:28 Terrasse 9.30 8.89 99.90
43818 2021-05-25 23:34:20 Terrasse 9.40 9.00 99.90
43817 2021-05-25 23:06:13 Terrasse 9.50 9.11 99.90
43816 2021-05-25 22:38:07 Terrasse 9.50 9.11 99.90
43815 2021-05-25 22:09:57 Terrasse 9.70 9.33 99.90
43814 2021-05-25 21:41:50 Terrasse 9.80 9.44 99.90
43813 2021-05-25 21:13:43 Terrasse 9.90 9.55 99.90
43812 2021-05-25 20:45:36 Terrasse 10.00 9.66 99.90
43811 2021-05-25 20:17:29 Terrasse 10.20 9.88 99.90
43810 2021-05-25 19:49:20 Terrasse 10.30 9.99 99.90
43809 2021-05-25 19:21:12 Terrasse 10.40 10.10 99.90
43808 2021-05-25 18:53:04 Terrasse 10.60 10.32 99.90
43807 2021-05-25 18:24:56 Terrasse 10.70 10.43 99.90
43806 2021-05-25 17:56:51 Terrasse 11.20 10.98 99.90
43805 2021-05-25 17:28:55 Terrasse 12.80 12.49 90.20
43804 2021-05-25 17:00:53 Terrasse 14.00 13.24 68.30
43803 2021-05-25 16:32:48 Terrasse 14.70 14.05 69.80
43802 2021-05-25 16:04:40 Terrasse 14.90 14.29 70.50
43801 2021-05-25 15:36:37 Terrasse 15.00 14.52 75.30
43800 2021-05-25 15:08:19 Terrasse 14.90 14.70 86.50
43799 2021-05-25 14:40:00 Terrasse 12.50 12.41 99.90
43798 2021-05-25 14:12:06 Terrasse 13.80 13.84 99.90
43797 2021-05-25 13:43:28 Terrasse 10.70 10.43 99.90
43796 2021-05-25 13:15:24 Terrasse 10.90 10.65 99.90
43795 2021-05-25 12:47:13 Terrasse 10.00 9.66 99.90
43794 2021-05-25 12:19:02 Terrasse 9.80 9.44 99.90
43793 2021-05-25 11:50:50 Terrasse 9.40 9.00 99.90
43792 2021-05-25 11:22:43 Terrasse 9.40 9.00 99.90
43791 2021-05-25 10:54:30 Terrasse 9.20 8.78 99.90
43790 2021-05-25 10:26:21 Terrasse 9.10 8.67 99.90
43789 2021-05-25 09:58:12 Terrasse 9.10 8.67 99.90
43788 2021-05-25 09:30:04 Terrasse 9.20 8.78 99.90
43787 2021-05-25 09:01:55 Terrasse 9.30 8.89 99.90
43786 2021-05-25 08:33:49 Terrasse 9.60 9.22 99.90
43785 2021-05-25 08:05:40 Terrasse 9.50 9.11 99.90
43784 2021-05-25 07:37:31 Terrasse 9.10 8.67 99.90
43783 2021-05-25 06:38:56 Terrasse 9.00 8.56 99.90
43782 2021-05-25 05:40:32 Terrasse 9.20 8.78 99.90
43781 2021-05-25 05:12:25 Terrasse 9.30 8.89 99.90
43780 2021-05-25 04:14:00 Terrasse 9.40 9.00 99.90
43779 2021-05-25 03:16:47 Terrasse 9.70 9.33 99.90
43778 2021-05-25 02:46:36 Terrasse 9.80 9.44 99.90
43777 2021-05-25 02:18:29 Terrasse 10.10 9.77 99.90
43776 2021-05-25 01:50:22 Terrasse 10.30 9.99 99.90
43775 2021-05-25 01:22:14 Terrasse 10.50 10.21 99.90
43774 2021-05-25 00:54:07 Terrasse 10.60 10.32 99.90
43773 2021-05-25 00:25:59 Terrasse 10.70 10.43 99.90
43772 2021-05-24 23:57:53 Terrasse 11.00 10.76 99.90
43771 2021-05-24 23:29:46 Terrasse 11.40 11.20 99.90
43770 2021-05-24 23:01:40 Terrasse 11.60 11.42 99.90
43769 2021-05-24 22:33:35 Terrasse 12.20 12.08 99.90
43768 2021-05-24 22:08:07 Terrasse 12.90 12.85 99.90
43767 2021-05-24 21:12:22 Terrasse 13.30 13.29 99.90
43766 2021-05-24 20:06:18 Terrasse 13.50 13.51 99.90
43765 2021-05-24 18:59:49 Terrasse 14.10 14.17 99.90
43764 2021-05-24 18:17:46 Terrasse 14.40 14.50 99.90
43763 2021-05-24 17:49:44 Terrasse 15.00 15.11 97.80
43762 2021-05-24 17:21:42 Terrasse 15.80 15.28 70.70
43761 2021-05-24 16:53:42 Terrasse 17.10 16.50 62.60
43760 2021-05-24 16:25:44 Terrasse 18.50 17.90 57.40
43759 2021-05-24 15:57:47 Terrasse 19.80 19.06 47.00
43758 2021-05-24 15:29:52 Terrasse 21.00 20.33 44.90
43757 2021-05-24 15:02:02 Terrasse 23.60 23.16 43.90
43756 2021-05-24 14:33:29 Terrasse 21.30 20.74 48.10
43755 2021-05-24 14:05:43 Terrasse 23.00 22.50 43.90
43754 2021-05-24 13:37:42 Terrasse 25.40 25.11 42.80
43753 2021-05-24 13:09:17 Terrasse 24.90 24.64 45.80
43752 2021-05-24 12:40:42 Terrasse 21.70 21.32 53.60
43751 2021-05-24 12:12:27 Terrasse 19.00 18.49 58.80
43750 2021-05-24 11:44:16 Terrasse 17.80 17.28 63.10
43749 2021-05-24 11:16:21 Terrasse 17.20 16.79 69.40
43748 2021-05-24 10:47:56 Terrasse 15.40 14.98 76.00
43747 2021-05-24 10:19:45 Terrasse 14.30 14.05 86.90
43746 2021-05-24 09:51:35 Terrasse 13.30 13.17 95.00
43745 2021-05-24 09:23:27 Terrasse 12.80 12.71 98.70
43744 2021-05-24 08:55:20 Terrasse 12.20 11.99 96.40
43743 2021-05-24 08:27:10 Terrasse 11.50 11.31 99.90
43742 2021-05-24 07:59:01 Terrasse 10.70 10.43 99.90
43741 2021-05-24 07:30:55 Terrasse 10.00 9.66 99.90
43740 2021-05-24 07:02:46 Terrasse 9.30 8.89 99.90
43739 2021-05-24 06:34:41 Terrasse 8.90 8.45 99.90
43738 2021-05-24 06:06:39 Terrasse 8.90 8.45 99.90
43737 2021-05-24 05:38:35 Terrasse 8.90 8.45 99.90
43736 2021-05-24 05:10:34 Terrasse 9.10 8.67 99.90
43735 2021-05-24 04:42:32 Terrasse 9.40 9.00 99.90
43734 2021-05-24 04:14:31 Terrasse 9.50 9.11 99.90
43733 2021-05-24 03:46:28 Terrasse 9.60 9.22 99.90
43732 2021-05-24 03:18:26 Terrasse 9.70 9.33 99.90
43731 2021-05-24 02:50:23 Terrasse 10.00 9.66 99.90
43730 2021-05-24 02:22:21 Terrasse 10.20 9.88 99.90
43729 2021-05-24 01:54:18 Terrasse 10.40 10.10 99.90
43728 2021-05-24 01:26:15 Terrasse 10.40 10.10 99.90
43727 2021-05-24 00:58:13 Terrasse 10.70 10.43 99.90
43726 2021-05-24 00:30:12 Terrasse 11.00 10.76 99.90
43725 2021-05-24 00:02:13 Terrasse 11.20 10.98 99.90
43724 2021-05-23 23:34:09 Terrasse 11.60 11.41 99.30
43723 2021-05-23 23:06:20 Terrasse 11.90 11.62 94.70
43722 2021-05-23 22:38:15 Terrasse 12.10 11.64 87.10
43721 2021-05-23 22:10:13 Terrasse 12.70 11.88 71.20
43720 2021-05-23 21:42:14 Terrasse 13.50 12.60 65.00
43719 2021-05-23 21:14:14 Terrasse 14.20 13.24 59.90
43718 2021-05-23 20:46:13 Terrasse 14.80 13.86 58.30
43717 2021-05-23 20:18:11 Terrasse 15.30 14.37 56.80
43716 2021-05-23 19:50:10 Terrasse 15.70 14.77 55.40
43715 2021-05-23 19:22:09 Terrasse 16.10 15.18 54.00
43714 2021-05-23 18:54:07 Terrasse 16.50 15.54 51.30
43713 2021-05-23 18:26:05 Terrasse 16.70 15.75 50.60
43712 2021-05-23 17:58:07 Terrasse 17.40 16.52 50.70
43711 2021-05-23 17:30:02 Terrasse 17.50 16.60 49.70
43710 2021-05-23 17:02:00 Terrasse 17.70 16.82 49.70
43709 2021-05-23 16:34:00 Terrasse 18.20 17.42 51.40
43708 2021-05-23 16:06:03 Terrasse 18.80 18.07 51.30
43707 2021-05-23 15:38:16 Terrasse 20.20 19.57 49.50
43706 2021-05-23 15:10:11 Terrasse 19.60 18.92 49.80
43705 2021-05-23 14:42:03 Terrasse 19.60 19.09 56.30
43704 2021-05-23 14:14:22 Terrasse 21.30 20.88 53.50
43703 2021-05-23 13:46:30 Terrasse 21.60 21.23 54.30
43702 2021-05-23 13:18:02 Terrasse 19.30 19.01 65.90
43701 2021-05-23 12:49:49 Terrasse 14.70 14.02 68.60
43700 2021-05-23 12:21:58 Terrasse 16.00 15.25 61.00
43699 2021-05-23 11:55:28 Terrasse 15.00 14.24 64.60
43698 2021-05-23 11:24:53 Terrasse 15.30 14.65 67.60
43697 2021-05-23 10:56:31 Terrasse 13.70 12.97 70.70
43696 2021-05-23 10:28:27 Terrasse 13.40 12.92 81.40
43695 2021-05-23 10:00:23 Terrasse 13.10 12.89 92.80
43694 2021-05-23 09:32:17 Terrasse 12.10 11.97 99.90
43693 2021-05-23 09:04:08 Terrasse 11.20 10.98 99.90
43692 2021-05-23 08:36:00 Terrasse 10.50 10.21 99.90
43691 2021-05-23 08:07:52 Terrasse 9.70 9.33 99.90
43690 2021-05-23 07:39:49 Terrasse 9.40 9.00 99.90
43689 2021-05-23 07:11:49 Terrasse 9.20 8.78 99.90
43688 2021-05-23 06:43:47 Terrasse 9.20 8.78 99.90
43687 2021-05-23 06:15:45 Terrasse 9.00 8.56 99.90
43686 2021-05-23 05:47:42 Terrasse 9.00 8.56 99.90
43685 2021-05-23 05:19:38 Terrasse 9.10 8.67 99.90
43684 2021-05-23 04:51:36 Terrasse 9.20 8.78 99.90
43683 2021-05-23 04:23:35 Terrasse 9.20 8.78 99.90
43682 2021-05-23 03:55:34 Terrasse 9.00 8.56 99.90
43681 2021-05-23 03:27:31 Terrasse 9.10 8.67 99.90
43680 2021-05-23 02:59:30 Terrasse 9.30 8.89 99.90
43679 2021-05-23 02:31:30 Terrasse 9.50 9.11 99.90
43678 2021-05-23 02:03:28 Terrasse 9.60 9.22 99.90
43677 2021-05-23 01:35:27 Terrasse 9.90 9.55 99.90
43676 2021-05-23 01:07:27 Terrasse 10.30 9.99 99.90
43675 2021-05-23 00:39:26 Terrasse 10.50 10.21 99.90
43674 2021-05-23 00:11:23 Terrasse 10.50 10.21 99.90
43673 2021-05-22 23:43:23 Terrasse 10.70 10.43 99.90
43672 2021-05-22 23:15:22 Terrasse 11.10 10.87 99.90
43671 2021-05-22 22:47:21 Terrasse 11.30 11.09 99.90
43670 2021-05-22 22:19:19 Terrasse 11.50 11.31 99.90
43669 2021-05-22 21:51:19 Terrasse 11.80 11.38 89.70
43668 2021-05-22 21:23:18 Terrasse 12.10 11.35 75.90
43667 2021-05-22 20:55:18 Terrasse 12.60 11.78 71.30
43666 2021-05-22 20:27:20 Terrasse 13.00 12.19 70.40
43665 2021-05-22 19:59:32 Terrasse 13.40 12.96 82.90
43664 2021-05-22 19:31:41 Terrasse 13.70 13.32 83.90
43663 2021-05-22 19:03:36 Terrasse 14.00 13.48 77.40
43662 2021-05-22 18:35:42 Terrasse 14.50 13.75 66.70
43661 2021-05-22 18:07:42 Terrasse 15.20 14.64 71.40
43660 2021-05-22 17:39:55 Terrasse 14.90 14.97 96.70
43659 2021-05-22 17:11:53 Terrasse 15.20 14.52 66.70
43658 2021-05-22 16:43:34 Terrasse 15.50 14.90 68.90
43657 2021-05-22 16:15:27 Terrasse 15.20 15.29 96.30
43656 2021-05-22 15:47:40 Terrasse 15.80 14.96 58.30
43655 2021-05-22 15:19:37 Terrasse 16.30 15.58 61.10
43654 2021-05-22 14:51:41 Terrasse 16.70 15.96 58.60
43653 2021-05-22 14:23:31 Terrasse 14.50 13.63 62.30
43652 2021-05-22 13:55:36 Terrasse 15.00 14.21 63.30
43651 2021-05-22 13:28:10 Terrasse 20.90 20.79 67.00
43650 2021-05-22 13:27:25 Terrasse 20.50 20.15 59.00
43649 2021-05-20 20:15:27 Terrasse 15.50 14.69 60.80
43648 2021-05-20 19:44:57 Terrasse 16.00 15.28 62.30
43647 2021-05-20 19:16:32 Terrasse 16.40 15.66 59.90
43646 2021-05-20 18:48:08 Terrasse 16.90 16.17 58.20
43645 2021-05-20 18:19:43 Terrasse 17.60 16.91 57.30
43644 2021-05-20 17:53:21 Terrasse 18.40 17.81 58.10
43643 2021-05-20 16:59:46 Terrasse 19.30 18.84 59.70
43642 2021-05-20 14:34:37 Terrasse 16.90 16.47 69.80
43641 2021-05-20 14:06:31 Terrasse 19.10 18.52 55.80
43640 2021-05-20 13:38:07 Terrasse 20.60 20.21 57.10
43639 2021-05-20 13:09:55 Terrasse 23.50 23.34 55.00
43638 2021-05-20 12:40:58 Terrasse 18.00 17.82 75.10
43637 2021-05-20 12:12:33 Terrasse 15.30 15.12 85.50
43636 2021-05-20 11:44:25 Terrasse 16.80 16.61 79.30
43635 2021-05-20 11:15:39 Terrasse 14.20 14.28 99.90
43634 2021-05-20 10:47:14 Terrasse 13.90 13.95 99.90
43633 2021-05-20 10:18:50 Terrasse 13.60 13.62 99.90
43632 2021-05-20 09:50:28 Terrasse 12.80 12.74 99.90
43631 2021-05-20 09:22:02 Terrasse 11.50 11.31 99.90
43630 2021-05-20 08:53:39 Terrasse 11.00 10.76 99.90
43629 2021-05-20 08:25:17 Terrasse 10.80 10.54 99.90
43628 2021-05-20 07:56:55 Terrasse 10.60 10.32 99.90
43627 2021-05-20 07:28:34 Terrasse 10.30 9.99 99.90
43626 2021-05-20 07:00:13 Terrasse 10.30 9.99 99.90
43625 2021-05-20 06:31:53 Terrasse 10.20 9.88 99.90
43624 2021-05-20 06:03:33 Terrasse 10.20 9.88 99.90
43623 2021-05-20 05:35:12 Terrasse 10.30 9.99 99.90
43622 2021-05-20 05:06:52 Terrasse 10.30 9.99 99.90
43621 2021-05-20 04:38:30 Terrasse 10.40 10.10 99.90
43620 2021-05-20 04:10:10 Terrasse 10.40 10.10 99.90
43619 2021-05-20 03:41:49 Terrasse 10.40 10.10 99.90
43618 2021-05-20 03:13:28 Terrasse 10.50 10.21 99.90
43617 2021-05-20 02:45:08 Terrasse 10.70 10.43 99.90
43616 2021-05-20 02:16:49 Terrasse 10.80 10.54 99.90
43615 2021-05-20 01:48:29 Terrasse 11.00 10.76 99.90
43614 2021-05-20 01:20:09 Terrasse 11.10 10.87 99.90
43613 2021-05-20 00:51:51 Terrasse 11.30 11.09 99.90
43612 2021-05-20 00:23:33 Terrasse 11.60 11.42 99.90
43611 2021-05-19 23:55:13 Terrasse 11.70 11.53 99.90
43610 2021-05-19 23:26:56 Terrasse 12.00 11.86 99.90
43609 2021-05-19 22:58:38 Terrasse 12.50 12.41 99.90
43608 2021-05-19 22:30:19 Terrasse 12.70 12.63 99.90
43607 2021-05-19 22:02:01 Terrasse 13.10 13.07 99.90
43606 2021-05-19 21:33:43 Terrasse 13.40 13.29 95.60
43605 2021-05-19 21:05:27 Terrasse 13.90 13.14 68.70
43604 2021-05-19 20:37:12 Terrasse 14.40 13.57 64.10
43603 2021-05-19 20:08:56 Terrasse 15.00 14.14 60.60
43602 2021-05-19 19:40:37 Terrasse 15.40 14.56 60.00
43601 2021-05-19 19:12:21 Terrasse 16.10 15.27 57.80
43600 2021-05-19 18:44:03 Terrasse 16.60 15.75 54.80
43599 2021-05-19 18:15:45 Terrasse 17.40 16.60 53.80
43598 2021-05-19 17:47:28 Terrasse 17.80 17.05 54.20
43597 2021-05-19 17:19:09 Terrasse 18.50 17.73 50.60
43596 2021-05-19 16:50:45 Terrasse 18.10 17.30 51.30
43595 2021-05-19 16:22:34 Terrasse 19.60 18.98 52.20
43594 2021-05-19 15:54:26 Terrasse 21.20 20.71 51.20
43593 2021-05-19 15:26:05 Terrasse 21.20 20.59 46.70
43592 2021-05-19 14:57:52 Terrasse 21.80 21.25 46.70
43591 2021-05-19 14:29:23 Terrasse 21.30 20.69 46.20
43590 2021-05-19 14:01:16 Terrasse 23.00 22.56 46.00
43589 2021-05-19 13:33:11 Terrasse 26.40 26.70 45.90
43588 2021-05-19 13:04:24 Terrasse 23.30 22.94 47.90
43587 2021-05-19 12:35:32 Terrasse 19.30 18.72 55.10
43586 2021-05-19 12:06:59 Terrasse 17.50 17.18 71.80
43585 2021-05-19 11:38:19 Terrasse 14.40 14.50 99.90
43584 2021-05-19 11:10:07 Terrasse 15.70 15.64 88.70
43583 2021-05-19 10:41:32 Terrasse 14.90 15.05 99.90
43582 2021-05-19 10:13:06 Terrasse 13.60 13.62 99.90
43581 2021-05-19 09:44:36 Terrasse 12.20 12.08 99.90
43580 2021-05-19 09:16:12 Terrasse 11.60 11.42 99.90
43579 2021-05-19 08:47:50 Terrasse 10.90 10.65 99.90
43578 2021-05-19 08:19:28 Terrasse 10.30 9.99 99.90
43577 2021-05-19 07:51:04 Terrasse 9.90 9.55 99.90
43576 2021-05-19 07:22:42 Terrasse 9.60 9.22 99.90
43575 2021-05-19 06:54:22 Terrasse 9.50 9.11 99.90
43574 2021-05-19 06:26:01 Terrasse 9.50 9.11 99.90
43573 2021-05-19 05:57:41 Terrasse 9.30 8.89 99.90
43572 2021-05-19 05:29:21 Terrasse 9.20 8.78 99.90
43571 2021-05-19 05:01:00 Terrasse 9.00 8.56 99.90
43570 2021-05-19 04:32:40 Terrasse 9.20 8.78 99.90
43569 2021-05-19 04:04:20 Terrasse 9.20 8.78 99.90
43568 2021-05-19 03:36:01 Terrasse 9.40 9.00 99.90
43567 2021-05-19 03:07:41 Terrasse 9.50 9.11 99.90
43566 2021-05-19 02:39:23 Terrasse 9.70 9.33 99.90
43565 2021-05-19 02:11:04 Terrasse 9.90 9.55 99.90
43564 2021-05-19 01:42:45 Terrasse 10.20 9.88 99.90
43563 2021-05-19 01:14:27 Terrasse 10.40 10.10 99.90
43562 2021-05-19 00:46:09 Terrasse 10.50 10.21 99.90
43561 2021-05-19 00:17:50 Terrasse 10.80 10.54 99.90
43560 2021-05-18 23:49:31 Terrasse 11.00 10.76 99.90
43559 2021-05-18 23:21:13 Terrasse 11.20 10.98 99.90
43558 2021-05-18 22:52:53 Terrasse 11.30 11.09 99.90
43557 2021-05-18 22:24:34 Terrasse 11.30 11.09 99.90
43556 2021-05-18 21:56:14 Terrasse 11.30 11.09 99.90
43555 2021-05-18 21:27:55 Terrasse 11.60 11.42 99.90
43554 2021-05-18 20:59:38 Terrasse 12.30 12.19 99.90
43553 2021-05-18 20:31:22 Terrasse 12.60 12.52 99.90
43552 2021-05-18 20:03:07 Terrasse 13.50 13.51 99.90
43551 2021-05-18 19:34:52 Terrasse 14.50 14.45 93.80
43550 2021-05-18 19:06:34 Terrasse 15.00 15.02 94.40
43549 2021-05-18 18:38:14 Terrasse 15.10 15.27 99.90
43548 2021-05-18 18:09:56 Terrasse 15.20 15.35 98.70
43547 2021-05-18 17:41:34 Terrasse 14.90 15.05 99.90
43546 2021-05-18 17:13:10 Terrasse 14.60 14.72 99.90
43545 2021-05-18 16:44:45 Terrasse 13.20 13.18 99.90
43544 2021-05-18 16:16:34 Terrasse 14.30 14.39 99.90
43543 2021-05-18 15:48:18 Terrasse 15.30 14.92 77.80
43542 2021-05-18 15:20:07 Terrasse 17.60 17.30 72.00
43541 2021-05-18 14:51:41 Terrasse 17.50 17.34 78.10
43540 2021-05-18 14:23:24 Terrasse 16.90 16.77 81.50
43539 2021-05-18 13:54:52 Terrasse 15.10 15.27 99.90
43538 2021-05-18 13:26:44 Terrasse 16.30 16.59 99.90
43537 2021-05-18 12:58:23 Terrasse 15.30 15.49 99.90
43536 2021-05-18 12:29:37 Terrasse 13.20 13.18 99.90
43535 2021-05-18 12:01:19 Terrasse 12.50 12.41 99.90
43534 2021-05-18 11:33:12 Terrasse 14.60 14.72 99.90
43533 2021-05-18 11:04:37 Terrasse 13.10 13.07 99.90
43532 2021-05-18 10:36:11 Terrasse 12.90 12.85 99.90
43531 2021-05-18 10:07:45 Terrasse 11.80 11.64 99.90
43530 2021-05-18 09:39:29 Terrasse 12.10 11.97 99.90
43529 2021-05-18 09:11:03 Terrasse 11.50 11.31 99.90
43528 2021-05-18 08:42:39 Terrasse 10.70 10.43 99.90
43527 2021-05-18 08:14:15 Terrasse 10.30 9.99 99.90
43526 2021-05-18 07:45:53 Terrasse 10.00 9.66 99.90
43525 2021-05-18 07:17:29 Terrasse 9.70 9.33 99.90
43524 2021-05-18 06:49:08 Terrasse 9.40 9.00 99.90
43523 2021-05-18 06:20:46 Terrasse 9.20 8.78 99.90
43522 2021-05-18 05:52:25 Terrasse 9.10 8.67 99.90
43521 2021-05-18 05:24:05 Terrasse 9.20 8.78 99.90
43520 2021-05-18 04:55:45 Terrasse 9.30 8.89 99.90
43519 2021-05-18 04:27:26 Terrasse 9.60 9.22 99.90
43518 2021-05-18 03:59:08 Terrasse 9.80 9.44 99.90
43517 2021-05-18 03:30:47 Terrasse 9.80 9.44 99.90
43516 2021-05-18 03:02:26 Terrasse 9.70 9.33 99.90
43515 2021-05-18 02:34:05 Terrasse 9.60 9.22 99.90
43514 2021-05-18 02:05:45 Terrasse 9.60 9.22 99.90
43513 2021-05-18 01:37:25 Terrasse 9.60 9.22 99.90
43512 2021-05-18 01:09:07 Terrasse 9.90 9.55 99.90
43511 2021-05-18 00:40:49 Terrasse 10.10 9.77 99.90
43510 2021-05-18 00:12:30 Terrasse 10.30 9.99 99.90
43509 2021-05-17 23:44:12 Terrasse 10.60 10.32 99.90
43508 2021-05-17 23:15:54 Terrasse 11.00 10.76 99.90
43507 2021-05-17 22:47:34 Terrasse 11.30 11.09 99.90
43506 2021-05-17 22:19:17 Terrasse 11.80 11.64 99.90
43505 2021-05-17 21:50:58 Terrasse 12.10 11.97 99.90
43504 2021-05-17 21:22:40 Terrasse 12.40 12.30 99.90
43503 2021-05-17 20:54:20 Terrasse 12.80 12.74 99.90
43502 2021-05-17 20:26:00 Terrasse 13.10 13.07 99.90
43501 2021-05-17 19:57:41 Terrasse 13.20 13.18 99.90
43500 2021-05-17 19:29:24 Terrasse 13.50 13.51 99.90
43499 2021-05-17 19:01:05 Terrasse 13.90 13.95 99.90
43498 2021-05-17 18:32:43 Terrasse 13.90 13.95 99.90
43497 2021-05-17 18:04:28 Terrasse 14.50 14.61 99.90
43496 2021-05-17 17:36:10 Terrasse 14.50 14.61 99.90
43495 2021-05-17 17:07:50 Terrasse 14.70 14.83 99.90
43494 2021-05-17 16:39:31 Terrasse 14.70 14.83 99.90
43493 2021-05-17 16:11:10 Terrasse 14.40 14.50 99.90
43492 2021-05-17 15:42:57 Terrasse 15.30 15.49 99.90
43491 2021-05-17 15:14:56 Terrasse 17.90 18.01 86.70
43490 2021-05-17 14:46:45 Terrasse 19.10 19.27 84.50
43489 2021-05-17 14:18:08 Terrasse 15.30 15.49 99.90
43488 2021-05-17 13:50:08 Terrasse 16.70 17.03 99.70
43487 2021-05-17 13:21:47 Terrasse 14.90 15.05 99.90
43486 2021-05-17 12:53:38 Terrasse 17.70 18.13 99.90
43485 2021-05-17 12:25:18 Terrasse 14.00 14.06 99.90
43484 2021-05-17 11:56:35 Terrasse 12.50 12.41 99.90
43483 2021-05-17 11:28:12 Terrasse 12.70 12.63 99.90
43482 2021-05-17 10:59:51 Terrasse 12.70 12.63 99.90
43481 2021-05-17 10:31:20 Terrasse 11.90 11.75 99.90
43480 2021-05-17 10:03:00 Terrasse 11.70 11.53 99.90
43479 2021-05-17 09:34:38 Terrasse 11.50 11.31 99.90
43478 2021-05-17 08:35:34 Terrasse 10.60 10.32 99.90
43477 2021-05-17 07:36:26 Terrasse 10.10 9.77 99.90
43476 2021-05-17 07:08:12 Terrasse 10.10 9.77 99.90
43475 2021-05-17 06:41:08 Terrasse 10.00 9.66 99.90
43474 2021-05-17 05:40:09 Terrasse 9.90 9.55 99.90
43473 2021-05-17 04:40:36 Terrasse 10.00 9.66 99.90
43472 2021-05-17 04:09:30 Terrasse 10.00 9.66 99.90
43471 2021-05-17 03:40:30 Terrasse 10.10 9.77 99.90
43470 2021-05-17 03:11:34 Terrasse 10.20 9.88 99.90
43469 2021-05-17 02:41:37 Terrasse 10.40 10.10 99.90
43468 2021-05-17 02:12:33 Terrasse 10.50 10.21 99.90
43467 2021-05-17 00:41:49 Terrasse 10.60 10.32 99.90
43466 2021-05-17 00:12:49 Terrasse 10.70 10.43 99.90
43465 2021-05-16 23:43:55 Terrasse 10.90 10.65 99.90
43464 2021-05-16 22:40:56 Terrasse 11.50 11.31 99.90
43463 2021-05-16 22:13:02 Terrasse 11.80 11.64 99.90
43462 2021-05-16 21:44:58 Terrasse 12.00 11.86 99.90
43461 2021-05-16 21:17:01 Terrasse 12.40 12.30 99.90
43460 2021-05-16 20:48:56 Terrasse 12.70 12.63 99.90
43459 2021-05-16 20:21:03 Terrasse 13.10 13.07 99.90
43458 2021-05-16 19:52:46 Terrasse 13.80 13.84 99.90
43457 2021-05-16 19:24:34 Terrasse 15.00 15.16 99.90
43456 2021-05-16 18:56:20 Terrasse 16.10 15.47 65.20
43455 2021-05-16 18:28:02 Terrasse 16.70 16.01 60.70
43454 2021-05-16 17:59:59 Terrasse 17.70 17.03 57.80
43453 2021-05-16 17:31:43 Terrasse 18.30 17.69 57.80
43452 2021-05-16 17:03:27 Terrasse 18.50 17.90 57.40
43451 2021-05-16 16:35:15 Terrasse 18.80 18.26 58.30
43450 2021-05-16 16:07:08 Terrasse 19.80 19.37 58.60
43449 2021-05-16 15:38:58 Terrasse 21.40 21.08 57.00
43448 2021-05-16 15:10:32 Terrasse 21.50 21.22 58.00
43447 2021-05-16 14:42:08 Terrasse 22.30 22.14 59.50
43446 2021-05-16 14:13:46 Terrasse 19.60 19.69 79.30
43445 2021-05-16 13:45:35 Terrasse 19.30 19.06 67.90
43444 2021-05-16 13:16:57 Terrasse 18.40 18.32 77.40
43443 2021-05-16 12:48:21 Terrasse 16.80 17.01 94.90
43442 2021-05-16 12:20:01 Terrasse 16.50 16.81 99.90
43441 2021-05-16 11:51:44 Terrasse 13.60 13.62 99.90
43440 2021-05-16 11:23:14 Terrasse 13.10 13.07 99.90
43439 2021-05-16 10:55:34 Terrasse 11.50 11.31 99.90
43438 2021-05-16 10:27:04 Terrasse 11.50 11.31 99.90
43437 2021-05-16 09:58:59 Terrasse 10.90 10.65 99.90
43436 2021-05-16 08:28:31 Terrasse 10.00 9.66 99.90
43435 2021-05-16 08:00:25 Terrasse 9.70 9.33 99.90
43434 2021-05-16 07:32:22 Terrasse 9.70 9.33 99.90
43433 2021-05-16 07:04:16 Terrasse 9.60 9.22 99.90
43432 2021-05-16 06:36:13 Terrasse 9.50 9.11 99.90
43431 2021-05-16 05:40:09 Terrasse 9.50 9.11 99.90
43430 2021-05-16 05:11:58 Terrasse 9.60 9.22 99.90
43429 2021-05-16 04:43:51 Terrasse 9.60 9.22 99.90
43428 2021-05-16 04:15:53 Terrasse 9.60 9.22 99.90
43427 2021-05-16 03:47:50 Terrasse 9.60 9.22 99.90
43426 2021-05-16 03:19:33 Terrasse 9.60 9.22 99.90
43425 2021-05-16 02:51:37 Terrasse 9.70 9.33 99.90
43424 2021-05-16 02:23:34 Terrasse 9.80 9.44 99.90
43423 2021-05-16 01:55:31 Terrasse 9.90 9.55 99.90
43422 2021-05-16 01:27:27 Terrasse 10.10 9.77 99.90
43421 2021-05-16 00:59:02 Terrasse 10.20 9.88 99.90
43420 2021-05-16 00:31:12 Terrasse 10.30 9.99 99.90
43419 2021-05-16 00:03:11 Terrasse 10.60 10.32 99.90
43418 2021-05-15 23:35:09 Terrasse 10.80 10.54 99.90
43417 2021-05-15 23:07:03 Terrasse 11.00 10.76 99.90
43416 2021-05-15 22:07:57 Terrasse 11.50 11.31 99.90
43415 2021-05-15 21:39:57 Terrasse 12.10 11.97 99.90
43414 2021-05-15 21:11:49 Terrasse 12.40 12.30 99.90
43413 2021-05-15 20:43:42 Terrasse 12.50 12.41 99.90
43412 2021-05-15 20:15:46 Terrasse 12.70 12.63 99.90
43411 2021-05-15 19:47:42 Terrasse 12.80 12.74 99.90
43410 2021-05-15 19:19:37 Terrasse 12.80 12.74 99.90
43409 2021-05-15 18:51:28 Terrasse 12.80 12.74 99.90
43408 2021-05-15 18:23:16 Terrasse 12.90 12.85 99.90
43407 2021-05-15 17:55:18 Terrasse 13.10 13.07 99.90
43406 2021-05-15 17:27:04 Terrasse 13.60 13.62 99.90
43405 2021-05-15 16:59:33 Terrasse 14.20 14.28 99.90
43404 2021-05-15 16:31:41 Terrasse 14.90 15.02 98.70
43403 2021-05-15 16:02:21 Terrasse 15.30 15.35 94.50
43402 2021-05-15 15:33:52 Terrasse 14.70 14.83 99.90
43401 2021-05-15 15:05:40 Terrasse 15.50 15.17 78.90
43400 2021-05-15 14:37:33 Terrasse 16.90 16.47 69.80
43399 2021-05-15 14:09:08 Terrasse 16.70 16.49 79.20
43398 2021-05-15 13:40:32 Terrasse 15.10 15.27 99.90
43397 2021-05-15 13:12:22 Terrasse 14.30 14.39 99.90
43396 2021-05-15 12:44:00 Terrasse 14.30 14.39 99.90
43395 2021-05-15 12:15:51 Terrasse 15.20 14.93 82.50
43394 2021-05-15 11:47:24 Terrasse 14.80 14.45 80.80
43393 2021-05-15 11:19:09 Terrasse 14.70 14.33 80.70
43392 2021-05-15 10:50:53 Terrasse 16.00 15.83 83.40
43391 2021-05-15 10:22:23 Terrasse 13.60 13.62 99.90
43390 2021-05-15 09:54:09 Terrasse 12.70 12.63 99.90
43389 2021-05-15 09:25:59 Terrasse 12.10 11.97 99.90
43388 2021-05-15 08:57:40 Terrasse 11.70 11.53 99.90
43387 2021-05-15 08:29:29 Terrasse 10.80 10.54 99.90
43386 2021-05-15 08:01:09 Terrasse 10.40 10.10 99.90
43385 2021-05-15 07:33:04 Terrasse 10.20 9.88 99.90
43384 2021-05-15 07:04:48 Terrasse 10.00 9.66 99.90
43383 2021-05-15 06:36:43 Terrasse 10.10 9.77 99.90
43382 2021-05-15 06:08:19 Terrasse 10.20 9.88 99.90
43381 2021-05-15 05:39:59 Terrasse 10.20 9.88 99.90
43380 2021-05-15 05:11:40 Terrasse 10.20 9.88 99.90
43379 2021-05-15 04:43:21 Terrasse 10.20 9.88 99.90
43378 2021-05-15 04:15:03 Terrasse 10.30 9.99 99.90
43377 2021-05-15 03:46:44 Terrasse 10.20 9.88 99.90
43376 2021-05-15 03:18:26 Terrasse 10.40 10.10 99.90
43375 2021-05-15 02:50:09 Terrasse 10.60 10.32 99.90
43374 2021-05-15 02:21:52 Terrasse 10.80 10.54 99.90
43373 2021-05-15 01:53:33 Terrasse 10.90 10.65 99.90
43372 2021-05-15 01:25:16 Terrasse 11.10 10.87 99.90
43371 2021-05-15 00:56:59 Terrasse 11.30 11.09 99.90
43370 2021-05-15 00:28:43 Terrasse 12.00 11.86 99.90
43369 2021-05-15 00:00:26 Terrasse 12.10 11.97 99.90
43368 2021-05-14 23:32:09 Terrasse 12.20 12.08 99.90
43367 2021-05-14 23:03:52 Terrasse 12.30 12.19 99.90
43366 2021-05-14 22:35:48 Terrasse 12.40 12.30 99.90
43365 2021-05-14 22:07:30 Terrasse 13.00 12.96 99.90
43364 2021-05-14 21:39:15 Terrasse 13.60 13.47 93.90
43363 2021-05-14 21:11:00 Terrasse 14.10 13.99 92.90
43362 2021-05-14 20:42:44 Terrasse 14.60 14.55 93.40
43361 2021-05-14 20:14:33 Terrasse 15.00 14.65 80.10
43360 2021-05-14 19:46:34 Terrasse 15.70 15.14 69.60
43359 2021-05-14 19:18:17 Terrasse 16.30 15.74 67.10
43358 2021-05-14 18:50:13 Terrasse 16.40 15.75 63.50
43357 2021-05-14 18:22:09 Terrasse 17.10 16.42 59.60
43356 2021-05-14 17:54:02 Terrasse 17.50 16.90 60.90
43355 2021-05-14 17:25:37 Terrasse 17.70 17.22 65.00
43354 2021-05-14 16:57:19 Terrasse 17.20 16.57 60.90
43353 2021-05-14 16:29:03 Terrasse 18.10 17.50 58.70
43352 2021-05-14 16:00:50 Terrasse 18.00 17.64 68.20
43351 2021-05-14 15:32:25 Terrasse 17.30 17.35 86.80
43350 2021-05-14 15:04:50 Terrasse 16.90 17.25 99.90
43349 2021-05-14 14:35:32 Terrasse 16.80 17.14 99.90
43348 2021-05-14 14:07:12 Terrasse 16.80 16.60 79.20
43347 2021-05-14 13:38:47 Terrasse 17.70 17.36 70.10
43346 2021-05-14 13:10:29 Terrasse 16.60 16.12 69.00
43345 2021-05-14 12:42:20 Terrasse 16.50 16.01 69.10
43344 2021-05-14 12:14:02 Terrasse 17.70 17.31 68.20
43343 2021-05-14 11:45:33 Terrasse 16.70 16.20 68.00
43342 2021-05-14 11:17:03 Terrasse 16.60 16.15 70.40
43341 2021-05-14 10:48:42 Terrasse 16.40 16.31 85.00
43340 2021-05-14 10:20:16 Terrasse 15.70 15.69 90.40
43339 2021-05-14 09:51:49 Terrasse 14.40 14.37 94.60
43338 2021-05-14 09:23:27 Terrasse 13.80 13.84 99.90
43337 2021-05-14 08:55:02 Terrasse 12.90 12.85 99.90
43336 2021-05-14 08:26:42 Terrasse 12.20 12.08 99.90
43335 2021-05-14 07:58:19 Terrasse 11.60 11.42 99.90
43334 2021-05-14 07:29:59 Terrasse 11.00 10.76 99.90
43333 2021-05-14 07:01:41 Terrasse 10.60 10.32 99.90
43332 2021-05-14 06:33:21 Terrasse 10.40 10.10 99.90
43331 2021-05-14 06:05:02 Terrasse 10.30 9.99 99.90
43330 2021-05-14 05:36:44 Terrasse 10.40 10.10 99.90
43329 2021-05-14 05:08:27 Terrasse 10.50 10.21 99.90
43328 2021-05-14 04:40:10 Terrasse 10.80 10.54 99.90
43327 2021-05-14 04:11:51 Terrasse 10.80 10.54 99.90
43326 2021-05-14 03:43:34 Terrasse 10.90 10.65 99.90
43325 2021-05-14 03:15:17 Terrasse 11.20 10.98 99.90
43324 2021-05-14 02:46:59 Terrasse 11.60 11.42 99.90
43323 2021-05-14 02:18:43 Terrasse 11.80 11.64 99.90
43322 2021-05-14 01:50:28 Terrasse 11.90 11.75 99.90
43321 2021-05-14 01:22:11 Terrasse 12.00 11.86 99.90
43320 2021-05-14 00:53:55 Terrasse 12.40 12.30 99.90
43319 2021-05-14 00:25:37 Terrasse 12.60 12.52 99.90
43318 2021-05-13 23:57:20 Terrasse 12.70 12.63 99.90
43317 2021-05-13 23:29:04 Terrasse 13.10 13.07 99.90
43316 2021-05-13 23:00:47 Terrasse 13.50 13.51 99.90
43315 2021-05-13 22:32:30 Terrasse 13.70 13.68 97.90
43314 2021-05-13 22:04:14 Terrasse 14.00 13.95 95.50
43313 2021-05-13 21:35:59 Terrasse 14.40 14.23 89.60
43312 2021-05-13 21:07:48 Terrasse 14.80 14.52 83.50
43311 2021-05-13 20:08:03 Terrasse 15.80 15.45 77.00
43310 2021-05-13 19:39:45 Terrasse 16.30 15.95 75.30
43309 2021-05-13 19:11:30 Terrasse 16.90 16.42 68.10
43308 2021-05-13 18:43:14 Terrasse 17.40 16.84 62.80
43307 2021-05-13 18:14:59 Terrasse 18.00 17.48 62.10
43306 2021-05-13 17:46:43 Terrasse 18.90 18.42 60.40
43305 2021-05-13 17:18:22 Terrasse 18.80 18.34 61.50
43304 2021-05-13 16:50:04 Terrasse 18.60 18.08 59.80
43303 2021-05-13 16:21:48 Terrasse 18.90 18.37 58.50
43302 2021-05-13 15:53:35 Terrasse 19.50 18.99 56.70
43301 2021-05-13 15:25:25 Terrasse 20.90 20.47 54.50
43300 2021-05-13 14:57:21 Terrasse 20.20 19.69 54.20
43299 2021-05-13 14:29:09 Terrasse 22.60 22.34 54.40
43298 2021-05-13 14:00:20 Terrasse 19.80 19.51 64.20
43297 2021-05-13 13:32:07 Terrasse 18.30 17.87 64.60
43296 2021-05-13 13:03:32 Terrasse 18.20 17.73 63.30
43295 2021-05-13 12:35:27 Terrasse 20.30 20.00 61.80
43294 2021-05-13 12:07:02 Terrasse 18.90 18.50 63.50
43293 2021-05-13 11:38:53 Terrasse 20.70 21.14 88.80
43292 2021-05-13 11:10:23 Terrasse 19.00 19.56 99.90
43291 2021-05-13 10:41:46 Terrasse 16.90 17.25 99.90
43290 2021-05-13 10:13:19 Terrasse 15.30 15.49 99.90
43289 2021-05-13 09:44:54 Terrasse 14.20 14.28 99.90
43288 2021-05-13 09:16:29 Terrasse 13.10 13.07 99.90
43287 2021-05-13 08:48:02 Terrasse 11.90 11.75 99.90
43286 2021-05-13 08:19:40 Terrasse 10.90 10.65 99.90
43285 2021-05-13 07:51:18 Terrasse 10.10 9.77 99.90
43284 2021-05-13 07:22:59 Terrasse 9.50 9.11 99.90
43283 2021-05-13 06:54:40 Terrasse 9.20 8.78 99.90
43282 2021-05-13 06:26:21 Terrasse 9.10 8.67 99.90
43281 2021-05-13 05:58:04 Terrasse 9.10 8.67 99.90
43280 2021-05-13 05:29:47 Terrasse 9.40 9.00 99.90
43279 2021-05-13 05:01:29 Terrasse 9.50 9.11 99.90
43278 2021-05-13 04:33:12 Terrasse 9.70 9.33 99.90
43277 2021-05-13 04:04:54 Terrasse 9.70 9.33 99.90
43276 2021-05-13 03:36:36 Terrasse 9.80 9.44 99.90
43275 2021-05-13 03:08:18 Terrasse 9.80 9.44 99.90
43274 2021-05-13 02:40:02 Terrasse 10.10 9.77 99.90
43273 2021-05-13 02:11:46 Terrasse 10.10 9.77 99.90
43272 2021-05-13 01:43:29 Terrasse 10.30 9.99 99.90
43271 2021-05-13 01:15:13 Terrasse 10.50 10.21 99.90
43270 2021-05-13 00:46:57 Terrasse 10.70 10.43 99.90
43269 2021-05-13 00:18:40 Terrasse 11.00 10.76 99.90
43268 2021-05-12 23:50:23 Terrasse 11.30 11.09 99.90
43267 2021-05-12 23:22:07 Terrasse 11.60 11.42 99.90
43266 2021-05-12 22:53:51 Terrasse 11.80 11.64 99.90
43265 2021-05-12 22:25:34 Terrasse 11.90 11.75 99.90
43264 2021-05-12 21:57:17 Terrasse 12.30 12.19 99.90
43263 2021-05-12 21:29:02 Terrasse 12.50 12.41 99.90
43262 2021-05-12 21:00:46 Terrasse 12.80 12.74 99.90
43261 2021-05-12 20:32:30 Terrasse 13.10 13.07 99.90
43260 2021-05-12 20:04:15 Terrasse 13.60 13.62 99.90
43259 2021-05-12 19:35:55 Terrasse 13.60 13.62 99.90
43258 2021-05-12 19:07:39 Terrasse 13.70 13.73 99.90
43257 2021-05-12 18:39:24 Terrasse 14.30 14.39 99.90
43256 2021-05-12 18:11:08 Terrasse 14.90 15.05 99.90
43255 2021-05-12 17:42:54 Terrasse 15.60 15.82 99.90
43254 2021-05-12 17:14:41 Terrasse 17.10 17.30 93.40
43253 2021-05-12 16:46:28 Terrasse 17.90 17.87 81.30
43252 2021-05-12 16:18:08 Terrasse 18.50 18.44 77.80
43251 2021-05-12 15:49:43 Terrasse 17.30 17.58 95.50
43250 2021-05-12 15:21:21 Terrasse 16.70 16.83 92.10
43249 2021-05-12 14:53:04 Terrasse 17.00 16.76 76.70
43248 2021-05-12 14:24:47 Terrasse 17.00 16.80 78.20
43247 2021-05-12 13:56:35 Terrasse 17.90 17.65 72.80
43246 2021-05-12 13:28:16 Terrasse 18.70 18.52 72.70
43245 2021-05-12 13:00:02 Terrasse 19.70 19.52 68.80
43244 2021-05-12 12:31:27 Terrasse 18.20 18.23 82.50
43243 2021-05-12 12:03:06 Terrasse 17.30 17.63 97.60
43242 2021-05-12 11:34:29 Terrasse 14.00 14.06 99.90
43241 2021-05-12 11:06:07 Terrasse 13.30 13.29 99.90
43240 2021-05-12 10:37:48 Terrasse 13.00 12.96 99.90
43239 2021-05-12 10:09:29 Terrasse 13.00 12.96 99.90
43238 2021-05-12 09:41:10 Terrasse 12.90 12.85 99.90
43237 2021-05-12 09:12:50 Terrasse 12.50 12.41 99.90
43236 2021-05-12 08:44:33 Terrasse 12.20 12.08 99.90
43235 2021-05-12 08:16:14 Terrasse 11.90 11.75 99.90
43234 2021-05-12 07:47:55 Terrasse 11.80 11.64 99.90
43233 2021-05-12 07:19:36 Terrasse 11.80 11.64 99.90
43232 2021-05-12 06:51:17 Terrasse 11.80 11.64 99.90
43231 2021-05-12 06:22:59 Terrasse 11.80 11.64 99.90
43230 2021-05-12 05:54:42 Terrasse 11.80 11.64 99.90
43229 2021-05-12 05:26:24 Terrasse 11.90 11.75 99.90
43228 2021-05-12 04:58:06 Terrasse 12.00 11.86 99.90
43227 2021-05-12 04:29:49 Terrasse 12.10 11.97 99.90
43226 2021-05-12 04:01:31 Terrasse 12.20 12.08 99.90
43225 2021-05-12 03:33:16 Terrasse 12.30 12.19 99.90
43224 2021-05-12 03:04:58 Terrasse 12.40 12.30 99.90
43223 2021-05-12 02:36:39 Terrasse 12.50 12.41 99.90
43222 2021-05-12 02:08:22 Terrasse 12.70 12.63 99.90
43221 2021-05-12 01:40:06 Terrasse 12.80 12.74 99.90
43220 2021-05-12 00:15:32 Terrasse 13.30 13.29 99.90
43219 2021-05-11 23:47:15 Terrasse 13.50 13.51 99.90
43218 2021-05-11 23:18:59 Terrasse 13.60 13.62 99.90
43217 2021-05-11 22:50:42 Terrasse 13.70 13.73 99.90
43216 2021-05-11 22:22:26 Terrasse 13.80 13.84 99.90
43215 2021-05-11 21:54:09 Terrasse 13.90 13.95 99.90
43214 2021-05-11 21:25:52 Terrasse 14.00 14.06 99.90
43213 2021-05-11 20:57:52 Terrasse 14.10 14.17 99.90
43212 2021-05-11 20:29:31 Terrasse 14.30 14.39 99.90
43211 2021-05-11 20:01:14 Terrasse 14.60 14.72 99.90
43210 2021-05-11 19:32:58 Terrasse 14.90 15.05 99.90
43209 2021-05-11 19:04:42 Terrasse 15.30 15.49 99.90
43208 2021-05-11 18:36:28 Terrasse 15.80 16.04 99.90
43207 2021-05-11 18:08:13 Terrasse 16.20 16.48 99.90
43206 2021-05-11 17:39:55 Terrasse 16.70 17.03 99.90
43205 2021-05-11 17:11:34 Terrasse 16.30 16.59 99.90
43204 2021-05-11 16:43:14 Terrasse 16.10 16.37 99.90
43203 2021-05-11 16:14:56 Terrasse 16.00 16.26 99.90
43202 2021-05-11 15:46:38 Terrasse 16.10 16.37 99.90
43201 2021-05-11 15:18:18 Terrasse 16.10 16.37 99.90
43200 2021-05-11 14:50:01 Terrasse 16.60 16.92 99.90
43199 2021-05-11 14:21:43 Terrasse 16.90 17.25 99.90
43198 2021-05-11 13:53:23 Terrasse 16.70 17.03 99.90
43197 2021-05-11 13:25:06 Terrasse 16.70 17.03 99.90
43196 2021-05-11 12:56:52 Terrasse 17.30 17.69 99.90
43195 2021-05-11 12:28:29 Terrasse 16.70 17.03 99.90
43194 2021-05-11 12:00:15 Terrasse 17.10 17.47 99.90
43193 2021-05-11 11:31:55 Terrasse 17.40 17.80 99.90
43192 2021-05-11 11:03:32 Terrasse 16.50 16.81 99.90
43191 2021-05-11 10:35:08 Terrasse 15.30 15.49 99.90
43190 2021-05-11 10:06:44 Terrasse 14.60 14.72 99.90
43189 2021-05-11 09:38:25 Terrasse 14.20 14.28 99.90
43188 2021-05-11 09:10:23 Terrasse 14.20 14.28 99.90
43187 2021-05-11 08:42:14 Terrasse 14.20 14.28 99.90
43186 2021-05-11 08:14:01 Terrasse 13.60 13.62 99.90
43185 2021-05-11 07:45:53 Terrasse 13.30 13.29 99.90
43184 2021-05-11 07:17:45 Terrasse 12.90 12.85 99.90
43183 2021-05-11 06:49:49 Terrasse 12.80 12.74 99.90
43182 2021-05-11 06:21:25 Terrasse 12.80 12.74 99.90
43181 2021-05-11 05:53:12 Terrasse 12.70 12.63 99.90
43180 2021-05-11 05:24:52 Terrasse 12.70 12.63 99.90
43179 2021-05-11 04:56:36 Terrasse 12.70 12.63 99.90
43178 2021-05-11 04:28:18 Terrasse 12.80 12.74 99.90
43177 2021-05-11 04:00:01 Terrasse 12.80 12.74 99.90
43176 2021-05-11 03:31:44 Terrasse 12.90 12.85 99.90
43175 2021-05-11 03:03:27 Terrasse 13.00 12.96 99.90
43174 2021-05-11 02:35:12 Terrasse 13.20 13.18 99.90
43173 2021-05-11 02:06:55 Terrasse 13.40 13.40 99.90
43172 2021-05-11 01:38:38 Terrasse 13.50 13.51 99.90
43171 2021-05-11 01:10:21 Terrasse 13.70 13.73 99.90
43170 2021-05-11 00:42:03 Terrasse 13.80 13.84 99.90
43169 2021-05-11 00:13:45 Terrasse 13.90 13.95 99.90
43168 2021-05-10 23:45:28 Terrasse 13.90 13.95 99.90
43167 2021-05-10 23:17:18 Terrasse 14.00 14.06 99.90
43166 2021-05-10 22:49:02 Terrasse 14.10 14.17 99.90
43165 2021-05-10 22:20:44 Terrasse 14.30 14.39 99.90
43164 2021-05-10 21:52:26 Terrasse 14.40 14.50 99.90
43163 2021-05-10 21:24:10 Terrasse 14.50 14.61 99.90
43162 2021-05-10 20:55:53 Terrasse 14.60 14.72 99.90
43161 2021-05-10 20:27:36 Terrasse 14.80 14.94 99.90
43160 2021-05-10 19:59:18 Terrasse 15.10 15.27 99.90
43159 2021-05-10 19:31:01 Terrasse 15.30 15.49 99.90
43158 2021-05-10 19:02:43 Terrasse 15.40 15.60 99.90
43157 2021-05-10 18:34:32 Terrasse 15.70 15.93 99.90
43156 2021-05-10 18:06:14 Terrasse 15.80 16.04 99.90
43155 2021-05-10 17:38:04 Terrasse 16.00 16.26 99.90
43154 2021-05-10 17:09:53 Terrasse 16.40 16.70 99.90
43153 2021-05-10 16:41:49 Terrasse 16.50 16.81 99.90
43152 2021-05-10 16:13:46 Terrasse 16.70 17.03 99.90
43151 2021-05-10 15:45:26 Terrasse 17.40 17.80 99.90
43150 2021-05-10 15:17:12 Terrasse 17.70 18.13 99.90
43149 2021-05-10 14:48:58 Terrasse 17.80 18.24 99.90
43148 2021-05-10 14:20:48 Terrasse 18.40 18.90 99.90
43147 2021-05-10 13:52:30 Terrasse 18.70 19.23 99.90
43146 2021-05-10 13:24:11 Terrasse 18.70 18.71 79.90
43145 2021-05-10 12:55:51 Terrasse 18.50 18.41 76.70
43144 2021-05-10 12:27:31 Terrasse 18.50 18.43 77.40
43143 2021-05-10 11:59:14 Terrasse 18.90 18.86 77.30
43142 2021-05-10 11:31:01 Terrasse 19.70 19.62 72.50
43141 2021-05-10 11:02:37 Terrasse 19.10 19.15 79.90
43140 2021-05-10 10:34:21 Terrasse 19.40 19.54 82.30
43139 2021-05-10 10:06:04 Terrasse 19.70 19.76 78.00
43138 2021-05-10 09:09:45 Terrasse 18.70 18.79 83.00
43137 2021-05-10 08:41:24 Terrasse 18.30 18.44 86.30
43136 2021-05-10 08:13:09 Terrasse 17.80 17.97 89.60
43135 2021-05-10 07:45:02 Terrasse 17.40 17.73 97.10
43134 2021-05-10 07:16:44 Terrasse 17.00 17.30 97.50
43133 2021-05-10 06:49:10 Terrasse 17.00 17.23 94.60
43132 2021-05-10 06:19:25 Terrasse 17.10 17.22 90.30
43131 2021-05-10 05:51:26 Terrasse 17.20 17.15 83.30
43130 2021-05-10 05:23:48 Terrasse 17.40 17.18 75.90
43129 2021-05-10 04:55:21 Terrasse 17.70 17.26 66.40
43128 2021-05-10 04:25:28 Terrasse 17.60 17.16 66.80
43127 2021-05-10 03:57:19 Terrasse 17.40 17.21 77.30
43126 2021-05-10 03:29:34 Terrasse 17.40 17.15 75.00
43125 2021-05-10 03:00:32 Terrasse 17.60 17.35 74.00
43124 2021-05-10 02:32:00 Terrasse 17.70 17.35 69.70
43123 2021-05-10 02:04:10 Terrasse 17.80 17.37 66.40
43122 2021-05-10 01:35:43 Terrasse 18.30 17.86 64.20
43121 2021-05-10 01:07:32 Terrasse 18.80 18.36 62.10
43120 2021-05-10 00:39:42 Terrasse 19.20 18.74 59.80
43119 2021-05-10 00:11:13 Terrasse 19.60 19.18 60.10
43118 2021-05-09 23:42:51 Terrasse 20.10 19.67 57.80
43117 2021-05-09 23:14:44 Terrasse 20.10 19.71 59.00
43116 2021-05-09 22:46:31 Terrasse 20.60 20.20 56.80
43115 2021-05-09 22:18:13 Terrasse 20.90 20.50 55.80
43114 2021-05-09 21:49:58 Terrasse 21.30 20.93 55.50
43113 2021-05-09 21:21:50 Terrasse 21.80 21.48 55.20
43112 2021-05-09 20:53:35 Terrasse 22.40 22.10 53.80
43111 2021-05-09 19:53:03 Terrasse 24.30 24.02 47.20
43110 2021-05-09 19:24:45 Terrasse 24.70 24.38 44.10
43109 2021-05-09 18:56:30 Terrasse 25.20 24.86 41.60
43108 2021-05-09 18:28:12 Terrasse 25.70 25.41 41.50
43107 2021-05-09 17:59:55 Terrasse 26.20 25.91 39.50
43106 2021-05-09 17:31:38 Terrasse 26.90 26.83 40.80
43105 2021-05-09 17:03:23 Terrasse 27.60 27.44 41.90
43104 2021-05-09 16:35:01 Terrasse 28.00 27.88 43.10
43103 2021-05-09 16:06:37 Terrasse 27.70 27.55 42.20
43102 2021-05-09 15:38:12 Terrasse 26.90 26.93 42.80
43101 2021-05-09 15:09:50 Terrasse 27.50 27.43 43.00
43100 2021-05-09 14:41:29 Terrasse 26.80 26.92 44.20
43099 2021-05-09 14:13:10 Terrasse 27.40 27.47 45.10
43098 2021-05-09 13:44:54 Terrasse 27.20 27.34 45.80
43097 2021-05-09 13:17:08 Terrasse 32.40 33.79 44.50
43096 2021-05-09 12:48:01 Terrasse 27.40 28.01 52.70
43095 2021-05-09 12:19:42 Terrasse 25.10 25.09 54.70
43094 2021-05-09 11:51:19 Terrasse 24.20 24.10 54.70
43093 2021-05-09 11:22:48 Terrasse 22.60 22.47 59.50
43092 2021-05-09 10:54:09 Terrasse 20.40 20.23 66.30
43091 2021-05-09 10:25:39 Terrasse 18.60 18.41 72.70
43090 2021-05-09 09:57:18 Terrasse 17.20 17.11 81.90
43089 2021-05-09 09:28:55 Terrasse 15.70 15.82 95.50
43088 2021-05-09 09:01:16 Terrasse 14.50 14.61 99.90
43087 2021-05-09 08:32:45 Terrasse 13.10 13.07 99.90
43086 2021-05-09 08:03:00 Terrasse 12.00 11.86 99.90
43085 2021-05-09 07:34:40 Terrasse 11.30 11.09 99.90
43084 2021-05-09 07:06:50 Terrasse 10.70 10.43 99.90
43083 2021-05-09 06:38:25 Terrasse 10.30 9.99 99.90
43082 2021-05-09 06:10:23 Terrasse 10.20 9.88 99.90
43081 2021-05-09 05:42:25 Terrasse 10.20 9.88 99.90
43080 2021-05-09 05:14:18 Terrasse 10.20 9.88 99.90
43079 2021-05-09 04:46:36 Terrasse 10.20 9.88 99.90
43078 2021-05-09 04:18:09 Terrasse 10.30 9.99 99.90
43077 2021-05-09 03:50:14 Terrasse 10.30 9.99 99.90
43076 2021-05-09 03:22:10 Terrasse 10.40 10.10 99.90
43075 2021-05-09 02:54:14 Terrasse 10.60 10.32 99.90
43074 2021-05-09 02:26:15 Terrasse 10.70 10.43 99.90
43073 2021-05-09 01:58:13 Terrasse 10.80 10.54 99.90
43072 2021-05-09 01:30:13 Terrasse 11.00 10.76 99.90
43071 2021-05-09 01:02:14 Terrasse 11.30 11.09 99.90
43070 2021-05-09 00:34:14 Terrasse 11.50 11.24 96.90
43069 2021-05-09 00:06:10 Terrasse 11.70 11.40 94.60
43068 2021-05-08 23:38:10 Terrasse 11.80 11.47 93.30
43067 2021-05-08 23:10:06 Terrasse 12.10 11.68 88.70
43066 2021-05-08 22:42:06 Terrasse 12.50 11.88 79.40
43065 2021-05-08 22:14:02 Terrasse 12.60 11.93 77.10
43064 2021-05-08 21:45:59 Terrasse 13.00 12.22 71.40
43063 2021-05-08 21:17:58 Terrasse 13.50 12.62 65.50
43062 2021-05-08 20:50:02 Terrasse 14.40 13.45 59.60
43061 2021-05-08 20:22:21 Terrasse 15.20 14.19 54.10
43060 2021-05-08 19:53:15 Terrasse 15.70 14.67 51.50
43059 2021-05-08 19:25:09 Terrasse 16.20 15.19 50.40
43058 2021-05-08 18:57:06 Terrasse 16.80 15.84 50.00
43057 2021-05-08 18:28:42 Terrasse 16.90 16.05 53.80
43056 2021-05-08 18:00:24 Terrasse 17.00 16.10 51.40
43055 2021-05-08 17:32:16 Terrasse 17.50 16.62 50.40
43054 2021-05-08 17:03:58 Terrasse 16.60 16.01 65.00
43053 2021-05-08 16:35:35 Terrasse 15.10 15.27 99.90
43052 2021-05-08 16:07:22 Terrasse 14.00 14.06 99.90
43051 2021-05-08 15:39:15 Terrasse 18.10 17.16 45.70
43050 2021-05-08 15:10:54 Terrasse 18.30 17.51 50.60
43049 2021-05-08 14:42:47 Terrasse 18.10 17.06 41.80
43048 2021-05-08 14:14:32 Terrasse 18.90 17.97 42.90
43047 2021-05-08 13:46:11 Terrasse 19.00 18.07 42.70
43046 2021-05-08 13:17:59 Terrasse 20.30 19.48 42.10
43045 2021-05-08 12:49:18 Terrasse 17.20 16.23 48.20
43044 2021-05-08 12:20:47 Terrasse 15.40 14.32 50.90
43043 2021-05-08 11:52:32 Terrasse 14.90 13.79 51.40
43042 2021-05-08 11:24:00 Terrasse 13.10 11.92 55.70
43041 2021-05-08 10:55:35 Terrasse 12.00 10.78 58.50
43040 2021-05-08 10:27:13 Terrasse 11.30 10.13 63.10
43039 2021-05-08 09:58:51 Terrasse 10.80 9.69 67.30
43038 2021-05-08 09:30:25 Terrasse 9.30 8.14 71.10
43037 2021-05-08 09:02:01 Terrasse 8.20 7.32 85.80
43036 2021-05-08 08:33:38 Terrasse 7.00 6.11 90.20
43035 2021-05-08 08:05:20 Terrasse 6.20 5.48 99.90
43034 2021-05-08 07:36:59 Terrasse 5.50 4.71 99.90
43033 2021-05-08 07:08:41 Terrasse 4.90 4.05 99.90
43032 2021-05-08 06:40:23 Terrasse 4.70 3.83 99.90
43031 2021-05-08 06:12:07 Terrasse 4.70 3.83 99.90
43030 2021-05-08 05:43:50 Terrasse 4.80 3.94 99.90
43029 2021-05-08 05:15:35 Terrasse 4.90 4.05 99.90
43028 2021-05-08 04:47:20 Terrasse 5.00 4.16 99.90
43027 2021-05-08 04:19:06 Terrasse 5.20 4.38 99.90
43026 2021-05-08 03:50:51 Terrasse 5.30 4.49 99.90
43025 2021-05-08 03:22:35 Terrasse 5.50 4.71 99.90
43024 2021-05-08 02:54:18 Terrasse 5.70 4.93 99.90
43023 2021-05-08 02:26:03 Terrasse 5.90 5.11 98.20
43022 2021-05-08 01:57:48 Terrasse 6.10 5.15 91.40
43021 2021-05-08 01:29:33 Terrasse 6.00 4.92 86.60
43020 2021-05-08 01:01:19 Terrasse 5.90 5.04 95.40
43019 2021-05-08 00:33:02 Terrasse 6.00 5.07 92.40
43018 2021-05-08 00:04:48 Terrasse 6.20 5.20 89.00
43017 2021-05-07 23:36:34 Terrasse 6.60 5.31 76.30
43016 2021-05-07 23:08:19 Terrasse 6.80 5.35 69.40
43015 2021-05-07 22:40:03 Terrasse 7.10 5.58 65.50
43014 2021-05-07 22:11:51 Terrasse 7.50 5.95 62.90
43013 2021-05-07 21:15:33 Terrasse 8.50 6.97 60.10
43012 2021-05-07 20:47:27 Terrasse 9.40 7.89 57.20
43011 2021-05-07 20:19:10 Terrasse 10.10 8.53 52.10
43010 2021-05-07 19:50:58 Terrasse 10.60 9.05 51.00
43009 2021-05-07 19:22:42 Terrasse 11.10 9.54 48.80
43008 2021-05-07 18:54:26 Terrasse 11.50 9.98 48.70
43007 2021-05-07 18:26:11 Terrasse 11.90 10.46 50.30
43006 2021-05-07 17:57:55 Terrasse 12.20 10.76 49.10
43005 2021-05-07 17:29:42 Terrasse 12.60 11.24 50.70
43004 2021-05-07 17:01:27 Terrasse 13.20 11.84 48.30
43003 2021-05-07 16:33:08 Terrasse 13.40 12.18 53.10
43002 2021-05-07 16:04:54 Terrasse 13.50 12.32 54.10
43001 2021-05-07 15:36:40 Terrasse 13.60 12.47 55.70
43000 2021-05-07 15:08:26 Terrasse 14.60 13.58 55.90
42999 2021-05-07 14:40:03 Terrasse 13.40 12.31 57.90
42998 2021-05-07 14:11:55 Terrasse 15.10 14.22 59.40
42997 2021-05-07 13:43:25 Terrasse 14.80 14.02 64.60
42996 2021-05-07 13:15:21 Terrasse 16.60 15.88 59.80
42995 2021-05-07 12:46:04 Terrasse 11.40 11.14 97.60
42994 2021-05-07 12:17:29 Terrasse 7.20 6.58 99.90
42993 2021-05-07 11:49:29 Terrasse 9.50 8.70 84.00
42992 2021-05-07 11:21:19 Terrasse 10.50 9.23 62.10
42991 2021-05-07 10:53:03 Terrasse 11.60 10.42 61.50
42990 2021-05-07 10:24:36 Terrasse 9.90 9.07 81.30
42989 2021-05-07 09:56:13 Terrasse 8.70 8.23 99.90
42988 2021-05-07 09:27:47 Terrasse 7.60 7.02 99.90
42987 2021-05-07 08:59:27 Terrasse 7.20 6.58 99.90
42986 2021-05-07 08:31:06 Terrasse 6.20 5.48 99.90
42985 2021-05-07 08:02:46 Terrasse 5.50 4.71 99.90
42984 2021-05-07 07:34:30 Terrasse 5.20 4.38 99.90
42983 2021-05-07 07:06:12 Terrasse 5.00 4.16 99.90
42982 2021-05-07 06:37:57 Terrasse 5.00 4.16 99.90
42981 2021-05-07 06:09:42 Terrasse 5.10 4.27 99.90
42980 2021-05-07 05:41:27 Terrasse 5.30 4.49 99.90
42979 2021-05-07 05:13:10 Terrasse 5.60 4.82 99.90
42978 2021-05-07 04:44:56 Terrasse 5.90 5.15 99.90
42977 2021-05-07 04:16:41 Terrasse 6.10 5.37 99.90
42976 2021-05-07 03:48:25 Terrasse 6.20 5.48 99.90
42975 2021-05-07 03:20:09 Terrasse 6.30 5.59 99.90
42974 2021-05-07 02:51:53 Terrasse 6.30 5.59 99.90
42973 2021-05-07 02:23:37 Terrasse 6.30 5.59 99.90
42972 2021-05-07 01:55:21 Terrasse 6.30 5.59 99.90
42971 2021-05-07 01:27:05 Terrasse 6.40 5.70 99.90
42970 2021-05-07 00:58:51 Terrasse 6.50 5.81 99.90
42969 2021-05-07 00:30:35 Terrasse 6.50 5.81 99.90
42968 2021-05-07 00:02:18 Terrasse 6.50 5.81 99.90
42967 2021-05-06 23:34:02 Terrasse 6.50 5.81 99.90
42966 2021-05-06 23:05:46 Terrasse 6.60 5.92 99.90
42965 2021-05-06 22:37:32 Terrasse 6.90 6.25 99.90
42964 2021-05-06 22:09:17 Terrasse 7.10 6.47 99.90
42963 2021-05-06 21:41:02 Terrasse 7.20 6.58 99.90
42962 2021-05-06 21:12:46 Terrasse 7.50 6.91 99.90
42961 2021-05-06 20:44:32 Terrasse 7.70 7.13 99.90
42960 2021-05-06 20:16:16 Terrasse 7.70 7.13 99.90
42959 2021-05-06 19:48:00 Terrasse 7.90 7.35 99.90
42958 2021-05-06 19:19:46 Terrasse 8.20 7.68 99.90
42957 2021-05-06 18:51:30 Terrasse 8.50 8.01 99.90
42956 2021-05-06 18:23:15 Terrasse 8.50 8.01 99.90
42955 2021-05-06 17:55:00 Terrasse 8.70 8.23 99.90
42954 2021-05-06 17:26:45 Terrasse 8.90 8.45 99.90
42953 2021-05-06 16:58:33 Terrasse 9.60 9.22 99.90
42952 2021-05-06 16:30:16 Terrasse 9.80 9.44 99.90
42951 2021-05-06 16:02:01 Terrasse 10.10 9.77 99.90
42950 2021-05-06 15:33:58 Terrasse 10.50 10.02 92.40
42949 2021-05-06 15:05:40 Terrasse 10.70 9.83 76.60
42948 2021-05-06 14:37:27 Terrasse 11.40 10.47 71.80
42947 2021-05-06 14:09:12 Terrasse 12.00 11.03 67.80
42946 2021-05-06 13:40:55 Terrasse 12.00 11.13 71.90
42945 2021-05-06 13:12:33 Terrasse 10.00 9.61 97.90
42944 2021-05-06 12:44:19 Terrasse 10.70 9.64 69.40
42943 2021-05-06 12:16:08 Terrasse 11.10 10.08 69.40
42942 2021-05-06 11:47:53 Terrasse 11.20 10.31 74.00
42941 2021-05-06 11:19:20 Terrasse 9.30 8.89 99.90
42940 2021-05-06 10:51:05 Terrasse 8.80 8.34 99.90
42939 2021-05-06 10:22:44 Terrasse 8.10 7.57 99.90
42938 2021-05-06 09:54:23 Terrasse 7.00 6.36 99.90
42937 2021-05-06 09:26:08 Terrasse 7.10 6.47 99.90
42936 2021-05-06 08:57:49 Terrasse 6.60 5.92 99.90
42935 2021-05-06 08:29:30 Terrasse 6.10 5.37 99.90
42934 2021-05-06 08:01:11 Terrasse 5.50 4.71 99.90
42933 2021-05-06 07:32:55 Terrasse 5.30 4.49 99.90
42932 2021-05-06 07:04:40 Terrasse 5.10 4.27 99.90
42931 2021-05-06 06:36:25 Terrasse 4.90 4.05 99.90
42930 2021-05-06 06:08:08 Terrasse 4.80 3.94 99.90
42929 2021-05-06 05:39:54 Terrasse 5.00 4.16 99.90
42928 2021-05-06 05:11:41 Terrasse 5.20 4.38 99.90
42927 2021-05-06 04:43:26 Terrasse 5.50 4.71 99.90
42926 2021-05-06 04:15:11 Terrasse 5.60 4.82 99.90
42925 2021-05-06 03:46:56 Terrasse 5.70 4.93 99.90
42924 2021-05-06 03:18:39 Terrasse 5.70 4.93 99.90
42923 2021-05-06 02:50:23 Terrasse 5.70 4.93 99.90
42922 2021-05-06 02:22:07 Terrasse 5.60 4.82 99.90
42921 2021-05-06 01:53:51 Terrasse 5.80 5.04 99.90
42920 2021-05-06 01:25:41 Terrasse 5.90 5.15 99.90
42919 2021-05-06 00:57:30 Terrasse 6.20 5.48 99.90
42918 2021-05-06 00:29:13 Terrasse 6.20 5.48 99.90
42917 2021-05-06 00:01:00 Terrasse 6.30 5.59 99.90
42916 2021-05-05 23:32:45 Terrasse 6.60 5.92 99.90
42915 2021-05-05 23:04:29 Terrasse 6.90 6.25 99.90
42914 2021-05-05 22:36:13 Terrasse 6.90 6.25 99.90
42913 2021-05-05 22:08:00 Terrasse 7.30 6.69 99.90
42912 2021-05-05 21:39:46 Terrasse 7.90 7.35 99.90
42911 2021-05-05 21:11:35 Terrasse 8.40 7.31 77.30
42910 2021-05-05 20:43:23 Terrasse 8.80 7.37 62.50
42909 2021-05-05 20:15:09 Terrasse 9.30 7.89 61.40
42908 2021-05-05 19:46:58 Terrasse 10.00 8.61 59.50
42907 2021-05-05 19:18:46 Terrasse 10.80 9.36 54.40
42906 2021-05-05 18:50:32 Terrasse 10.80 9.26 50.60
42905 2021-05-05 18:22:15 Terrasse 10.80 9.24 49.80
42904 2021-05-05 17:54:04 Terrasse 11.40 9.92 50.80
42903 2021-05-05 17:25:51 Terrasse 12.10 10.65 49.30
42902 2021-05-05 16:58:13 Terrasse 12.60 11.15 47.20
42901 2021-05-05 16:29:34 Terrasse 11.60 10.25 55.00
42900 2021-05-05 16:01:24 Terrasse 11.90 10.52 52.60
42899 2021-05-05 15:33:09 Terrasse 12.60 11.35 55.00
42898 2021-05-05 15:04:47 Terrasse 12.50 11.34 58.90
42897 2021-05-05 14:36:17 Terrasse 11.50 10.46 67.10
42896 2021-05-05 14:08:28 Terrasse 12.70 11.43 53.90
42895 2021-05-05 13:40:59 Terrasse 18.70 17.74 42.60
42894 2021-05-05 13:12:30 Terrasse 19.00 18.31 51.80
42893 2021-05-05 12:43:12 Terrasse 10.80 10.40 94.40
42892 2021-05-05 12:14:57 Terrasse 9.00 8.56 99.90
42891 2021-05-05 11:46:24 Terrasse 7.90 7.35 99.90
42890 2021-05-05 11:18:22 Terrasse 10.20 8.78 57.50
42889 2021-05-05 10:50:05 Terrasse 11.00 9.73 60.30
42888 2021-05-05 10:21:49 Terrasse 10.00 8.93 71.80
42887 2021-05-05 09:53:24 Terrasse 9.00 8.49 96.90
42886 2021-05-05 09:25:04 Terrasse 7.80 7.24 99.90
42885 2021-05-05 08:56:48 Terrasse 8.10 7.57 99.90
42884 2021-05-05 08:28:28 Terrasse 7.40 6.80 99.90
42883 2021-05-05 08:00:06 Terrasse 6.90 6.25 99.90
42882 2021-05-05 07:31:49 Terrasse 6.20 5.48 99.90
42881 2021-05-05 07:03:42 Terrasse 5.90 5.15 99.90
42880 2021-05-05 06:35:22 Terrasse 5.90 5.15 99.90
42879 2021-05-05 06:07:06 Terrasse 6.10 5.37 99.90
42878 2021-05-05 05:38:51 Terrasse 6.30 5.59 99.90
42877 2021-05-05 05:10:37 Terrasse 6.50 5.81 99.90
42876 2021-05-05 04:42:22 Terrasse 6.60 5.92 99.90
42875 2021-05-05 04:14:08 Terrasse 6.70 6.03 99.90
42874 2021-05-05 03:45:53 Terrasse 6.90 6.25 99.90
42873 2021-05-05 03:17:37 Terrasse 7.00 6.36 99.90
42872 2021-05-05 02:49:22 Terrasse 7.10 6.47 99.90
42871 2021-05-05 02:21:12 Terrasse 7.20 6.58 99.90
42870 2021-05-05 01:52:59 Terrasse 7.40 6.80 99.90
42869 2021-05-05 01:24:42 Terrasse 7.60 7.02 99.90
42868 2021-05-05 00:56:27 Terrasse 7.80 7.24 99.90
42867 2021-05-05 00:28:12 Terrasse 7.90 7.35 99.90
42866 2021-05-04 23:59:57 Terrasse 8.10 7.57 99.90
42865 2021-05-04 23:31:40 Terrasse 8.30 7.79 99.90
42864 2021-05-04 23:03:26 Terrasse 8.50 8.01 99.90
42863 2021-05-04 22:35:10 Terrasse 8.70 8.23 99.90
42862 2021-05-04 22:06:54 Terrasse 8.80 8.34 99.90
42861 2021-05-04 21:38:38 Terrasse 8.90 8.45 99.90
42860 2021-05-04 21:10:24 Terrasse 9.10 8.67 99.90
42859 2021-05-04 20:42:10 Terrasse 9.50 9.11 99.90
42858 2021-05-04 20:14:03 Terrasse 9.80 9.44 99.90
42857 2021-05-04 19:45:47 Terrasse 10.10 9.66 95.70
42856 2021-05-04 19:17:30 Terrasse 10.40 9.82 89.00
42855 2021-05-04 18:49:16 Terrasse 10.40 10.06 98.20
42854 2021-05-04 18:21:01 Terrasse 10.70 9.96 81.60
42853 2021-05-04 17:52:47 Terrasse 11.20 10.34 75.10
42852 2021-05-04 17:24:33 Terrasse 11.70 11.53 99.90
42851 2021-05-04 16:56:18 Terrasse 11.70 11.53 99.90
42850 2021-05-04 16:28:00 Terrasse 11.70 11.53 99.90
42849 2021-05-04 15:59:45 Terrasse 11.80 11.64 99.90
42848 2021-05-04 15:31:21 Terrasse 10.80 10.54 99.90
42847 2021-05-04 15:02:59 Terrasse 10.10 9.77 99.90
42846 2021-05-04 14:34:42 Terrasse 9.70 9.33 99.90
42845 2021-05-04 14:06:24 Terrasse 9.50 9.11 99.90
42844 2021-05-04 13:38:07 Terrasse 9.30 8.89 99.90
42843 2021-05-04 13:09:50 Terrasse 9.10 8.67 99.90
42842 2021-05-04 12:41:33 Terrasse 9.10 8.67 99.90
42841 2021-05-04 12:13:15 Terrasse 9.00 8.56 99.90
42840 2021-05-04 11:44:59 Terrasse 9.00 8.56 99.90
42839 2021-05-04 11:16:44 Terrasse 9.00 8.56 99.90
42838 2021-05-04 10:48:26 Terrasse 8.90 8.45 99.90
42837 2021-05-04 10:20:09 Terrasse 8.80 8.34 99.90
42836 2021-05-04 09:51:55 Terrasse 9.00 8.56 99.90
42835 2021-05-04 09:23:41 Terrasse 9.40 8.77 90.90
42834 2021-05-04 08:55:28 Terrasse 9.90 8.53 60.70
42833 2021-05-04 08:27:09 Terrasse 9.80 8.30 56.10
42832 2021-05-04 07:58:51 Terrasse 9.50 7.99 56.70
42831 2021-05-04 07:30:32 Terrasse 9.00 7.50 59.20
42830 2021-05-04 07:02:15 Terrasse 8.60 7.15 62.60
42829 2021-05-04 06:33:57 Terrasse 8.50 7.05 63.10
42828 2021-05-04 06:05:42 Terrasse 8.50 7.03 62.40
42827 2021-05-04 05:37:26 Terrasse 8.40 6.91 61.80
42826 2021-05-04 05:09:12 Terrasse 8.50 7.00 61.20
42825 2021-05-04 04:40:57 Terrasse 8.60 7.10 60.60
42824 2021-05-04 04:12:42 Terrasse 8.80 7.30 60.00
42823 2021-05-04 03:44:27 Terrasse 8.90 7.40 59.40
42822 2021-05-04 03:16:13 Terrasse 8.90 7.39 59.20
42821 2021-05-04 02:47:58 Terrasse 9.00 7.49 58.80
42820 2021-05-04 02:19:41 Terrasse 9.00 7.45 57.30
42819 2021-05-04 01:51:27 Terrasse 9.10 7.55 56.90
42818 2021-05-04 01:23:11 Terrasse 9.20 7.70 58.20
42817 2021-05-04 00:54:56 Terrasse 9.30 7.79 57.50
42816 2021-05-04 00:26:41 Terrasse 9.50 7.99 56.80
42815 2021-05-03 23:58:25 Terrasse 9.80 8.30 56.00
42814 2021-05-03 23:30:10 Terrasse 10.00 8.48 54.50
42813 2021-05-03 23:01:53 Terrasse 10.10 8.57 53.90
42812 2021-05-03 22:33:39 Terrasse 10.40 8.87 52.80
42811 2021-05-03 22:05:24 Terrasse 10.90 9.40 51.90
42810 2021-05-03 21:37:11 Terrasse 11.50 10.02 50.50
42809 2021-05-03 21:08:56 Terrasse 12.10 10.57 46.20
42808 2021-05-03 20:40:42 Terrasse 12.60 11.09 45.00
42807 2021-05-03 20:12:26 Terrasse 13.10 11.61 44.00
42806 2021-05-03 19:44:12 Terrasse 13.60 12.13 42.70
42805 2021-05-03 19:15:55 Terrasse 13.80 12.34 42.20
42804 2021-05-03 18:47:41 Terrasse 14.30 12.85 40.90
42803 2021-05-03 18:19:26 Terrasse 14.70 13.26 39.80
42802 2021-05-03 17:51:09 Terrasse 14.70 13.25 39.20
42801 2021-05-03 17:22:54 Terrasse 15.30 13.90 38.70
42800 2021-05-03 16:54:38 Terrasse 15.80 14.44 38.30
42799 2021-05-03 16:26:23 Terrasse 16.30 14.94 36.60
42798 2021-05-03 15:58:02 Terrasse 16.20 14.85 37.40
42797 2021-05-03 15:29:52 Terrasse 16.70 15.40 37.50
42796 2021-05-03 15:01:47 Terrasse 18.10 16.91 36.10
42795 2021-05-03 14:33:25 Terrasse 17.30 16.10 38.80
42794 2021-05-03 14:06:39 Terrasse 17.90 16.73 37.70
42793 2021-05-03 13:36:33 Terrasse 16.10 14.80 39.50
42792 2021-05-03 13:08:11 Terrasse 16.40 15.07 37.50
42791 2021-05-03 12:39:41 Terrasse 16.40 15.17 41.10
42790 2021-05-03 12:11:32 Terrasse 15.70 14.49 44.50
42789 2021-05-03 11:43:06 Terrasse 14.40 13.08 45.20
42788 2021-05-03 11:14:37 Terrasse 13.40 12.04 47.80
42787 2021-05-03 10:46:06 Terrasse 11.90 10.51 52.40
42786 2021-05-03 10:17:45 Terrasse 11.00 9.56 53.70
42785 2021-05-03 09:49:22 Terrasse 10.10 8.61 55.40
42784 2021-05-03 09:20:58 Terrasse 9.00 7.59 62.50
42783 2021-05-03 08:52:33 Terrasse 8.00 6.76 72.80
42782 2021-05-03 08:24:10 Terrasse 6.80 5.68 82.30
42781 2021-05-03 07:55:50 Terrasse 6.00 5.20 97.40
42780 2021-05-03 07:27:32 Terrasse 5.40 4.60 99.90
42779 2021-05-03 06:59:16 Terrasse 5.20 4.38 99.90
42778 2021-05-03 06:31:00 Terrasse 5.40 4.37 90.80
42777 2021-05-03 06:02:44 Terrasse 5.60 4.36 82.20
42776 2021-05-03 05:34:31 Terrasse 5.80 4.40 75.40
42775 2021-05-03 05:06:15 Terrasse 6.00 4.53 71.60
42774 2021-05-03 04:37:59 Terrasse 6.10 4.58 69.60
42773 2021-05-03 04:09:44 Terrasse 6.10 4.54 67.80
42772 2021-05-03 03:41:27 Terrasse 6.10 4.49 66.10
42771 2021-05-03 03:13:11 Terrasse 6.30 4.65 63.70
42770 2021-05-03 02:44:55 Terrasse 6.20 4.53 63.40
42769 2021-05-03 02:16:40 Terrasse 6.30 4.61 62.40
42768 2021-05-03 01:48:25 Terrasse 6.30 4.59 61.60
42767 2021-05-03 01:20:09 Terrasse 6.60 4.88 59.80
42766 2021-05-03 00:51:54 Terrasse 7.10 5.40 58.80
42765 2021-05-03 00:23:38 Terrasse 7.20 5.48 57.80
42764 2021-05-02 23:55:25 Terrasse 7.50 5.79 56.90
42763 2021-05-02 23:27:10 Terrasse 7.80 6.10 56.00
42762 2021-05-02 22:58:55 Terrasse 8.20 6.52 55.20
42761 2021-05-02 22:30:42 Terrasse 8.80 7.13 53.30
42760 2021-05-02 22:02:29 Terrasse 9.30 7.64 52.00
42759 2021-05-02 21:34:15 Terrasse 9.50 7.84 51.10
42758 2021-05-02 21:06:02 Terrasse 9.90 8.25 50.00
42757 2021-05-02 20:37:49 Terrasse 10.50 8.84 47.10
42756 2021-05-02 20:09:35 Terrasse 11.20 9.56 45.30
42755 2021-05-02 19:41:23 Terrasse 11.80 10.18 43.80
42754 2021-05-02 19:13:09 Terrasse 12.30 10.72 43.30
42753 2021-05-02 18:44:56 Terrasse 12.80 11.24 42.40
42752 2021-05-02 18:16:41 Terrasse 13.40 11.91 42.80
42751 2021-05-02 17:48:26 Terrasse 13.70 12.28 44.10
42750 2021-05-02 17:20:14 Terrasse 14.20 12.77 42.10
42749 2021-05-02 16:51:59 Terrasse 14.10 12.72 44.30
42748 2021-05-02 16:23:47 Terrasse 14.80 13.47 43.30
42747 2021-05-02 15:55:40 Terrasse 16.80 15.59 40.30
42746 2021-05-02 15:27:34 Terrasse 18.20 17.18 42.40
42745 2021-05-02 14:59:07 Terrasse 17.90 16.86 42.70
42744 2021-05-02 14:30:40 Terrasse 18.00 17.01 44.40
42743 2021-05-02 14:02:37 Terrasse 17.60 16.56 44.00
42742 2021-05-02 13:33:43 Terrasse 14.00 12.78 50.90
42741 2021-05-02 13:05:23 Terrasse 11.50 10.06 51.90
42740 2021-05-02 12:37:07 Terrasse 11.60 10.20 53.00
42739 2021-05-02 12:08:50 Terrasse 11.00 9.56 53.90
42738 2021-05-02 11:40:36 Terrasse 11.30 9.87 53.00
42737 2021-05-02 11:12:24 Terrasse 12.40 11.10 53.70
42736 2021-05-02 10:44:07 Terrasse 12.40 11.11 54.20
42735 2021-05-02 10:15:44 Terrasse 11.20 9.91 58.80
42734 2021-05-02 09:47:22 Terrasse 10.30 8.92 58.80
42733 2021-05-02 09:19:03 Terrasse 9.60 8.29 64.20
42732 2021-05-02 08:50:42 Terrasse 9.00 7.67 65.70
42731 2021-05-02 08:22:20 Terrasse 8.30 7.16 75.80
42730 2021-05-02 07:54:04 Terrasse 8.10 7.29 89.20
42729 2021-05-02 07:25:47 Terrasse 8.00 6.83 75.80
42728 2021-05-02 06:57:31 Terrasse 8.10 6.71 66.70
42727 2021-05-02 06:29:16 Terrasse 8.20 6.71 62.60
42726 2021-05-02 06:01:01 Terrasse 8.40 6.87 60.40
42725 2021-05-02 05:32:46 Terrasse 8.60 7.04 58.50
42724 2021-05-02 05:04:33 Terrasse 8.70 7.12 57.40
42723 2021-05-02 04:36:18 Terrasse 9.00 7.46 57.50
42722 2021-05-02 04:08:03 Terrasse 9.10 7.54 56.30
42721 2021-05-02 03:39:48 Terrasse 9.30 7.74 55.80
42720 2021-05-02 03:11:32 Terrasse 9.30 7.70 54.10
42719 2021-05-02 02:43:16 Terrasse 9.60 8.01 53.30
42718 2021-05-02 02:15:01 Terrasse 9.80 8.22 53.00
42717 2021-05-02 01:46:45 Terrasse 10.00 8.41 52.00
42716 2021-05-02 01:18:30 Terrasse 10.10 8.50 51.10
42715 2021-05-02 00:50:15 Terrasse 10.20 8.63 51.80
42714 2021-05-02 00:21:59 Terrasse 10.30 8.68 49.70
42713 2021-05-01 23:53:43 Terrasse 10.50 8.90 49.60
42712 2021-05-01 23:25:27 Terrasse 10.70 9.12 49.50
42711 2021-05-01 22:57:12 Terrasse 10.80 9.22 49.10
42710 2021-05-01 22:28:58 Terrasse 11.10 9.55 49.10
42709 2021-05-01 22:00:43 Terrasse 11.20 9.65 48.80
42708 2021-05-01 21:32:28 Terrasse 11.50 9.98 48.80
42707 2021-05-01 21:04:14 Terrasse 11.90 10.42 48.70
42706 2021-05-01 20:36:01 Terrasse 12.30 10.83 47.80
42705 2021-05-01 20:07:48 Terrasse 12.80 11.37 47.20
42704 2021-05-01 19:39:36 Terrasse 13.40 12.03 47.40
42703 2021-05-01 19:11:24 Terrasse 14.00 12.64 45.50
42702 2021-05-01 18:43:11 Terrasse 14.60 13.27 44.10
42701 2021-05-01 18:14:55 Terrasse 15.00 13.73 45.00
42700 2021-05-01 17:46:38 Terrasse 15.10 13.94 48.80
42699 2021-05-01 17:18:23 Terrasse 15.50 14.42 50.50
42698 2021-05-01 16:50:04 Terrasse 15.10 14.04 52.70
42697 2021-05-01 16:21:41 Terrasse 14.30 13.22 54.80
42696 2021-05-01 15:53:23 Terrasse 13.90 12.83 56.80
42695 2021-05-01 15:25:09 Terrasse 13.90 12.94 60.90
42694 2021-05-01 14:56:48 Terrasse 13.70 12.79 63.80
42693 2021-05-01 14:28:22 Terrasse 12.10 11.35 75.90
42692 2021-05-01 14:00:03 Terrasse 11.50 10.83 81.30
42691 2021-05-01 13:31:46 Terrasse 11.40 10.82 85.30
42690 2021-05-01 13:03:29 Terrasse 11.30 10.67 83.70
42689 2021-05-01 12:35:13 Terrasse 11.40 10.66 78.90
42688 2021-05-01 12:07:00 Terrasse 11.90 11.04 72.70
42687 2021-05-01 11:38:45 Terrasse 12.50 11.67 71.40
42686 2021-05-01 11:10:30 Terrasse 12.90 12.08 70.10
42685 2021-05-01 10:42:07 Terrasse 12.00 11.15 72.70
42684 2021-05-01 10:13:45 Terrasse 11.40 10.58 76.10
42683 2021-05-01 09:45:24 Terrasse 10.80 10.13 83.90
42682 2021-05-01 09:17:00 Terrasse 9.40 9.00 99.80
42681 2021-05-01 08:48:41 Terrasse 8.70 8.23 99.90
42680 2021-05-01 08:20:18 Terrasse 8.00 7.46 99.90
42679 2021-05-01 07:51:58 Terrasse 7.10 6.47 99.90
42678 2021-05-01 07:23:39 Terrasse 6.40 5.70 99.90
42677 2021-05-01 06:55:21 Terrasse 6.00 5.26 99.90
42676 2021-05-01 06:27:07 Terrasse 5.90 5.15 99.90
42675 2021-05-01 05:58:52 Terrasse 6.20 5.48 99.90
42674 2021-05-01 05:30:37 Terrasse 6.50 5.81 99.90
42673 2021-05-01 05:02:22 Terrasse 6.60 5.92 99.90
42672 2021-05-01 04:34:06 Terrasse 6.90 6.25 99.90
42671 2021-05-01 04:05:50 Terrasse 7.20 6.58 99.90
42670 2021-05-01 03:37:35 Terrasse 7.70 7.13 99.90
42669 2021-05-01 03:09:17 Terrasse 7.90 7.35 99.90
42668 2021-05-01 02:41:02 Terrasse 8.00 7.46 99.90
42667 2021-05-01 02:12:46 Terrasse 8.10 7.57 99.90
42666 2021-05-01 01:44:30 Terrasse 8.20 7.68 99.90
42665 2021-05-01 01:16:15 Terrasse 8.40 7.84 97.50
42664 2021-05-01 00:47:59 Terrasse 8.60 8.12 99.90
42663 2021-05-01 00:19:42 Terrasse 8.70 8.13 96.10
42662 2021-04-30 23:51:25 Terrasse 8.90 8.05 84.40
42661 2021-04-30 23:23:09 Terrasse 9.30 7.96 64.10
42660 2021-04-30 22:54:53 Terrasse 9.50 8.18 64.10
42659 2021-04-30 22:26:35 Terrasse 9.80 8.67 70.20
42658 2021-04-30 21:58:18 Terrasse 10.00 8.96 72.90
42657 2021-04-30 21:30:03 Terrasse 10.20 9.21 73.90
42656 2021-04-30 21:01:47 Terrasse 10.40 9.37 71.90
42655 2021-04-30 20:33:31 Terrasse 10.80 9.75 69.60
42654 2021-04-30 20:05:29 Terrasse 11.10 10.05 68.50
42653 2021-04-30 18:37:26 Terrasse 11.60 10.57 67.20
42652 2021-04-30 18:06:49 Terrasse 12.10 11.01 62.80
42651 2021-04-30 17:38:40 Terrasse 12.60 11.50 60.50
42650 2021-04-30 16:39:47 Terrasse 12.90 11.79 59.10
42649 2021-04-30 16:11:29 Terrasse 12.90 11.78 58.80
42648 2021-04-30 15:12:01 Terrasse 12.60 11.48 60.10
42647 2021-04-30 14:43:45 Terrasse 12.70 11.57 59.20
42646 2021-04-30 14:15:33 Terrasse 13.60 12.48 56.20
42645 2021-04-30 13:47:12 Terrasse 14.20 13.21 58.60
42644 2021-04-30 13:18:40 Terrasse 12.20 11.14 63.80
42643 2021-04-30 12:50:21 Terrasse 11.40 10.40 69.00
42642 2021-04-30 12:22:46 Terrasse 9.90 8.93 76.10
42641 2021-04-30 11:53:59 Terrasse 9.60 8.60 76.10
42640 2021-04-30 11:25:43 Terrasse 9.80 8.71 71.90
42639 2021-04-30 10:57:22 Terrasse 9.40 8.20 69.10
42638 2021-04-30 10:29:04 Terrasse 9.30 8.05 67.50
42637 2021-04-30 10:00:44 Terrasse 9.00 7.66 65.30
42636 2021-04-30 09:32:27 Terrasse 8.70 7.35 66.20
42635 2021-04-30 08:03:37 Terrasse 6.60 5.92 99.90
42634 2021-04-30 07:35:53 Terrasse 6.00 5.26 99.90
42633 2021-04-30 06:39:15 Terrasse 5.80 5.04 99.90
42632 2021-04-30 06:10:51 Terrasse 5.80 5.04 99.90
42631 2021-04-30 05:42:44 Terrasse 6.00 5.26 99.90
42630 2021-04-30 05:14:26 Terrasse 6.10 5.37 99.90
42629 2021-04-30 04:46:15 Terrasse 6.20 5.48 99.90
42628 2021-04-30 04:18:00 Terrasse 6.20 5.48 99.90
42627 2021-04-30 03:49:47 Terrasse 6.30 5.59 99.90
42626 2021-04-30 03:21:32 Terrasse 6.50 5.81 99.90
42625 2021-04-30 02:53:19 Terrasse 6.70 5.81 91.20
42624 2021-04-30 02:25:08 Terrasse 7.10 5.98 80.90
42623 2021-04-30 01:58:00 Terrasse 7.00 5.69 74.10
42622 2021-04-30 01:29:42 Terrasse 7.30 5.83 66.80
42621 2021-04-30 01:02:05 Terrasse 7.70 6.16 62.60
42620 2021-04-30 00:33:25 Terrasse 7.90 6.33 60.80
42619 2021-04-29 23:34:32 Terrasse 8.80 7.25 58.00
42618 2021-04-29 23:06:23 Terrasse 9.10 7.57 57.70
42617 2021-04-29 22:38:19 Terrasse 9.50 7.96 55.70
42616 2021-04-29 22:10:14 Terrasse 9.90 8.39 55.20
42615 2021-04-29 21:42:25 Terrasse 10.40 8.91 54.10
42614 2021-04-29 21:14:21 Terrasse 10.90 9.41 52.40
42613 2021-04-29 20:46:34 Terrasse 11.50 10.05 51.60
42612 2021-04-29 20:18:53 Terrasse 12.20 10.82 51.40
42611 2021-04-29 19:50:42 Terrasse 13.00 11.65 49.40
42610 2021-04-29 19:22:15 Terrasse 13.90 12.63 49.30
42609 2021-04-29 18:54:31 Terrasse 14.70 13.50 48.90
42608 2021-04-29 18:26:33 Terrasse 15.70 14.58 47.90
42607 2021-04-29 17:58:36 Terrasse 16.90 15.86 46.60
42606 2021-04-29 17:31:02 Terrasse 17.50 16.47 44.70
42605 2021-04-29 17:02:32 Terrasse 18.30 17.21 39.40
42604 2021-04-29 16:34:04 Terrasse 18.40 17.32 39.20
42603 2021-04-29 16:06:22 Terrasse 18.80 17.74 38.30
42602 2021-04-29 15:07:05 Terrasse 20.50 19.74 43.30
42601 2021-04-29 14:39:06 Terrasse 22.70 22.18 44.30
42600 2021-04-29 14:11:10 Terrasse 21.40 20.94 51.40
42599 2021-04-29 13:10:02 Terrasse 14.10 14.17 99.90
42598 2021-04-29 12:42:08 Terrasse 12.30 12.19 99.90
42597 2021-04-29 11:12:20 Terrasse 14.00 14.00 97.40
42596 2021-04-29 10:44:18 Terrasse 13.70 13.73 99.90
42595 2021-04-29 10:16:20 Terrasse 13.60 13.62 99.90
42594 2021-04-29 09:48:19 Terrasse 12.50 12.41 99.90
42593 2021-04-29 09:19:37 Terrasse 12.30 12.19 99.90
42592 2021-04-29 08:51:17 Terrasse 11.50 11.31 99.90
42591 2021-04-29 08:22:58 Terrasse 11.00 10.76 99.90
42590 2021-04-29 07:55:35 Terrasse 10.80 10.54 99.90
42589 2021-04-29 07:27:35 Terrasse 10.80 10.54 99.90
42588 2021-04-29 06:59:22 Terrasse 10.80 10.54 99.90
42587 2021-04-29 06:00:07 Terrasse 10.80 10.54 99.90
42586 2021-04-29 05:32:27 Terrasse 10.90 10.65 99.90
42585 2021-04-29 05:04:09 Terrasse 11.00 10.76 99.90
42584 2021-04-29 04:36:12 Terrasse 11.20 10.98 99.90
42583 2021-04-29 04:08:21 Terrasse 11.30 11.09 99.90
42582 2021-04-29 03:40:18 Terrasse 11.40 11.20 99.90
42581 2021-04-29 02:10:34 Terrasse 11.80 11.64 99.90
42580 2021-04-29 01:42:26 Terrasse 12.00 11.86 99.90
42579 2021-04-28 23:41:57 Terrasse 12.80 12.74 99.90
42578 2021-04-28 23:13:49 Terrasse 13.20 13.18 99.90
42577 2021-04-28 22:47:10 Terrasse 13.30 13.29 99.90
42576 2021-04-28 21:43:58 Terrasse 14.40 14.50 99.90
42575 2021-04-28 20:45:16 Terrasse 15.80 14.97 58.90
42574 2021-04-28 16:05:41 Terrasse 24.20 23.41 28.10
42573 2021-04-28 15:37:50 Terrasse 24.40 23.60 27.10
42572 2021-04-28 15:09:43 Terrasse 25.20 24.54 29.30
42571 2021-04-28 14:41:42 Terrasse 28.30 27.22 27.80
42570 2021-04-28 14:13:22 Terrasse 27.70 26.87 29.70
42569 2021-04-28 13:45:25 Terrasse 28.90 27.87 31.40
42568 2021-04-28 13:16:57 Terrasse 28.50 27.60 32.40
42567 2021-04-28 12:48:01 Terrasse 24.80 24.24 34.80
42566 2021-04-28 12:19:34 Terrasse 20.90 20.04 38.00
42565 2021-04-28 11:52:18 Terrasse 20.50 19.62 38.80
42564 2021-04-28 11:23:41 Terrasse 19.00 17.98 39.40
42563 2021-04-28 10:55:34 Terrasse 16.90 15.74 42.10
42562 2021-04-28 10:27:24 Terrasse 15.40 14.09 42.00
42561 2021-04-28 09:59:26 Terrasse 14.10 12.69 43.00
42560 2021-04-28 09:31:19 Terrasse 13.20 11.68 42.30
42559 2021-04-28 09:03:14 Terrasse 12.40 10.81 42.70
42558 2021-04-28 08:35:09 Terrasse 11.50 9.83 43.00
42557 2021-04-28 08:06:55 Terrasse 10.70 8.96 43.50
42556 2021-04-28 07:08:17 Terrasse 9.60 7.81 45.60
42555 2021-04-28 06:40:13 Terrasse 9.40 7.59 45.80
42554 2021-04-28 06:12:32 Terrasse 9.50 7.70 45.60
42553 2021-04-28 05:44:52 Terrasse 9.90 8.11 44.60
42552 2021-04-28 04:03:57 Terrasse 10.60 8.80 41.40
42551 2021-04-28 02:06:08 Terrasse 11.40 9.65 40.30
42550 2021-04-28 01:38:18 Terrasse 11.50 9.76 40.40
42549 2021-04-28 01:08:51 Terrasse 11.90 10.18 39.50
42548 2021-04-27 23:15:35 Terrasse 12.90 11.26 39.00
42547 2021-04-27 22:47:17 Terrasse 13.00 11.34 37.60
42546 2021-04-27 22:19:27 Terrasse 13.00 11.34 37.70
42545 2021-04-27 21:50:54 Terrasse 13.40 11.73 35.80
42544 2021-04-27 21:23:34 Terrasse 14.00 12.37 35.00
42543 2021-04-27 20:56:49 Terrasse 14.50 12.95 36.10
42542 2021-04-27 20:23:54 Terrasse 15.70 14.21 33.80
42541 2021-04-27 19:24:39 Terrasse 17.30 15.87 30.00
42540 2021-04-27 16:52:56 Terrasse 20.30 19.14 29.00
42539 2021-04-27 16:18:28 Terrasse 21.00 19.86 26.80
42538 2021-04-27 14:49:16 Terrasse 24.10 23.23 25.50
42537 2021-04-27 13:50:24 Terrasse 25.80 25.15 27.30
42536 2021-04-27 13:22:02 Terrasse 26.30 25.67 26.30
42535 2021-04-27 12:22:41 Terrasse 18.80 17.60 33.10
42534 2021-04-27 10:21:48 Terrasse 12.30 10.52 35.60
42533 2021-04-27 08:52:03 Terrasse 9.30 7.27 37.60
42532 2021-04-27 07:22:03 Terrasse 7.40 5.24 40.00
42531 2021-04-27 06:53:46 Terrasse 7.10 4.92 40.20
42530 2021-04-27 05:54:07 Terrasse 7.30 5.13 39.90
42529 2021-04-27 05:25:54 Terrasse 7.50 5.35 40.10
42528 2021-04-27 04:57:01 Terrasse 7.70 5.56 39.70
42527 2021-04-27 04:28:19 Terrasse 7.80 5.67 39.50
42526 2021-04-27 03:59:31 Terrasse 8.20 6.10 39.20
42525 2021-04-27 03:31:41 Terrasse 8.30 6.20 38.70
42524 2021-04-27 03:03:09 Terrasse 8.60 6.53 39.00
42523 2021-04-27 02:35:10 Terrasse 8.80 6.75 38.90
42522 2021-04-27 02:07:28 Terrasse 9.00 6.97 38.90
42521 2021-04-27 01:38:39 Terrasse 9.30 7.29 38.60
42520 2021-04-27 01:11:01 Terrasse 9.70 7.72 38.10
42519 2021-04-26 23:41:17 Terrasse 10.60 8.64 35.50
42518 2021-04-26 23:13:35 Terrasse 11.00 9.05 34.40
42517 2021-04-26 22:45:21 Terrasse 11.50 9.58 33.50
42516 2021-04-26 22:17:31 Terrasse 11.80 9.89 32.80
42515 2021-04-26 21:49:16 Terrasse 12.00 10.09 31.80
42514 2021-04-26 20:51:51 Terrasse 12.90 11.07 31.50
42513 2021-04-26 20:19:58 Terrasse 13.80 12.04 30.70
42512 2021-04-26 19:51:48 Terrasse 14.70 13.02 30.30
42511 2021-04-26 19:23:38 Terrasse 15.60 13.99 29.60
42510 2021-04-26 16:47:03 Terrasse 19.30 18.02 28.10
42509 2021-04-26 16:19:10 Terrasse 19.90 18.68 28.00
42508 2021-04-26 15:51:19 Terrasse 20.20 19.02 28.40
42507 2021-04-26 15:23:46 Terrasse 21.10 19.96 26.70
42506 2021-04-26 14:55:56 Terrasse 22.30 21.30 27.20
42505 2021-04-26 13:56:36 Terrasse 24.60 23.80 26.30
42504 2021-04-26 13:28:29 Terrasse 25.90 25.20 24.90
42503 2021-04-26 13:00:05 Terrasse 24.30 23.51 27.60
42502 2021-04-26 12:01:36 Terrasse 17.50 16.15 32.30
42501 2021-04-26 10:31:28 Terrasse 12.00 10.27 38.70
42500 2021-04-26 05:55:05 Terrasse 6.30 4.20 46.60
42499 2021-04-26 05:22:54 Terrasse 6.60 4.52 46.20
42498 2021-04-26 04:23:08 Terrasse 7.10 5.07 46.30
42497 2021-04-26 03:55:05 Terrasse 7.60 5.62 46.00
42496 2021-04-26 02:56:27 Terrasse 8.20 6.23 44.40
42495 2021-04-26 01:56:02 Terrasse 8.80 6.88 43.70
42494 2021-04-26 01:27:49 Terrasse 9.00 7.08 42.90
42493 2021-04-26 00:59:36 Terrasse 9.10 7.18 42.80
42492 2021-04-26 00:31:25 Terrasse 9.40 7.49 42.10
42491 2021-04-26 00:03:10 Terrasse 9.60 7.73 42.60
42490 2021-04-25 23:34:58 Terrasse 9.80 7.96 42.90
42489 2021-04-25 23:06:47 Terrasse 10.00 8.16 42.20
42488 2021-04-25 22:38:35 Terrasse 10.40 8.58 41.60
42487 2021-04-25 22:10:24 Terrasse 10.70 8.90 41.10
42486 2021-04-25 21:42:14 Terrasse 11.20 9.44 40.80
42485 2021-04-25 21:14:02 Terrasse 11.90 10.22 41.00
42484 2021-04-25 20:45:53 Terrasse 12.50 10.89 41.50
42483 2021-04-25 20:17:45 Terrasse 13.30 11.78 41.90
42482 2021-04-25 19:49:35 Terrasse 14.20 12.72 40.00
42481 2021-04-25 19:21:25 Terrasse 15.60 14.17 36.50
42480 2021-04-25 18:53:16 Terrasse 16.40 15.00 34.70
42479 2021-04-25 18:25:06 Terrasse 17.30 15.92 32.00
42478 2021-04-25 17:57:22 Terrasse 18.00 16.67 31.10
42477 2021-04-25 17:29:02 Terrasse 18.50 17.17 29.20
42476 2021-04-25 17:00:53 Terrasse 19.40 18.16 29.30
42475 2021-04-25 16:32:45 Terrasse 19.80 18.58 28.50
42474 2021-04-25 16:04:43 Terrasse 20.40 19.23 28.30
42473 2021-04-25 15:36:32 Terrasse 21.20 20.16 30.00
42472 2021-04-25 15:08:24 Terrasse 22.30 21.35 29.20
42471 2021-04-25 14:40:59 Terrasse 25.70 25.09 29.20
42470 2021-04-25 14:12:28 Terrasse 25.00 24.33 29.70
42469 2021-04-25 13:45:27 Terrasse 26.00 25.44 30.00
42468 2021-04-25 13:18:20 Terrasse 25.80 25.28 32.50
42467 2021-04-25 12:44:50 Terrasse 22.00 21.21 36.50
42466 2021-04-25 11:41:19 Terrasse 17.50 16.34 39.50
42465 2021-04-25 11:12:42 Terrasse 15.40 14.04 40.00
42464 2021-04-25 10:44:16 Terrasse 13.80 12.37 43.30
42463 2021-04-25 10:15:52 Terrasse 12.30 10.75 44.60
42462 2021-04-25 09:47:32 Terrasse 11.20 9.55 44.80
42461 2021-04-25 09:19:11 Terrasse 10.30 8.59 46.10
42460 2021-04-25 08:50:51 Terrasse 9.30 7.55 48.50
42459 2021-04-25 08:22:31 Terrasse 8.20 6.41 51.10
42458 2021-04-25 07:54:13 Terrasse 7.50 5.67 52.20
42457 2021-04-25 07:25:57 Terrasse 6.90 5.03 53.10
42456 2021-04-25 06:57:43 Terrasse 6.70 4.81 53.20
42455 2021-04-25 06:29:30 Terrasse 6.80 4.92 52.90
42454 2021-04-25 06:02:29 Terrasse 7.00 5.13 52.60
42453 2021-04-25 05:34:03 Terrasse 7.40 5.54 51.60
42452 2021-04-25 05:06:04 Terrasse 7.80 5.98 51.40
42451 2021-04-25 04:37:56 Terrasse 8.00 6.19 51.30
42450 2021-04-25 03:39:22 Terrasse 8.50 6.76 51.80
42449 2021-04-25 03:11:48 Terrasse 8.70 6.96 51.10
42448 2021-04-25 02:43:20 Terrasse 9.30 7.59 50.10
42447 2021-04-25 02:15:41 Terrasse 9.50 7.80 49.60
42446 2021-04-25 01:47:35 Terrasse 9.80 8.12 49.20
42445 2021-04-25 01:19:26 Terrasse 10.10 8.41 47.50
42444 2021-04-25 00:23:41 Terrasse 10.70 9.07 47.50
42443 2021-04-24 23:55:20 Terrasse 11.20 9.60 46.90
42442 2021-04-24 23:27:15 Terrasse 11.40 9.84 47.70
42441 2021-04-24 22:59:02 Terrasse 11.90 10.41 48.30
42440 2021-04-24 22:30:49 Terrasse 12.20 10.73 48.10
42439 2021-04-24 22:02:37 Terrasse 12.70 11.25 46.80
42438 2021-04-24 21:34:25 Terrasse 13.20 11.75 44.90
42437 2021-04-24 21:06:14 Terrasse 13.60 12.17 44.30
42436 2021-04-24 20:38:05 Terrasse 14.50 13.14 43.40
42435 2021-04-24 20:09:58 Terrasse 15.60 14.27 40.40
42434 2021-04-24 19:42:25 Terrasse 16.30 14.98 38.00
42433 2021-04-24 19:13:55 Terrasse 17.30 16.05 37.10
42432 2021-04-24 18:45:45 Terrasse 18.10 16.90 35.70
42431 2021-04-24 18:17:35 Terrasse 18.80 17.60 33.00
42430 2021-04-24 17:49:25 Terrasse 19.40 18.27 33.60
42429 2021-04-24 17:21:17 Terrasse 20.00 18.95 34.40
42428 2021-04-24 16:53:47 Terrasse 20.90 20.00 36.50
42427 2021-04-24 16:25:17 Terrasse 21.60 20.75 35.70
42426 2021-04-24 15:22:41 Terrasse 22.30 21.52 35.70
42425 2021-04-24 14:54:35 Terrasse 23.30 22.61 35.40
42424 2021-04-24 14:26:27 Terrasse 25.30 24.75 33.30
42423 2021-04-24 13:58:33 Terrasse 25.20 24.71 35.70
42422 2021-04-24 13:32:30 Terrasse 26.30 25.91 35.50
42421 2021-04-24 12:53:15 Terrasse 23.40 22.76 36.80
42420 2021-04-24 12:24:44 Terrasse 19.60 18.72 42.40
42419 2021-04-24 11:56:32 Terrasse 19.20 18.31 43.30
42418 2021-04-24 11:28:06 Terrasse 17.60 16.60 45.20
42417 2021-04-24 10:59:37 Terrasse 15.70 14.52 45.80
42416 2021-04-24 10:31:13 Terrasse 13.90 12.58 47.20
42415 2021-04-24 10:02:53 Terrasse 12.80 11.41 48.70
42414 2021-04-24 09:34:35 Terrasse 11.90 10.43 49.20
42413 2021-04-24 09:06:16 Terrasse 11.00 9.49 51.20
42412 2021-04-24 08:37:55 Terrasse 9.90 8.34 53.40
42411 2021-04-24 08:09:34 Terrasse 8.90 7.30 55.80
42410 2021-04-24 07:41:35 Terrasse 8.30 6.65 56.00
42409 2021-04-24 07:13:33 Terrasse 8.00 6.33 56.30
42408 2021-04-24 06:45:45 Terrasse 8.00 6.31 55.60
42407 2021-04-24 06:17:36 Terrasse 8.10 6.40 55.10
42406 2021-04-24 05:49:35 Terrasse 8.30 6.61 54.70
42405 2021-04-24 05:21:50 Terrasse 8.40 6.72 54.70
42404 2021-04-24 04:53:51 Terrasse 9.00 7.34 53.10
42403 2021-04-24 04:25:54 Terrasse 9.00 7.34 53.10
42402 2021-04-24 03:57:44 Terrasse 9.20 7.55 52.80
42401 2021-04-24 03:29:43 Terrasse 9.40 7.75 51.90
42400 2021-04-24 03:01:56 Terrasse 9.40 7.76 52.20
42399 2021-04-24 02:33:32 Terrasse 9.50 7.86 51.90
42398 2021-04-24 02:05:35 Terrasse 9.60 7.97 52.00
42397 2021-04-24 01:37:33 Terrasse 9.80 8.20 52.20
42396 2021-04-24 01:09:33 Terrasse 10.20 8.58 49.80
42395 2021-04-24 00:41:28 Terrasse 10.50 8.90 49.60
42394 2021-04-24 00:13:30 Terrasse 10.70 9.09 48.60
42393 2021-04-23 23:45:43 Terrasse 11.00 9.42 48.30
42392 2021-04-23 23:17:18 Terrasse 10.90 9.32 48.80
42391 2021-04-23 22:49:08 Terrasse 11.20 9.65 48.90
42390 2021-04-23 22:20:57 Terrasse 11.70 10.19 48.50
42389 2021-04-23 21:52:46 Terrasse 12.20 10.71 47.40
42388 2021-04-23 21:24:54 Terrasse 12.70 11.25 46.90
42387 2021-04-23 20:56:40 Terrasse 13.60 12.21 45.90
42386 2021-04-23 20:28:32 Terrasse 14.50 13.12 42.80
42385 2021-04-23 20:00:24 Terrasse 15.60 14.27 40.40
42384 2021-04-23 19:32:13 Terrasse 16.30 15.01 39.10
42383 2021-04-23 19:04:02 Terrasse 17.00 15.76 38.60
42382 2021-04-23 18:35:52 Terrasse 17.60 16.38 36.80
42381 2021-04-23 18:07:43 Terrasse 18.50 17.37 37.00
42380 2021-04-23 17:39:31 Terrasse 18.90 17.82 37.20
42379 2021-04-23 17:11:22 Terrasse 19.50 18.46 36.40
42378 2021-04-23 16:43:11 Terrasse 20.10 19.13 37.00
42377 2021-04-23 16:14:59 Terrasse 20.20 19.26 37.70
42376 2021-04-23 15:46:47 Terrasse 20.40 19.44 36.20
42375 2021-04-23 15:18:43 Terrasse 21.90 21.11 37.10
42374 2021-04-23 14:50:50 Terrasse 24.00 23.36 34.60
42373 2021-04-23 14:22:37 Terrasse 24.90 24.34 34.20
42372 2021-04-23 13:54:39 Terrasse 24.20 23.59 35.10
42371 2021-04-23 13:26:29 Terrasse 25.40 24.97 37.20
42370 2021-04-23 12:57:50 Terrasse 23.60 23.03 38.80
42369 2021-04-23 12:29:07 Terrasse 18.50 17.58 44.80
42368 2021-04-23 12:00:55 Terrasse 17.30 16.31 47.00
42367 2021-04-23 11:32:32 Terrasse 15.90 14.79 47.50
42366 2021-04-23 11:03:58 Terrasse 13.50 12.27 52.10
42365 2021-04-23 10:35:34 Terrasse 11.70 10.32 53.40
42364 2021-04-23 10:07:15 Terrasse 10.60 9.16 55.20
42363 2021-04-23 09:38:57 Terrasse 9.80 8.36 58.40
42362 2021-04-23 09:10:38 Terrasse 9.00 7.55 60.90
42361 2021-04-23 08:42:20 Terrasse 8.10 6.79 69.90
42360 2021-04-23 08:14:02 Terrasse 7.20 5.62 63.10
42359 2021-04-23 07:45:56 Terrasse 6.30 4.73 66.70
42358 2021-04-23 07:17:44 Terrasse 5.90 4.27 66.00
42357 2021-04-23 06:49:32 Terrasse 5.80 4.07 62.70
42356 2021-04-23 06:21:25 Terrasse 5.80 4.03 60.90
42355 2021-04-23 05:53:22 Terrasse 6.20 4.43 59.40
42354 2021-04-23 05:25:11 Terrasse 6.60 4.83 58.10
42353 2021-04-23 04:57:03 Terrasse 7.00 5.25 57.40
42352 2021-04-23 04:28:53 Terrasse 6.80 5.04 57.50
42351 2021-04-23 04:00:39 Terrasse 6.90 5.14 57.10
42350 2021-04-23 03:32:33 Terrasse 7.10 5.34 56.40
42349 2021-04-23 03:04:24 Terrasse 7.30 5.54 55.70
42348 2021-04-23 02:36:12 Terrasse 7.60 5.84 54.70
42347 2021-04-23 02:08:01 Terrasse 7.70 5.94 54.00
42346 2021-04-23 01:39:54 Terrasse 8.20 6.48 53.80
42345 2021-04-23 01:11:40 Terrasse 8.50 6.77 52.20
42344 2021-04-23 00:43:31 Terrasse 8.90 7.19 51.50
42343 2021-04-23 00:15:21 Terrasse 9.30 7.60 50.40
42342 2021-04-22 23:47:11 Terrasse 9.70 8.03 50.10
42341 2021-04-22 23:19:00 Terrasse 10.10 8.42 47.90
42340 2021-04-22 22:50:50 Terrasse 10.40 8.73 47.10
42339 2021-04-22 22:22:39 Terrasse 10.60 8.92 46.30
42338 2021-04-22 21:54:29 Terrasse 11.10 9.48 46.40
42337 2021-04-22 21:26:25 Terrasse 12.00 10.42 44.70
42336 2021-04-22 20:58:22 Terrasse 12.60 11.04 43.00
42335 2021-04-22 20:30:17 Terrasse 13.30 11.79 42.20
42334 2021-04-22 20:02:10 Terrasse 14.00 12.53 41.00
42333 2021-04-22 19:33:53 Terrasse 14.60 13.17 40.50
42332 2021-04-22 19:05:44 Terrasse 15.30 13.92 39.70
42331 2021-04-22 18:37:44 Terrasse 15.90 14.56 38.90
42330 2021-04-22 18:09:31 Terrasse 16.60 15.31 38.00
42329 2021-04-22 17:41:21 Terrasse 17.20 15.93 36.50
42328 2021-04-22 17:13:09 Terrasse 17.80 16.57 35.70
42327 2021-04-22 16:44:58 Terrasse 18.20 16.99 34.90
42326 2021-04-22 16:16:50 Terrasse 18.60 17.41 34.40
42325 2021-04-22 15:48:42 Terrasse 19.40 18.30 34.80
42324 2021-04-22 15:20:37 Terrasse 20.30 19.29 34.60
42323 2021-04-22 14:52:43 Terrasse 22.10 21.21 32.50
42322 2021-04-22 14:24:34 Terrasse 23.20 22.44 33.10
42321 2021-04-22 13:56:26 Terrasse 22.20 21.37 34.20
42320 2021-04-22 13:28:18 Terrasse 23.00 22.22 33.20
42319 2021-04-22 12:59:55 Terrasse 21.50 20.64 35.80
42318 2021-04-22 12:31:23 Terrasse 17.50 16.37 40.80
42317 2021-04-22 12:03:16 Terrasse 16.30 15.07 41.40
42316 2021-04-22 11:34:51 Terrasse 13.80 12.42 45.40
42315 2021-04-22 11:06:36 Terrasse 12.30 10.81 46.80
42314 2021-04-22 10:38:28 Terrasse 11.30 9.79 50.10
42313 2021-04-22 10:10:03 Terrasse 10.20 8.61 51.20
42312 2021-04-22 09:41:55 Terrasse 8.90 7.26 54.20
42311 2021-04-22 09:13:35 Terrasse 8.00 6.32 56.10
42310 2021-04-22 08:45:21 Terrasse 7.20 5.48 57.50
42309 2021-04-22 08:17:10 Terrasse 6.50 4.73 58.50
42308 2021-04-22 07:48:59 Terrasse 6.20 4.43 59.60
42307 2021-04-22 07:20:47 Terrasse 6.30 4.53 59.00
42306 2021-04-22 06:52:37 Terrasse 6.40 4.72 62.40
42305 2021-04-22 06:24:36 Terrasse 6.50 4.93 65.90
42304 2021-04-22 05:56:38 Terrasse 6.50 4.97 67.50
42303 2021-04-22 05:28:22 Terrasse 6.80 5.30 67.70
42302 2021-04-22 05:00:13 Terrasse 7.60 6.10 64.70
42301 2021-04-22 04:32:02 Terrasse 8.30 6.85 63.60
42300 2021-04-22 04:03:52 Terrasse 8.70 7.41 68.30
42299 2021-04-22 03:35:43 Terrasse 9.00 8.04 79.90
42298 2021-04-22 03:07:40 Terrasse 9.50 8.48 75.70
42297 2021-04-22 02:39:28 Terrasse 9.80 8.83 76.50
42296 2021-04-22 02:11:20 Terrasse 10.10 9.19 77.40
42295 2021-04-22 01:43:11 Terrasse 10.50 9.68 79.40
42294 2021-04-22 01:15:07 Terrasse 11.00 10.13 75.80
42293 2021-04-22 00:46:55 Terrasse 11.40 10.43 70.30
42292 2021-04-22 00:18:50 Terrasse 11.70 10.62 64.90
42291 2021-04-21 23:50:45 Terrasse 12.10 10.95 60.70
42290 2021-04-21 23:22:31 Terrasse 12.40 11.23 58.80
42289 2021-04-21 22:54:46 Terrasse 12.40 11.22 58.40
42288 2021-04-21 22:26:20 Terrasse 12.30 11.18 61.00
42287 2021-04-21 21:58:09 Terrasse 12.80 11.72 60.60
42286 2021-04-21 21:30:00 Terrasse 13.20 12.12 59.10
42285 2021-04-21 21:01:50 Terrasse 14.00 12.96 57.50
42284 2021-04-21 20:33:40 Terrasse 14.90 13.92 56.40
42283 2021-04-21 20:05:32 Terrasse 15.70 14.67 51.60
42282 2021-04-21 19:37:33 Terrasse 16.50 15.58 52.50
42281 2021-04-21 19:09:19 Terrasse 17.00 16.05 49.60
42280 2021-04-21 18:41:09 Terrasse 17.80 16.92 49.10
42279 2021-04-21 18:12:56 Terrasse 18.00 17.20 51.60
42278 2021-04-21 17:44:46 Terrasse 18.50 17.76 51.90
42277 2021-04-21 17:16:41 Terrasse 19.80 19.09 48.10
42276 2021-04-21 16:48:30 Terrasse 20.30 19.58 45.60
42275 2021-04-21 16:20:20 Terrasse 21.40 20.87 48.80
42274 2021-04-21 15:52:07 Terrasse 21.50 20.95 47.60
42273 2021-04-21 15:23:52 Terrasse 21.00 20.39 47.40
42272 2021-04-21 14:55:36 Terrasse 20.50 19.84 47.40
42271 2021-04-21 14:27:35 Terrasse 21.00 20.39 47.10
42270 2021-04-21 13:59:15 Terrasse 19.40 18.65 48.10
42269 2021-04-21 13:31:29 Terrasse 23.20 22.76 45.40
42268 2021-04-21 13:02:53 Terrasse 18.50 17.79 52.90
42267 2021-04-21 12:34:07 Terrasse 15.90 15.19 62.90
42266 2021-04-21 12:05:54 Terrasse 16.00 15.42 67.40
42265 2021-04-21 11:37:42 Terrasse 15.80 15.07 62.70
42264 2021-04-21 11:09:22 Terrasse 15.60 14.89 64.20
42263 2021-04-21 10:41:02 Terrasse 15.50 15.07 75.40
42262 2021-04-21 10:12:42 Terrasse 14.00 13.83 90.90
42261 2021-04-21 09:44:21 Terrasse 12.50 12.38 98.70
42260 2021-04-21 09:16:02 Terrasse 11.40 11.20 99.90
42259 2021-04-21 08:47:44 Terrasse 10.50 10.21 99.90
42258 2021-04-21 08:19:26 Terrasse 9.50 9.11 99.90
42257 2021-04-21 07:51:07 Terrasse 8.70 8.23 99.90
42256 2021-04-21 07:22:53 Terrasse 8.40 7.90 99.90
42255 2021-04-21 06:54:39 Terrasse 8.10 7.57 99.90
42254 2021-04-21 06:26:25 Terrasse 8.10 7.57 99.90
42253 2021-04-21 05:58:14 Terrasse 8.20 7.68 99.90
42252 2021-04-21 05:30:03 Terrasse 8.40 7.90 99.90
42251 2021-04-21 05:01:50 Terrasse 8.70 8.23 99.90
42250 2021-04-21 04:33:40 Terrasse 9.10 8.67 99.90
42249 2021-04-21 04:05:28 Terrasse 9.40 9.00 99.90
42248 2021-04-21 03:37:17 Terrasse 9.60 9.22 99.90
42247 2021-04-21 03:09:07 Terrasse 9.80 9.44 99.90
42246 2021-04-21 02:40:54 Terrasse 10.00 9.66 99.90
42245 2021-04-21 02:12:42 Terrasse 10.20 9.84 98.40
42244 2021-04-21 01:44:32 Terrasse 10.60 10.14 92.70
42243 2021-04-21 01:16:20 Terrasse 10.80 10.03 80.30
42242 2021-04-21 00:48:09 Terrasse 11.20 10.17 68.70
42241 2021-04-21 00:19:59 Terrasse 11.70 10.56 62.60
42240 2021-04-20 23:51:49 Terrasse 12.20 11.05 60.40
42239 2021-04-20 23:23:37 Terrasse 12.50 11.35 59.00
42238 2021-04-20 22:55:25 Terrasse 12.80 11.62 57.00
42237 2021-04-20 22:27:13 Terrasse 12.90 11.69 55.20
42236 2021-04-20 21:31:01 Terrasse 13.50 12.31 53.90
42235 2021-04-20 21:02:52 Terrasse 14.30 13.19 53.70
42234 2021-04-20 20:34:59 Terrasse 15.20 14.17 53.40
42233 2021-04-20 20:06:52 Terrasse 16.20 15.15 48.80
42232 2021-04-20 19:38:40 Terrasse 16.80 15.77 47.40
42231 2021-04-20 19:10:30 Terrasse 17.30 16.34 48.10
42230 2021-04-20 18:42:19 Terrasse 17.80 16.90 48.30
42229 2021-04-20 18:14:09 Terrasse 18.80 17.95 46.40
42228 2021-04-20 17:46:05 Terrasse 19.50 18.67 44.60
42227 2021-04-20 17:17:49 Terrasse 19.90 19.11 44.50
42226 2021-04-20 16:49:38 Terrasse 20.30 19.53 43.70
42225 2021-04-20 16:21:34 Terrasse 20.60 19.85 43.40
42224 2021-04-20 15:53:26 Terrasse 20.20 19.42 43.90
42223 2021-04-20 15:25:27 Terrasse 22.30 21.74 44.30
42222 2021-04-20 14:57:26 Terrasse 23.80 23.33 41.80
42221 2021-04-20 14:29:11 Terrasse 25.10 24.78 42.50
42220 2021-04-20 14:00:52 Terrasse 23.90 23.57 46.80
42219 2021-04-20 13:32:45 Terrasse 24.90 24.67 46.80
42218 2021-04-20 13:04:09 Terrasse 23.30 22.95 48.30
42217 2021-04-20 12:35:24 Terrasse 19.50 18.91 53.70
42216 2021-04-20 12:07:14 Terrasse 17.70 17.05 58.20
42215 2021-04-20 11:38:56 Terrasse 16.60 15.88 60.00
42214 2021-04-20 11:10:24 Terrasse 14.60 14.06 74.50
42213 2021-04-20 10:42:18 Terrasse 12.90 12.69 93.50
42212 2021-04-20 10:13:50 Terrasse 11.50 11.31 99.90
42211 2021-04-20 09:45:39 Terrasse 10.40 10.10 99.90
42210 2021-04-20 09:17:35 Terrasse 9.30 8.89 99.90
42209 2021-04-20 08:49:47 Terrasse 8.30 7.79 99.90
42208 2021-04-20 08:21:42 Terrasse 7.30 6.69 99.90
42207 2021-04-20 07:53:41 Terrasse 6.50 5.81 99.90
42206 2021-04-20 07:25:16 Terrasse 6.00 5.26 99.90
42205 2021-04-20 06:57:03 Terrasse 5.90 5.15 99.90
42204 2021-04-20 06:28:53 Terrasse 6.00 5.26 99.90
42203 2021-04-20 06:00:43 Terrasse 6.30 5.59 99.90
42202 2021-04-20 05:32:39 Terrasse 6.50 5.81 99.90
42201 2021-04-20 05:04:27 Terrasse 6.50 5.81 99.90
42200 2021-04-20 04:36:17 Terrasse 6.60 5.92 99.90
42199 2021-04-20 04:08:07 Terrasse 6.60 5.92 99.90
42198 2021-04-20 03:40:10 Terrasse 6.70 6.03 99.90
42197 2021-04-20 03:12:04 Terrasse 7.00 6.36 99.90
42196 2021-04-20 02:43:54 Terrasse 7.20 6.58 99.90
42195 2021-04-20 02:15:51 Terrasse 7.40 6.80 99.90
42194 2021-04-20 01:47:40 Terrasse 7.60 7.02 99.90
42193 2021-04-20 01:19:34 Terrasse 7.90 7.35 99.90
42192 2021-04-20 00:51:25 Terrasse 8.20 7.68 99.90
42191 2021-04-20 00:23:25 Terrasse 8.40 7.90 99.90
42190 2021-04-19 23:55:20 Terrasse 8.70 8.23 99.90
42189 2021-04-19 23:27:19 Terrasse 8.80 8.34 99.90
42188 2021-04-19 22:59:05 Terrasse 9.10 8.67 99.90
42187 2021-04-19 22:30:57 Terrasse 9.40 9.00 99.90
42186 2021-04-19 22:02:48 Terrasse 10.00 9.66 99.90
42185 2021-04-19 21:34:39 Terrasse 10.50 10.21 99.90
42184 2021-04-19 21:06:32 Terrasse 10.90 10.65 99.90
42183 2021-04-19 20:38:26 Terrasse 11.50 11.31 99.90
42182 2021-04-19 20:10:18 Terrasse 12.20 11.86 91.50
42181 2021-04-19 19:42:10 Terrasse 12.90 12.12 71.80
42180 2021-04-19 19:14:00 Terrasse 13.40 12.56 67.50
42179 2021-04-19 18:45:49 Terrasse 13.70 12.79 63.70
42178 2021-04-19 18:17:40 Terrasse 14.60 13.78 63.80
42177 2021-04-19 17:49:29 Terrasse 15.00 14.18 62.30
42176 2021-04-19 17:21:19 Terrasse 15.70 14.89 59.80
42175 2021-04-19 16:53:04 Terrasse 15.70 14.84 57.90
42174 2021-04-19 16:24:51 Terrasse 15.60 14.78 59.90
42173 2021-04-19 15:56:42 Terrasse 16.30 15.52 58.90
42172 2021-04-19 15:28:21 Terrasse 15.20 14.37 61.10
42171 2021-04-19 15:00:07 Terrasse 14.70 13.99 67.70
42170 2021-04-19 14:31:54 Terrasse 14.80 14.17 70.30
42169 2021-04-19 14:03:48 Terrasse 15.40 14.71 65.50
42168 2021-04-19 13:35:28 Terrasse 13.90 13.29 74.40
42167 2021-04-19 13:07:15 Terrasse 14.20 13.78 80.70
42166 2021-04-19 12:39:07 Terrasse 15.00 14.54 75.90
42165 2021-04-19 12:10:56 Terrasse 15.80 15.35 73.30
42164 2021-04-19 11:42:30 Terrasse 14.00 13.92 94.50
42163 2021-04-19 11:14:12 Terrasse 13.90 13.95 99.90
42162 2021-04-19 10:45:47 Terrasse 11.90 11.75 99.90
42161 2021-04-19 10:17:27 Terrasse 10.20 9.88 99.90
42160 2021-04-19 09:49:10 Terrasse 9.70 9.33 99.90
42159 2021-04-19 09:20:54 Terrasse 9.30 8.89 99.90
42158 2021-04-19 08:52:37 Terrasse 8.50 8.01 99.90
42157 2021-04-19 08:24:22 Terrasse 8.10 7.57 99.90
42156 2021-04-19 07:56:07 Terrasse 7.50 6.91 99.90
42155 2021-04-19 07:27:55 Terrasse 7.20 6.58 99.90
42154 2021-04-19 06:59:43 Terrasse 7.40 6.80 99.90
42153 2021-04-19 06:31:32 Terrasse 7.70 7.13 99.90
42152 2021-04-19 06:03:22 Terrasse 7.80 7.24 99.90
42151 2021-04-19 05:35:10 Terrasse 7.80 7.24 99.90
42150 2021-04-19 05:07:00 Terrasse 7.80 7.24 99.90
42149 2021-04-19 04:38:50 Terrasse 7.90 7.35 99.90
42148 2021-04-19 04:10:39 Terrasse 7.80 7.24 99.90
42147 2021-04-19 03:42:28 Terrasse 7.90 7.35 99.90
42146 2021-04-19 03:14:16 Terrasse 8.00 7.46 99.90
42145 2021-04-19 02:46:07 Terrasse 8.20 7.68 99.90
42144 2021-04-19 02:17:56 Terrasse 8.30 7.79 99.90
42143 2021-04-19 01:49:45 Terrasse 8.40 7.90 99.90
42142 2021-04-19 01:21:32 Terrasse 8.60 8.12 99.90
42141 2021-04-19 00:53:22 Terrasse 8.60 8.12 99.90
42140 2021-04-19 00:25:11 Terrasse 8.80 8.34 99.90
42139 2021-04-18 23:56:59 Terrasse 9.00 8.56 99.90
42138 2021-04-18 23:28:46 Terrasse 9.10 8.67 99.90
42137 2021-04-18 23:00:35 Terrasse 9.40 9.00 99.90
42136 2021-04-18 22:32:27 Terrasse 9.40 9.00 99.90
42135 2021-04-18 22:04:47 Terrasse 9.40 9.00 99.90
42134 2021-04-18 21:36:21 Terrasse 9.50 9.11 99.90
42133 2021-04-18 21:08:09 Terrasse 9.50 9.11 99.90
42132 2021-04-18 20:39:57 Terrasse 9.90 9.55 99.90
42131 2021-04-18 20:11:47 Terrasse 10.40 10.10 99.90
42130 2021-04-18 19:43:37 Terrasse 11.00 10.76 99.90
42129 2021-04-18 19:15:30 Terrasse 11.50 11.31 99.90
42128 2021-04-18 18:47:18 Terrasse 12.20 12.08 99.90
42127 2021-04-18 18:19:04 Terrasse 12.20 11.94 94.20
42126 2021-04-18 17:50:51 Terrasse 12.10 11.64 87.10
42125 2021-04-18 17:22:40 Terrasse 12.60 12.16 85.80
42124 2021-04-18 16:56:53 Terrasse 12.60 12.52 99.70
42123 2021-04-18 14:44:29 Terrasse 10.60 10.32 99.90
42122 2021-04-18 14:16:16 Terrasse 10.20 9.88 99.90
42121 2021-04-18 13:48:03 Terrasse 10.10 9.77 99.90
42120 2021-04-18 13:19:51 Terrasse 10.00 9.66 99.90
42119 2021-04-18 12:51:33 Terrasse 8.80 8.34 99.90
42118 2021-04-18 12:23:22 Terrasse 8.60 8.12 99.90
42117 2021-04-18 11:55:09 Terrasse 8.50 8.01 99.90
42116 2021-04-18 11:27:11 Terrasse 8.80 8.34 99.90
42115 2021-04-18 10:28:13 Terrasse 8.30 7.79 99.90
42114 2021-04-18 10:00:03 Terrasse 8.00 7.46 99.90
42113 2021-04-18 09:31:50 Terrasse 7.60 7.02 99.90
42112 2021-04-18 09:04:09 Terrasse 7.30 6.69 99.90
42111 2021-04-18 08:35:48 Terrasse 7.60 7.02 99.90
42110 2021-04-18 08:07:36 Terrasse 7.70 7.13 99.90
42109 2021-04-18 01:18:48 Terrasse 8.00 6.42 59.80
42108 2021-04-18 00:50:37 Terrasse 8.30 6.72 58.70
42107 2021-04-18 00:22:26 Terrasse 8.40 6.80 57.70
42106 2021-04-17 23:54:15 Terrasse 8.40 6.79 57.20
42105 2021-04-17 23:26:05 Terrasse 8.50 6.87 56.20
42104 2021-04-17 22:58:25 Terrasse 8.50 6.85 55.30
42103 2021-04-17 22:30:03 Terrasse 8.90 7.28 55.00
42102 2021-04-17 22:01:53 Terrasse 8.70 7.04 54.20
42101 2021-04-17 21:34:13 Terrasse 8.80 7.14 53.80
42100 2021-04-17 21:05:48 Terrasse 9.00 7.33 52.80
42099 2021-04-17 20:37:45 Terrasse 9.20 7.54 52.40
42098 2021-04-17 20:09:41 Terrasse 9.50 7.86 51.90
42097 2021-04-17 18:22:33 Terrasse 10.80 9.24 50.10
42096 2021-04-17 17:54:21 Terrasse 10.60 8.99 49.00
42095 2021-04-17 17:26:09 Terrasse 10.50 8.89 49.10
42094 2021-04-17 16:58:08 Terrasse 10.80 9.23 49.60
42093 2021-04-17 15:59:39 Terrasse 12.10 10.58 46.70
42092 2021-04-17 15:31:36 Terrasse 13.70 12.30 45.00
42091 2021-04-17 15:03:17 Terrasse 12.80 11.37 47.40
42090 2021-04-17 14:35:08 Terrasse 13.10 11.64 45.10
42089 2021-04-17 14:07:04 Terrasse 14.20 12.76 41.70
42088 2021-04-17 13:39:00 Terrasse 15.70 14.41 41.70
42087 2021-04-17 13:11:06 Terrasse 16.90 15.72 41.20
42086 2021-04-17 12:42:53 Terrasse 14.90 13.58 43.60
42085 2021-04-17 12:14:40 Terrasse 14.00 12.62 44.70
42084 2021-04-17 11:46:43 Terrasse 13.20 11.79 46.40
42083 2021-04-17 11:18:50 Terrasse 13.20 11.85 48.70
42082 2021-04-17 10:50:25 Terrasse 10.90 9.41 52.30
42081 2021-04-17 10:22:23 Terrasse 9.70 8.19 55.90
42080 2021-04-17 09:54:01 Terrasse 9.10 7.59 58.40
42079 2021-04-17 09:26:03 Terrasse 7.70 6.08 59.60
42078 2021-04-17 08:58:52 Terrasse 7.40 5.80 61.30
42077 2021-04-17 08:30:44 Terrasse 6.70 5.08 63.40
42076 2021-04-17 07:01:00 Terrasse 5.70 4.06 66.50
42075 2021-04-16 23:50:24 Terrasse 6.30 4.88 72.50
42074 2021-04-16 23:22:39 Terrasse 6.40 4.91 69.60
42073 2021-04-16 22:54:40 Terrasse 6.60 5.05 66.50
42072 2021-04-16 21:58:49 Terrasse 7.20 5.66 64.50
42071 2021-04-16 21:01:28 Terrasse 7.80 6.20 60.00
42070 2021-04-16 20:30:09 Terrasse 8.10 6.48 58.00
42069 2021-04-16 20:02:03 Terrasse 8.10 6.44 56.30
42068 2021-04-16 19:34:07 Terrasse 8.60 7.01 57.10
42067 2021-04-16 19:06:12 Terrasse 9.00 7.41 55.60
42066 2021-04-16 18:37:56 Terrasse 9.30 7.73 55.20
42065 2021-04-16 18:10:21 Terrasse 9.60 8.02 53.90
42064 2021-04-16 17:42:27 Terrasse 9.90 8.39 55.30
42063 2021-04-16 17:14:22 Terrasse 10.20 8.68 53.80
42062 2021-04-16 16:46:23 Terrasse 10.70 9.21 52.90
42061 2021-04-16 16:18:10 Terrasse 10.00 8.44 53.10
42060 2021-04-16 15:49:57 Terrasse 9.00 7.48 58.50
42059 2021-04-16 15:21:57 Terrasse 10.20 8.68 53.80
42058 2021-04-16 14:53:49 Terrasse 9.80 8.28 55.40
42057 2021-04-16 14:25:43 Terrasse 9.90 8.31 52.40
42056 2021-04-16 13:57:37 Terrasse 9.90 8.26 50.20
42055 2021-04-16 13:29:41 Terrasse 10.00 8.33 48.90
42054 2021-04-16 13:01:45 Terrasse 10.10 8.45 49.30
42053 2021-04-16 12:33:56 Terrasse 10.70 9.12 49.60
42052 2021-04-16 12:06:38 Terrasse 11.90 10.40 48.00
42051 2021-04-16 11:37:41 Terrasse 10.20 8.67 53.30
42050 2021-04-16 10:39:01 Terrasse 7.70 6.12 61.10
42049 2021-04-16 09:09:38 Terrasse 5.80 4.29 70.90
42048 2021-04-16 06:39:48 Terrasse 4.10 2.94 91.10
42047 2021-04-16 06:11:31 Terrasse 4.00 3.01 97.80
42046 2021-04-16 03:11:51 Terrasse 4.80 3.40 79.00
42045 2021-04-16 01:13:48 Terrasse 4.40 2.54 62.80
42044 2021-04-16 00:41:43 Terrasse 4.70 2.81 60.50
42043 2021-04-15 23:43:32 Terrasse 5.10 3.22 59.40
42042 2021-04-15 22:45:36 Terrasse 5.60 3.71 57.30
42041 2021-04-15 22:17:28 Terrasse 5.80 3.89 55.80
42040 2021-04-15 21:49:57 Terrasse 6.10 4.23 56.10
42039 2021-04-15 21:22:06 Terrasse 6.30 4.44 55.80
42038 2021-04-15 20:54:01 Terrasse 6.80 4.95 54.20
42037 2021-04-15 19:23:49 Terrasse 8.80 6.98 47.70
42036 2021-04-15 18:55:48 Terrasse 9.30 7.59 49.90
42035 2021-04-15 18:28:04 Terrasse 10.10 8.38 46.50
42034 2021-04-15 17:59:51 Terrasse 10.50 8.80 45.80
42033 2021-04-15 17:32:14 Terrasse 10.20 8.46 45.40
42032 2021-04-15 17:03:59 Terrasse 11.70 10.03 42.40
42031 2021-04-15 16:35:46 Terrasse 11.50 9.85 43.70
42030 2021-04-15 16:07:53 Terrasse 12.70 11.18 44.30
42029 2021-04-15 15:39:33 Terrasse 11.90 10.39 47.80
42028 2021-04-15 15:11:14 Terrasse 10.50 9.11 57.50
42027 2021-04-15 14:43:09 Terrasse 9.80 8.21 52.70
42026 2021-04-15 14:14:47 Terrasse 8.70 6.99 52.30
42025 2021-04-15 13:46:42 Terrasse 9.00 7.32 52.10
42024 2021-04-15 13:18:48 Terrasse 9.50 7.86 51.70
42023 2021-04-15 12:50:32 Terrasse 8.80 7.12 53.20
42022 2021-04-15 12:23:01 Terrasse 8.80 7.17 54.80
42021 2021-04-15 11:54:47 Terrasse 9.30 7.71 54.40
42020 2021-04-15 11:26:34 Terrasse 10.50 9.01 53.90
42019 2021-04-15 10:58:19 Terrasse 8.60 7.04 58.50
42018 2021-04-15 10:30:06 Terrasse 8.40 6.93 62.60
42017 2021-04-15 10:01:49 Terrasse 7.20 5.76 68.20
42016 2021-04-15 09:33:31 Terrasse 5.90 4.74 83.90
42015 2021-04-15 09:05:17 Terrasse 5.00 4.06 95.90
42014 2021-04-15 08:37:02 Terrasse 4.00 3.06 99.90
42013 2021-04-15 08:08:48 Terrasse 3.10 2.07 99.90
42012 2021-04-15 07:40:36 Terrasse 2.50 1.41 99.90
42011 2021-04-15 07:12:26 Terrasse 2.30 1.19 99.90
42010 2021-04-15 06:44:17 Terrasse 2.10 0.97 99.90
42009 2021-04-15 06:16:08 Terrasse 2.20 1.08 99.90
42008 2021-04-15 05:48:50 Terrasse 2.50 1.41 99.90
42007 2021-04-15 05:20:11 Terrasse 2.60 1.52 99.90
42006 2021-04-15 04:52:02 Terrasse 2.70 1.63 99.90
42005 2021-04-15 04:23:55 Terrasse 2.80 1.74 99.90
42004 2021-04-15 03:55:47 Terrasse 3.10 2.07 99.90
42003 2021-04-15 03:27:38 Terrasse 3.00 1.96 99.90
42002 2021-04-15 02:59:30 Terrasse 3.30 2.29 99.90
42001 2021-04-15 02:31:21 Terrasse 3.40 2.40 99.90
42000 2021-04-15 02:03:13 Terrasse 3.60 2.60 99.10
41999 2021-04-15 01:35:03 Terrasse 3.90 2.81 94.30
41998 2021-04-15 01:06:56 Terrasse 4.00 2.86 92.10
41997 2021-04-15 00:38:47 Terrasse 4.10 3.00 93.30
41996 2021-04-15 00:10:39 Terrasse 4.40 3.16 86.80
41995 2021-04-14 23:43:09 Terrasse 4.60 3.06 74.30
41994 2021-04-14 23:14:43 Terrasse 4.50 2.89 72.00
41993 2021-04-14 22:46:35 Terrasse 4.70 2.94 65.70
41992 2021-04-14 22:18:29 Terrasse 5.00 3.18 62.40
41991 2021-04-14 21:50:23 Terrasse 5.30 3.47 60.50
41990 2021-04-14 21:22:17 Terrasse 5.80 4.01 60.20
41989 2021-04-14 20:54:10 Terrasse 6.30 4.51 58.40
41988 2021-04-14 20:26:05 Terrasse 6.90 5.08 55.10
41987 2021-04-14 19:57:57 Terrasse 7.30 5.44 52.00
41986 2021-04-14 19:29:52 Terrasse 7.90 6.06 50.40
41985 2021-04-14 19:01:44 Terrasse 8.20 6.43 52.00
41984 2021-04-14 18:33:37 Terrasse 8.30 6.62 55.10
41983 2021-04-14 18:06:20 Terrasse 9.00 7.40 55.40
41982 2021-04-14 17:37:47 Terrasse 10.20 8.42 43.90
41981 2021-04-14 17:09:41 Terrasse 10.90 9.15 42.40
41980 2021-04-14 16:41:31 Terrasse 10.90 9.14 41.80
41979 2021-04-14 16:13:21 Terrasse 10.40 8.56 40.60
41978 2021-04-14 15:45:14 Terrasse 10.50 8.84 47.10
41977 2021-04-14 15:17:04 Terrasse 11.50 9.78 41.00
41976 2021-04-14 14:49:06 Terrasse 12.00 10.29 39.60
41975 2021-04-14 14:20:51 Terrasse 14.20 12.65 37.40
41974 2021-04-14 13:52:19 Terrasse 11.00 9.37 46.50
41973 2021-04-14 13:24:21 Terrasse 10.70 8.97 43.90
41972 2021-04-14 12:55:37 Terrasse 10.30 8.52 43.50
41971 2021-04-14 12:27:35 Terrasse 10.70 8.95 42.90
41970 2021-04-14 11:59:14 Terrasse 7.30 5.39 49.80
41969 2021-04-14 11:31:14 Terrasse 8.50 6.71 50.00
41968 2021-04-14 11:02:56 Terrasse 7.40 5.60 53.60
41967 2021-04-14 10:34:43 Terrasse 7.10 5.33 56.10
41966 2021-04-14 10:06:31 Terrasse 6.60 4.83 58.00
41965 2021-04-14 09:38:17 Terrasse 6.10 4.34 60.30
41964 2021-04-14 09:10:05 Terrasse 5.00 3.41 71.00
41963 2021-04-14 08:41:52 Terrasse 4.50 3.42 92.50
41962 2021-04-14 08:13:39 Terrasse 4.00 3.06 99.90
41961 2021-04-14 07:45:26 Terrasse 3.20 2.18 99.90
41960 2021-04-14 07:17:16 Terrasse 2.70 1.63 99.90
41959 2021-04-14 06:49:08 Terrasse 2.70 1.63 99.90
41958 2021-04-14 06:21:01 Terrasse 3.00 1.96 99.90
41957 2021-04-14 05:52:53 Terrasse 3.30 2.29 99.90
41956 2021-04-14 05:24:45 Terrasse 3.40 2.36 98.30
41955 2021-04-14 04:56:36 Terrasse 3.60 2.44 93.00
41954 2021-04-14 04:28:27 Terrasse 3.60 2.28 86.80
41953 2021-04-14 04:00:19 Terrasse 3.70 2.31 83.70
41952 2021-04-14 03:32:11 Terrasse 3.90 2.38 78.00
41951 2021-04-14 03:04:03 Terrasse 3.90 2.35 76.90
41950 2021-04-14 02:35:54 Terrasse 4.00 2.46 76.90
41949 2021-04-14 02:07:45 Terrasse 4.00 2.34 72.20
41948 2021-04-14 01:39:36 Terrasse 4.30 2.58 68.80
41947 2021-04-14 01:11:27 Terrasse 4.40 2.62 66.20
41946 2021-04-14 00:43:19 Terrasse 4.40 2.60 65.40
41945 2021-04-14 00:15:11 Terrasse 4.50 2.68 64.10
41944 2021-04-13 23:47:03 Terrasse 4.70 2.89 63.80
41943 2021-04-13 23:18:56 Terrasse 4.80 3.00 63.80
41942 2021-04-13 22:50:49 Terrasse 5.10 3.33 63.80
41941 2021-04-13 22:22:42 Terrasse 5.50 3.73 62.40
41940 2021-04-13 21:54:35 Terrasse 5.90 4.13 60.60
41939 2021-04-13 21:26:30 Terrasse 6.20 4.45 60.30
41938 2021-04-13 20:58:22 Terrasse 6.50 4.76 59.40
41937 2021-04-13 20:30:16 Terrasse 6.90 5.15 57.60
41936 2021-04-13 20:02:11 Terrasse 7.40 5.64 55.50
41935 2021-04-13 19:34:05 Terrasse 7.90 6.19 55.20
41934 2021-04-13 19:06:00 Terrasse 8.50 6.85 55.40
41933 2021-04-13 18:37:56 Terrasse 9.20 7.55 52.50
41932 2021-04-13 18:09:49 Terrasse 9.90 8.22 48.70
41931 2021-04-13 17:41:38 Terrasse 9.80 8.15 50.30
41930 2021-04-13 17:13:32 Terrasse 9.90 8.15 46.30
41929 2021-04-13 16:45:26 Terrasse 10.40 8.69 45.90
41928 2021-04-13 16:17:28 Terrasse 12.20 10.67 45.90
41927 2021-04-13 15:49:18 Terrasse 12.50 10.95 43.80
41926 2021-04-13 15:21:13 Terrasse 11.10 9.50 47.40
41925 2021-04-13 14:52:58 Terrasse 11.10 9.54 49.00
41924 2021-04-13 14:24:55 Terrasse 12.70 11.34 50.30
41923 2021-04-13 13:56:30 Terrasse 9.70 8.20 56.30
41922 2021-04-13 13:28:31 Terrasse 11.20 9.76 52.90
41921 2021-04-13 13:00:16 Terrasse 8.20 6.76 64.40
41920 2021-04-13 12:32:09 Terrasse 8.80 7.27 58.80
41919 2021-04-13 12:03:57 Terrasse 8.30 6.75 59.90
41918 2021-04-13 11:35:34 Terrasse 7.00 5.45 64.80
41917 2021-04-13 11:07:30 Terrasse 7.70 6.28 67.30
41916 2021-04-13 10:39:13 Terrasse 6.90 5.51 71.50
41915 2021-04-13 10:11:05 Terrasse 4.90 3.84 91.70
41914 2021-04-13 09:42:50 Terrasse 4.80 3.79 94.00
41913 2021-04-13 09:14:35 Terrasse 4.00 2.91 94.10
41912 2021-04-13 08:46:21 Terrasse 3.00 1.96 99.90
41911 2021-04-13 08:18:11 Terrasse 1.90 0.75 99.90
41910 2021-04-13 07:50:20 Terrasse 1.40 0.20 99.90
41909 2021-04-13 07:22:16 Terrasse 1.30 0.09 99.90
41908 2021-04-13 06:54:16 Terrasse 1.40 0.20 99.90
41907 2021-04-13 06:26:18 Terrasse 1.50 0.31 99.90
41906 2021-04-13 05:27:44 Terrasse 2.10 0.97 99.90
41905 2021-04-13 04:59:38 Terrasse 1.80 0.64 99.90
41904 2021-04-13 04:31:35 Terrasse 2.20 1.08 99.90
41903 2021-04-13 04:03:24 Terrasse 2.30 1.19 99.90
41902 2021-04-13 03:35:20 Terrasse 2.40 1.30 99.90
41901 2021-04-13 03:07:11 Terrasse 2.40 1.30 99.90
41900 2021-04-13 02:39:07 Terrasse 2.40 1.30 99.90
41899 2021-04-13 02:10:56 Terrasse 2.40 1.30 99.90
41898 2021-04-13 01:42:52 Terrasse 2.40 1.30 99.90
41897 2021-04-13 01:14:59 Terrasse 2.30 1.19 99.90
41896 2021-04-13 00:46:49 Terrasse 2.60 1.52 99.90
41895 2021-04-13 00:18:41 Terrasse 2.60 1.52 99.90
41894 2021-04-12 23:50:32 Terrasse 2.90 1.85 99.90
41893 2021-04-12 23:22:25 Terrasse 3.20 2.18 99.90
41892 2021-04-12 22:54:18 Terrasse 3.60 2.62 99.90
41891 2021-04-12 22:26:12 Terrasse 3.70 2.73 99.90
41890 2021-04-12 21:58:06 Terrasse 4.00 3.06 99.90
41889 2021-04-12 21:30:33 Terrasse 4.40 3.50 99.90
41888 2021-04-12 21:02:55 Terrasse 4.80 3.94 99.90
41887 2021-04-12 20:34:32 Terrasse 5.40 4.60 99.90
41886 2021-04-12 20:06:28 Terrasse 6.20 5.48 99.90
41885 2021-04-12 19:38:22 Terrasse 6.80 5.97 93.10
41884 2021-04-12 19:10:16 Terrasse 7.50 6.47 83.00
41883 2021-04-12 18:42:19 Terrasse 8.00 7.33 94.70
41882 2021-04-12 18:14:08 Terrasse 7.70 7.13 99.90
41881 2021-04-12 17:46:03 Terrasse 8.40 7.08 68.50
41880 2021-04-12 17:18:01 Terrasse 9.90 8.35 53.80
41879 2021-04-12 16:49:58 Terrasse 10.70 9.17 51.40
41878 2021-04-12 16:22:06 Terrasse 11.90 10.41 48.30
41877 2021-04-12 15:53:55 Terrasse 12.30 10.92 51.00
41876 2021-04-12 15:25:46 Terrasse 12.20 10.88 53.90
41875 2021-04-12 14:57:46 Terrasse 12.50 11.27 56.20
41874 2021-04-12 14:29:34 Terrasse 10.80 9.18 47.80
41873 2021-04-12 14:01:36 Terrasse 14.00 12.70 47.60
41872 2021-04-12 13:33:19 Terrasse 10.80 9.21 48.80
41871 2021-04-12 13:05:10 Terrasse 13.40 12.13 51.20
41870 2021-04-12 12:36:48 Terrasse 8.00 6.45 61.00
41869 2021-04-12 12:08:47 Terrasse 9.10 7.63 60.10
41868 2021-04-12 11:40:23 Terrasse 8.30 6.98 68.70
41867 2021-04-12 11:12:08 Terrasse 7.40 6.16 75.20
41866 2021-04-12 10:43:54 Terrasse 6.00 5.26 99.90
41865 2021-04-12 10:15:44 Terrasse 5.90 5.15 99.90
41864 2021-04-12 09:47:31 Terrasse 5.50 4.71 99.90
41863 2021-04-12 09:19:19 Terrasse 5.10 4.27 99.90
41862 2021-04-12 08:51:08 Terrasse 4.60 3.72 99.90
41861 2021-04-12 08:23:08 Terrasse 4.20 3.28 99.90
41860 2021-04-12 07:54:56 Terrasse 4.00 3.06 99.90
41859 2021-04-12 07:26:47 Terrasse 3.90 2.95 99.90
41858 2021-04-12 06:58:54 Terrasse 4.00 3.06 99.90
41857 2021-04-12 06:30:46 Terrasse 4.10 3.17 99.90
41856 2021-04-12 06:03:13 Terrasse 4.20 3.28 99.90
41855 2021-04-12 05:34:51 Terrasse 4.30 3.39 99.90
41854 2021-04-12 05:06:41 Terrasse 4.40 3.50 99.90
41853 2021-04-12 04:38:34 Terrasse 4.50 3.61 99.90
41852 2021-04-12 04:10:25 Terrasse 4.50 3.61 99.90
41851 2021-04-12 03:42:18 Terrasse 4.50 3.61 99.90
41850 2021-04-12 03:14:10 Terrasse 4.60 3.72 99.90
41849 2021-04-12 02:46:01 Terrasse 4.70 3.83 99.90
41848 2021-04-12 02:17:53 Terrasse 4.70 3.83 99.90
41847 2021-04-12 01:49:48 Terrasse 4.80 3.94 99.90
41846 2021-04-12 01:21:40 Terrasse 4.80 3.94 99.90
41845 2021-04-12 00:53:33 Terrasse 4.90 4.05 99.90
41844 2021-04-12 00:25:24 Terrasse 5.00 4.16 99.90
41843 2021-04-11 23:57:15 Terrasse 5.10 4.27 99.90
41842 2021-04-11 23:29:08 Terrasse 5.30 4.49 99.90
41841 2021-04-11 22:00:16 Terrasse 5.50 4.71 99.90
41840 2021-04-11 21:01:29 Terrasse 5.70 4.93 99.90
41839 2021-04-11 20:33:23 Terrasse 5.90 5.15 99.90
41838 2021-04-11 20:05:17 Terrasse 6.30 5.59 99.90
41837 2021-04-11 19:37:10 Terrasse 6.60 5.92 99.90
41836 2021-04-11 19:09:02 Terrasse 6.90 6.25 99.90
41835 2021-04-11 18:40:53 Terrasse 7.00 6.36 99.90
41834 2021-04-11 18:12:48 Terrasse 7.50 6.91 99.90
41833 2021-04-11 17:44:40 Terrasse 8.10 7.57 99.90
41832 2021-04-11 17:16:32 Terrasse 8.40 7.90 99.90
41831 2021-04-11 16:48:33 Terrasse 8.90 8.45 99.90
41830 2021-04-11 16:20:32 Terrasse 9.20 8.78 99.90
41829 2021-04-11 15:52:23 Terrasse 9.60 9.22 99.90
41828 2021-04-11 15:24:13 Terrasse 9.60 9.22 99.90
41827 2021-04-11 14:56:05 Terrasse 9.90 9.55 99.90
41826 2021-04-11 14:27:59 Terrasse 10.30 9.99 99.90
41825 2021-04-11 13:59:54 Terrasse 11.20 10.98 99.90
41824 2021-04-11 13:31:48 Terrasse 12.00 11.86 99.90
41823 2021-04-11 13:03:41 Terrasse 12.40 12.30 99.90
41822 2021-04-11 12:35:35 Terrasse 12.80 12.74 99.90
41821 2021-04-11 12:07:33 Terrasse 13.80 13.84 99.90
41820 2021-04-11 11:39:17 Terrasse 12.80 12.74 99.90
41819 2021-04-11 11:11:06 Terrasse 12.20 12.08 99.90
41818 2021-04-11 10:43:00 Terrasse 12.30 12.19 99.90
41817 2021-04-11 10:14:46 Terrasse 12.10 11.97 99.90
41816 2021-04-11 09:46:27 Terrasse 10.70 10.43 99.90
41815 2021-04-11 09:18:11 Terrasse 9.80 9.44 99.90
41814 2021-04-11 08:49:58 Terrasse 9.30 8.89 99.90
41813 2021-04-11 08:21:50 Terrasse 9.00 8.56 99.90
41812 2021-04-11 07:53:39 Terrasse 8.80 8.34 99.90
41811 2021-04-11 07:25:29 Terrasse 8.60 8.12 99.90
41810 2021-04-11 06:57:20 Terrasse 8.60 8.12 99.90
41809 2021-04-11 06:29:10 Terrasse 8.50 8.01 99.90
41808 2021-04-11 06:00:59 Terrasse 8.30 7.79 99.90
41807 2021-04-11 05:32:50 Terrasse 8.30 7.79 99.90
41806 2021-04-11 05:04:42 Terrasse 8.40 7.90 99.90
41805 2021-04-11 04:36:34 Terrasse 8.60 8.12 99.90
41804 2021-04-11 04:08:25 Terrasse 8.60 8.12 99.90
41803 2021-04-11 03:40:17 Terrasse 8.60 8.12 99.90
41802 2021-04-11 03:12:09 Terrasse 8.80 8.34 99.90
41801 2021-04-11 02:43:59 Terrasse 8.80 8.34 99.90
41800 2021-04-11 02:15:52 Terrasse 9.00 8.56 99.90
41799 2021-04-11 01:47:44 Terrasse 9.10 8.67 99.90
41798 2021-04-11 01:19:35 Terrasse 9.10 8.67 99.90
41797 2021-04-11 00:51:26 Terrasse 9.20 8.78 99.90
41796 2021-04-11 00:23:18 Terrasse 9.20 8.78 99.90
41795 2021-04-10 23:55:10 Terrasse 9.20 8.78 99.90
41794 2021-04-10 23:27:01 Terrasse 9.20 8.78 99.90
41793 2021-04-10 22:58:55 Terrasse 9.20 8.78 99.90
41792 2021-04-10 22:30:45 Terrasse 9.30 8.89 99.90
41791 2021-04-10 22:02:36 Terrasse 9.30 8.89 99.90
41790 2021-04-10 21:34:34 Terrasse 9.40 9.00 99.90
41789 2021-04-10 21:06:25 Terrasse 9.40 9.00 99.90
41788 2021-04-10 20:38:17 Terrasse 9.50 9.11 99.90
41787 2021-04-10 20:10:10 Terrasse 9.70 9.33 99.90
41786 2021-04-10 19:42:03 Terrasse 9.80 9.44 99.90
41785 2021-04-10 19:13:57 Terrasse 9.90 9.55 99.90
41784 2021-04-10 18:15:21 Terrasse 10.20 9.88 99.90
41783 2021-04-10 17:47:14 Terrasse 10.20 9.88 99.90
41782 2021-04-10 17:19:04 Terrasse 10.20 9.88 99.90
41781 2021-04-10 16:50:55 Terrasse 10.10 9.77 99.90
41780 2021-04-10 16:22:48 Terrasse 10.10 9.77 99.90
41779 2021-04-10 15:54:39 Terrasse 9.90 9.55 99.90
41778 2021-04-10 15:26:30 Terrasse 9.70 9.33 99.90
41777 2021-04-10 14:28:15 Terrasse 9.40 9.00 99.90
41776 2021-04-10 14:00:24 Terrasse 9.30 8.89 99.90
41775 2021-04-10 13:32:00 Terrasse 9.20 8.78 99.90
41774 2021-04-10 13:03:52 Terrasse 9.20 8.78 99.90
41773 2021-04-10 12:35:45 Terrasse 9.40 9.00 99.90
41772 2021-04-10 11:37:11 Terrasse 9.10 8.67 99.90
41771 2021-04-10 11:09:07 Terrasse 9.20 8.78 99.90
41770 2021-04-10 10:41:12 Terrasse 9.40 9.00 99.90
41769 2021-04-10 10:13:25 Terrasse 9.40 9.00 99.90
41768 2021-04-10 09:45:13 Terrasse 9.50 9.11 99.90
41767 2021-04-10 09:17:05 Terrasse 9.60 9.22 99.90
41766 2021-04-10 08:49:10 Terrasse 9.20 8.78 99.90
41765 2021-04-10 08:21:08 Terrasse 9.00 8.56 99.90
41764 2021-04-10 07:52:56 Terrasse 9.00 8.56 99.90
41763 2021-04-10 07:24:46 Terrasse 9.00 8.56 99.90
41762 2021-04-10 06:56:37 Terrasse 9.00 8.56 99.90
41761 2021-04-10 06:28:30 Terrasse 9.10 8.67 99.90
41760 2021-04-10 06:00:22 Terrasse 9.20 8.78 99.90
41759 2021-04-10 05:32:15 Terrasse 9.30 8.89 99.90
41758 2021-04-10 05:04:07 Terrasse 9.50 9.11 99.90
41757 2021-04-10 04:35:59 Terrasse 9.60 9.22 99.90
41756 2021-04-10 04:07:52 Terrasse 9.70 9.33 99.90
41755 2021-04-10 03:08:45 Terrasse 10.00 9.66 99.90
41754 2021-04-10 02:09:37 Terrasse 10.40 10.10 99.90
41753 2021-04-10 01:41:29 Terrasse 10.60 10.32 99.90
41752 2021-04-10 01:13:21 Terrasse 10.90 10.65 99.90
41751 2021-04-10 00:45:15 Terrasse 10.90 10.65 99.90
41750 2021-04-10 00:17:12 Terrasse 11.30 10.91 92.70
41749 2021-04-09 23:49:04 Terrasse 11.60 10.38 60.00
41748 2021-04-09 23:20:56 Terrasse 11.90 10.48 51.20
41747 2021-04-09 22:52:58 Terrasse 12.20 10.76 49.10
41746 2021-04-09 22:25:06 Terrasse 12.60 11.11 45.60
41745 2021-04-09 21:56:53 Terrasse 12.70 11.20 45.00
41744 2021-04-09 21:28:47 Terrasse 12.90 11.39 43.80
41743 2021-04-09 21:00:37 Terrasse 12.70 11.13 42.30
41742 2021-04-09 20:32:31 Terrasse 13.00 11.45 42.00
41741 2021-04-09 20:04:29 Terrasse 13.70 12.24 42.70
41740 2021-04-09 19:36:24 Terrasse 14.40 12.87 37.40
41739 2021-04-09 19:08:21 Terrasse 15.10 13.59 35.40
41738 2021-04-09 18:40:15 Terrasse 15.50 14.01 34.50
41737 2021-04-09 18:12:12 Terrasse 16.20 14.76 33.70
41736 2021-04-09 17:44:07 Terrasse 16.70 15.31 33.80
41735 2021-04-09 17:16:01 Terrasse 17.30 15.99 34.80
41734 2021-04-09 16:47:54 Terrasse 17.70 16.42 34.20
41733 2021-04-09 16:19:48 Terrasse 17.90 16.66 35.20
41732 2021-04-09 15:51:44 Terrasse 18.50 17.33 35.50
41731 2021-04-09 15:23:46 Terrasse 19.20 18.11 35.90
41730 2021-04-09 14:55:46 Terrasse 20.20 19.20 35.60
41729 2021-04-09 14:27:34 Terrasse 19.30 18.26 37.20
41728 2021-04-09 13:59:35 Terrasse 19.70 18.68 36.40
41727 2021-04-09 13:31:35 Terrasse 20.30 19.34 36.40
41726 2021-04-09 13:03:22 Terrasse 20.30 19.38 38.00
41725 2021-04-09 12:34:35 Terrasse 16.00 14.75 42.00
41724 2021-04-09 12:06:24 Terrasse 13.10 11.65 45.40
41723 2021-04-09 11:37:59 Terrasse 11.50 9.96 47.90
41722 2021-04-09 11:09:42 Terrasse 9.60 8.05 55.00
41721 2021-04-09 10:41:24 Terrasse 8.00 6.46 61.40
41720 2021-04-09 10:13:10 Terrasse 7.00 5.32 60.00
41719 2021-04-09 09:44:55 Terrasse 5.90 4.14 61.10
41718 2021-04-09 09:16:42 Terrasse 5.00 3.28 65.90
41717 2021-04-09 08:48:29 Terrasse 4.20 2.81 81.60
41716 2021-04-09 08:20:19 Terrasse 3.30 2.29 99.90
41715 2021-04-09 07:52:09 Terrasse 2.70 1.63 99.90
41714 2021-04-09 07:24:02 Terrasse 2.40 1.30 99.90
41713 2021-04-09 06:55:56 Terrasse 2.20 1.08 99.90
41712 2021-04-09 06:27:50 Terrasse 2.30 1.19 99.80
41711 2021-04-09 05:59:44 Terrasse 2.50 1.34 96.90
41710 2021-04-09 05:31:40 Terrasse 2.50 1.29 95.30
41709 2021-04-09 05:03:35 Terrasse 2.50 1.28 94.90
41708 2021-04-09 04:35:32 Terrasse 2.80 1.59 94.00
41707 2021-04-09 04:07:26 Terrasse 2.90 1.60 90.20
41706 2021-04-09 03:39:22 Terrasse 3.00 1.68 88.90
41705 2021-04-09 03:11:28 Terrasse 3.30 1.81 81.50
41704 2021-04-09 02:43:19 Terrasse 3.40 1.81 77.00
41703 2021-04-09 02:15:13 Terrasse 3.60 2.01 76.20
41702 2021-04-09 01:47:08 Terrasse 3.70 1.98 71.00
41701 2021-04-09 01:19:03 Terrasse 3.80 1.95 65.80
41700 2021-04-09 00:50:59 Terrasse 4.00 2.08 62.40
41699 2021-04-09 00:22:55 Terrasse 4.20 2.26 60.50
41698 2021-04-08 23:54:50 Terrasse 4.20 2.25 60.40
41697 2021-04-08 23:26:46 Terrasse 4.30 2.34 59.50
41696 2021-04-08 22:27:30 Terrasse 4.80 2.83 57.30
41695 2021-04-08 21:59:25 Terrasse 5.10 3.13 56.20
41694 2021-04-08 21:31:22 Terrasse 5.50 3.53 54.70
41693 2021-04-08 21:03:18 Terrasse 6.10 4.14 52.80
41692 2021-04-08 20:35:16 Terrasse 6.80 4.79 48.10
41691 2021-04-08 20:07:12 Terrasse 7.50 5.53 46.90
41690 2021-04-08 19:39:09 Terrasse 7.90 5.90 44.40
41689 2021-04-08 19:11:04 Terrasse 8.40 6.44 43.90
41688 2021-04-08 18:42:59 Terrasse 9.00 7.07 42.70
41687 2021-04-08 18:14:56 Terrasse 9.50 7.62 42.50
41686 2021-04-08 17:46:51 Terrasse 9.80 7.98 43.70
41685 2021-04-08 17:18:48 Terrasse 10.40 8.58 41.60
41684 2021-04-08 16:50:41 Terrasse 10.40 8.62 42.90
41683 2021-04-08 16:22:31 Terrasse 10.10 8.27 42.40
41682 2021-04-08 15:54:24 Terrasse 9.90 8.08 43.50
41681 2021-04-08 15:26:10 Terrasse 9.40 7.58 45.30
41680 2021-04-08 14:58:08 Terrasse 9.70 7.92 45.60
41679 2021-04-08 14:30:02 Terrasse 11.50 9.85 43.90
41678 2021-04-08 14:02:01 Terrasse 11.50 9.81 42.40
41677 2021-04-08 13:33:53 Terrasse 9.70 7.89 44.70
41676 2021-04-08 13:05:48 Terrasse 7.40 5.55 51.80
41675 2021-04-08 12:37:27 Terrasse 7.00 5.08 50.60
41674 2021-04-08 12:09:14 Terrasse 6.10 4.27 57.80
41673 2021-04-08 11:41:08 Terrasse 6.20 4.47 60.90
41672 2021-04-08 11:13:00 Terrasse 5.90 4.14 61.10
41671 2021-04-08 10:44:54 Terrasse 6.00 4.49 70.30
41670 2021-04-08 10:16:40 Terrasse 4.80 3.52 83.50
41669 2021-04-08 09:48:27 Terrasse 3.40 2.40 99.90
41668 2021-04-08 09:20:17 Terrasse 2.60 1.52 99.90
41667 2021-04-08 08:52:10 Terrasse 2.00 0.86 99.90
41666 2021-04-08 08:24:03 Terrasse 1.70 0.53 99.90
41665 2021-04-08 07:55:57 Terrasse 1.70 0.53 99.90
41664 2021-04-08 07:27:51 Terrasse 1.60 0.42 99.90
41663 2021-04-08 06:59:46 Terrasse 1.60 0.42 99.90
41662 2021-04-08 06:31:40 Terrasse 1.60 0.42 99.90
41661 2021-04-08 06:03:38 Terrasse 1.50 0.31 99.90
41660 2021-04-08 05:35:32 Terrasse 1.40 0.20 99.90
41659 2021-04-08 05:07:26 Terrasse 1.30 0.09 99.90
41658 2021-04-08 04:39:22 Terrasse 1.40 0.20 99.90
41657 2021-04-08 04:11:18 Terrasse 1.60 0.42 99.90
41656 2021-04-08 03:43:13 Terrasse 1.70 0.46 97.10
41655 2021-04-08 03:15:08 Terrasse 1.80 0.47 93.30
41654 2021-04-08 02:47:04 Terrasse 1.90 0.56 92.30
41653 2021-04-08 02:18:58 Terrasse 1.90 0.36 84.80
41652 2021-04-08 01:50:54 Terrasse 2.00 0.35 80.20
41651 2021-04-08 01:22:49 Terrasse 2.10 0.47 80.70
41650 2021-04-08 00:54:45 Terrasse 2.10 0.39 77.50
41649 2021-04-08 00:26:40 Terrasse 2.10 0.37 76.90
41648 2021-04-07 23:58:34 Terrasse 2.10 0.29 73.60
41647 2021-04-07 23:30:30 Terrasse 2.10 0.26 72.40
41646 2021-04-07 23:02:27 Terrasse 2.20 0.50 77.50
41645 2021-04-07 22:34:22 Terrasse 2.40 1.30 99.90
41644 2021-04-07 22:06:18 Terrasse 2.50 1.41 99.90
41643 2021-04-07 21:38:14 Terrasse 2.60 1.52 99.90
41642 2021-04-07 21:10:09 Terrasse 2.80 1.74 99.90
41641 2021-04-07 20:42:04 Terrasse 2.80 1.74 99.90
41640 2021-04-07 20:14:00 Terrasse 2.90 1.85 99.90
41639 2021-04-07 19:45:55 Terrasse 3.00 1.96 99.90
41638 2021-04-07 19:17:50 Terrasse 3.00 1.96 99.90
41637 2021-04-07 18:49:45 Terrasse 3.00 1.96 99.90
41636 2021-04-07 18:21:40 Terrasse 3.10 2.07 99.90
41635 2021-04-07 17:53:36 Terrasse 3.10 2.07 99.90
41634 2021-04-07 17:25:31 Terrasse 3.00 1.96 99.90
41633 2021-04-07 16:57:23 Terrasse 2.80 1.74 99.90
41632 2021-04-07 16:29:15 Terrasse 2.60 1.52 99.90
41631 2021-04-07 16:01:10 Terrasse 2.60 1.52 99.90
41630 2021-04-07 15:33:04 Terrasse 2.80 1.74 99.90
41629 2021-04-07 15:04:58 Terrasse 2.80 1.74 99.90
41628 2021-04-07 14:36:52 Terrasse 2.70 1.63 99.90
41627 2021-04-07 14:08:47 Terrasse 2.60 1.52 99.90
41626 2021-04-07 13:40:41 Terrasse 2.40 1.30 99.90
41625 2021-04-07 13:12:35 Terrasse 2.30 1.19 99.90
41624 2021-04-07 12:44:31 Terrasse 2.40 1.30 99.90
41623 2021-04-07 12:16:27 Terrasse 2.60 1.52 99.90
41622 2021-04-07 11:48:21 Terrasse 2.40 1.30 99.90
41621 2021-04-07 11:20:18 Terrasse 2.40 1.30 99.90
41620 2021-04-07 10:52:10 Terrasse 2.00 0.86 99.90
41619 2021-04-07 10:24:09 Terrasse 1.90 0.75 99.90
41618 2021-04-07 09:56:00 Terrasse 1.40 0.20 99.90
41617 2021-04-07 09:27:56 Terrasse 1.20 -0.02 99.90
41616 2021-04-07 08:59:52 Terrasse 1.20 -0.02 99.90
41615 2021-04-07 08:31:46 Terrasse 1.10 -0.13 99.90
41614 2021-04-07 08:03:41 Terrasse 1.00 -0.24 99.90
41613 2021-04-07 07:35:35 Terrasse 0.80 -0.46 99.90
41612 2021-04-07 07:07:30 Terrasse 0.80 -0.46 99.90
41611 2021-04-07 06:39:27 Terrasse 0.80 -0.46 99.90
41610 2021-04-07 06:11:23 Terrasse 0.90 -0.35 99.90
41609 2021-04-07 05:43:18 Terrasse 0.90 -0.35 99.90
41608 2021-04-07 05:15:16 Terrasse 1.10 -0.13 99.90
41607 2021-04-07 04:47:12 Terrasse 1.20 -0.02 99.90
41606 2021-04-07 04:19:09 Terrasse 1.30 0.09 99.90
41605 2021-04-07 03:51:05 Terrasse 1.60 0.42 99.90
41604 2021-04-07 03:23:00 Terrasse 1.50 0.31 99.90
41603 2021-04-07 02:54:56 Terrasse 1.50 0.31 99.90
41602 2021-04-07 02:26:51 Terrasse 1.30 0.09 99.90
41601 2021-04-07 01:58:45 Terrasse 1.50 0.31 99.90
41600 2021-04-07 01:30:41 Terrasse 1.50 0.31 99.90
41599 2021-04-07 01:02:38 Terrasse 1.70 0.53 99.90
41598 2021-04-07 00:34:34 Terrasse 1.80 0.64 99.90
41597 2021-04-07 00:06:30 Terrasse 1.80 0.64 99.90
41596 2021-04-06 23:38:26 Terrasse 1.80 0.64 99.90
41595 2021-04-06 23:10:22 Terrasse 2.00 0.86 99.90
41594 2021-04-06 22:42:19 Terrasse 2.10 0.97 99.90
41593 2021-04-06 22:14:17 Terrasse 2.30 0.86 87.10
41592 2021-04-06 21:46:14 Terrasse 2.50 0.96 82.60
41591 2021-04-06 21:18:10 Terrasse 2.80 1.37 85.60
41590 2021-04-06 20:50:07 Terrasse 3.10 1.87 92.10
41589 2021-04-06 20:22:04 Terrasse 3.40 2.15 90.00
41588 2021-04-06 19:54:03 Terrasse 3.90 2.53 83.60
41587 2021-04-06 19:26:01 Terrasse 4.50 2.51 57.70
41586 2021-04-06 18:58:00 Terrasse 5.20 3.29 58.10
41585 2021-04-06 18:29:56 Terrasse 5.50 3.51 53.60
41584 2021-04-06 18:01:52 Terrasse 5.90 4.11 60.10
41583 2021-04-06 17:33:49 Terrasse 6.20 4.45 60.40
41582 2021-04-06 17:05:53 Terrasse 7.40 5.38 45.50
41581 2021-04-06 16:37:46 Terrasse 7.30 5.39 49.80
41580 2021-04-06 16:09:44 Terrasse 7.30 5.38 49.50
41579 2021-04-06 15:41:43 Terrasse 7.70 5.70 45.10
41578 2021-04-06 15:13:39 Terrasse 8.90 7.01 44.60
41577 2021-04-06 14:45:49 Terrasse 10.50 8.66 40.20
41576 2021-04-06 14:17:44 Terrasse 10.60 8.95 47.40
41575 2021-04-06 13:49:30 Terrasse 9.20 7.51 51.10
41574 2021-04-06 13:21:24 Terrasse 9.80 8.22 53.20
41573 2021-04-06 12:52:59 Terrasse 7.90 6.23 56.70
41572 2021-04-06 12:24:46 Terrasse 7.30 5.56 56.40
41571 2021-04-06 11:56:41 Terrasse 6.60 4.97 63.40
41570 2021-04-06 11:28:27 Terrasse 5.30 3.86 75.70
41569 2021-04-06 11:00:18 Terrasse 4.90 3.48 78.10
41568 2021-04-06 10:32:06 Terrasse 3.80 2.39 82.50
41567 2021-04-06 10:03:55 Terrasse 2.90 1.85 99.90
41566 2021-04-06 09:35:47 Terrasse 2.30 1.19 99.90
41565 2021-04-06 09:07:40 Terrasse 1.90 0.75 99.90
41564 2021-04-06 08:39:33 Terrasse 1.60 0.42 99.90
41563 2021-04-06 08:11:28 Terrasse 1.20 -0.02 99.90
41562 2021-04-06 07:43:22 Terrasse 0.90 -0.35 99.90
41561 2021-04-06 07:15:18 Terrasse 0.90 -0.35 99.90
41560 2021-04-06 06:47:14 Terrasse 0.80 -0.46 99.90
41559 2021-04-06 06:19:09 Terrasse 0.70 -0.57 99.90
41558 2021-04-06 05:51:04 Terrasse 0.80 -0.46 99.90
41557 2021-04-06 05:23:00 Terrasse 0.70 -0.57 99.90
41556 2021-04-06 04:54:55 Terrasse 0.60 -0.68 99.90
41555 2021-04-06 04:26:50 Terrasse 0.60 -0.68 99.90
41554 2021-04-06 03:58:46 Terrasse 0.60 -0.68 99.90
41553 2021-04-06 03:30:42 Terrasse 0.50 -0.79 99.90
41552 2021-04-06 03:02:39 Terrasse 0.50 -0.79 99.90
41551 2021-04-06 02:34:35 Terrasse 0.60 -0.93 90.30
41550 2021-04-06 01:36:33 Terrasse 0.70 -0.71 94.30
41549 2021-04-06 01:08:26 Terrasse 0.80 -0.58 95.30
41548 2021-04-06 00:40:24 Terrasse 1.00 -0.25 99.40
41547 2021-04-06 00:12:20 Terrasse 1.10 -0.14 99.50
41546 2021-04-05 23:44:17 Terrasse 1.30 0.09 99.90
41545 2021-04-05 23:16:21 Terrasse 1.50 0.31 99.90
41544 2021-04-05 22:48:19 Terrasse 1.70 0.53 99.90
41543 2021-04-05 22:20:21 Terrasse 1.80 -0.08 72.20
41542 2021-04-05 21:52:36 Terrasse 2.00 0.12 71.30
41541 2021-04-05 21:24:20 Terrasse 2.20 0.23 67.20
41540 2021-04-05 20:56:18 Terrasse 2.30 0.39 69.10
41539 2021-04-05 20:28:15 Terrasse 2.60 0.67 67.20
41538 2021-04-05 20:00:14 Terrasse 2.90 0.87 62.10
41537 2021-04-05 19:32:13 Terrasse 3.30 1.27 60.80
41536 2021-04-05 19:04:12 Terrasse 4.00 2.01 59.50
41535 2021-04-05 18:36:12 Terrasse 4.40 2.42 58.30
41534 2021-04-05 18:08:09 Terrasse 4.70 2.99 67.50
41533 2021-04-05 17:40:07 Terrasse 4.90 3.32 71.80
41532 2021-04-05 17:12:01 Terrasse 4.50 2.98 75.70
41531 2021-04-05 16:44:04 Terrasse 6.00 4.51 71.00
41530 2021-04-05 16:15:58 Terrasse 6.00 4.94 87.50
41529 2021-04-05 15:47:52 Terrasse 5.50 4.71 99.90
41528 2021-04-05 15:19:49 Terrasse 5.70 4.93 99.90
41527 2021-04-05 14:51:44 Terrasse 5.70 4.93 99.90
41526 2021-04-05 14:23:41 Terrasse 6.00 5.26 99.90
41525 2021-04-05 13:55:38 Terrasse 6.30 5.59 99.90
41524 2021-04-05 13:27:35 Terrasse 6.60 5.92 99.90
41523 2021-04-05 12:59:31 Terrasse 6.70 6.03 99.90
41522 2021-04-05 12:31:29 Terrasse 6.90 6.25 99.90
41521 2021-04-05 12:03:24 Terrasse 7.10 6.47 99.90
41520 2021-04-05 11:35:22 Terrasse 6.90 6.25 99.90
41519 2021-04-05 11:07:18 Terrasse 7.10 6.47 99.90
41518 2021-04-05 10:39:12 Terrasse 7.10 6.47 99.90
41517 2021-04-05 09:40:50 Terrasse 6.30 5.59 99.90
41516 2021-04-05 09:12:46 Terrasse 6.10 5.37 99.90
41515 2021-04-05 08:44:42 Terrasse 6.20 5.44 98.20
41514 2021-04-05 08:16:49 Terrasse 5.90 5.10 98.00
41513 2021-04-05 07:48:40 Terrasse 5.70 4.91 99.00
41512 2021-04-05 07:20:42 Terrasse 5.70 4.86 97.10
41511 2021-04-05 06:52:36 Terrasse 5.80 4.95 96.40
41510 2021-04-05 06:24:32 Terrasse 5.80 4.94 95.90
41509 2021-04-05 05:56:29 Terrasse 5.90 5.06 96.30
41508 2021-04-05 05:28:27 Terrasse 5.80 4.91 94.60
41507 2021-04-05 05:00:22 Terrasse 5.60 4.69 94.70
41506 2021-04-05 04:32:18 Terrasse 5.60 4.68 94.40
41505 2021-04-05 04:04:19 Terrasse 5.60 4.63 92.30
41504 2021-04-05 03:36:16 Terrasse 5.90 4.90 90.00
41503 2021-04-05 03:08:13 Terrasse 6.20 5.03 82.60
41502 2021-04-05 02:40:11 Terrasse 6.30 5.07 80.00
41501 2021-04-05 02:12:06 Terrasse 6.20 4.97 80.10
41500 2021-04-05 01:44:07 Terrasse 6.10 4.76 76.40
41499 2021-04-05 01:16:05 Terrasse 6.10 4.58 69.40
41498 2021-04-05 00:48:02 Terrasse 6.40 4.74 62.80
41497 2021-04-05 00:20:02 Terrasse 6.60 4.88 60.00
41496 2021-04-04 23:52:01 Terrasse 7.10 5.40 58.60
41495 2021-04-04 23:23:58 Terrasse 7.40 5.70 57.50
41494 2021-04-04 22:55:55 Terrasse 7.60 5.89 56.60
41493 2021-04-04 22:27:52 Terrasse 7.80 6.08 55.30
41492 2021-04-04 21:59:50 Terrasse 8.20 6.50 54.50
41491 2021-04-04 21:31:49 Terrasse 8.50 6.80 53.50
41490 2021-04-04 21:03:46 Terrasse 9.00 7.31 51.90
41489 2021-04-04 20:05:29 Terrasse 10.20 8.55 49.00
41488 2021-04-04 19:37:29 Terrasse 10.90 9.28 47.30
41487 2021-04-04 19:09:31 Terrasse 11.80 10.23 45.80
41486 2021-04-04 18:41:32 Terrasse 12.50 10.95 44.00
41485 2021-04-04 18:13:32 Terrasse 13.30 11.81 43.00
41484 2021-04-04 17:45:34 Terrasse 14.50 13.09 41.60
41483 2021-04-04 17:17:33 Terrasse 14.90 13.51 40.80
41482 2021-04-04 16:49:31 Terrasse 15.40 14.04 39.90
41481 2021-04-04 16:21:30 Terrasse 16.10 14.79 39.30
41480 2021-04-04 15:53:27 Terrasse 16.10 14.79 39.30
41479 2021-04-04 15:25:27 Terrasse 16.60 15.34 39.40
41478 2021-04-04 14:57:33 Terrasse 17.50 16.33 39.10
41477 2021-04-04 14:29:22 Terrasse 17.10 15.91 40.10
41476 2021-04-04 14:01:09 Terrasse 16.00 14.74 41.70
41475 2021-04-04 13:33:16 Terrasse 17.50 16.38 41.30
41474 2021-04-04 13:04:59 Terrasse 17.40 16.29 42.00
41473 2021-04-04 12:36:56 Terrasse 15.80 14.63 45.70
41472 2021-04-04 12:08:49 Terrasse 13.30 11.94 48.00
41471 2021-04-04 11:40:30 Terrasse 12.30 10.93 51.60
41470 2021-04-04 11:12:53 Terrasse 11.30 9.85 52.40
41469 2021-04-04 10:44:26 Terrasse 9.90 8.40 55.80
41468 2021-04-04 10:16:16 Terrasse 8.50 6.94 58.70
41467 2021-04-04 09:48:08 Terrasse 8.20 6.69 61.70
41466 2021-04-04 09:20:01 Terrasse 7.50 6.10 68.60
41465 2021-04-04 08:51:53 Terrasse 6.80 5.49 74.70
41464 2021-04-04 08:23:47 Terrasse 5.80 4.43 76.50
41463 2021-04-04 07:55:44 Terrasse 5.50 4.20 80.10
41462 2021-04-04 07:27:41 Terrasse 5.30 3.96 79.50
41461 2021-04-04 06:59:39 Terrasse 5.20 3.74 75.30
41460 2021-04-04 06:31:38 Terrasse 5.30 3.88 76.50
41459 2021-04-04 06:03:37 Terrasse 5.70 4.14 69.60
41458 2021-04-04 05:35:34 Terrasse 5.80 4.10 63.70
41457 2021-04-04 05:07:33 Terrasse 6.20 4.43 59.70
41456 2021-04-04 04:39:32 Terrasse 6.30 4.50 57.90
41455 2021-04-04 04:11:30 Terrasse 6.40 4.58 56.80
41454 2021-04-04 03:43:29 Terrasse 6.80 4.97 54.80
41453 2021-04-04 03:15:26 Terrasse 6.70 4.82 53.30
41452 2021-04-04 02:47:24 Terrasse 6.80 4.91 52.80
41451 2021-04-04 02:19:22 Terrasse 7.00 5.12 52.40
41450 2021-04-04 01:51:18 Terrasse 7.00 5.13 52.50
41449 2021-04-04 01:23:16 Terrasse 7.20 5.33 51.70
41448 2021-04-04 00:55:14 Terrasse 7.10 5.20 51.10
41447 2021-04-04 00:27:12 Terrasse 7.20 5.27 49.60
41446 2021-04-03 23:59:11 Terrasse 7.20 5.26 49.20
41445 2021-04-03 23:31:12 Terrasse 7.80 5.88 47.50
41444 2021-04-03 23:03:12 Terrasse 8.10 6.17 46.20
41443 2021-04-03 22:35:12 Terrasse 8.50 6.60 45.60
41442 2021-04-03 22:07:13 Terrasse 9.10 7.21 44.00
41441 2021-04-03 21:39:12 Terrasse 9.60 7.73 42.50
41440 2021-04-03 21:11:12 Terrasse 9.90 8.05 42.20
41439 2021-04-03 20:43:12 Terrasse 10.40 8.54 40.10
41438 2021-04-03 20:15:13 Terrasse 10.90 9.06 39.00
41437 2021-04-03 19:47:16 Terrasse 11.70 9.93 38.30
41436 2021-04-03 19:19:17 Terrasse 12.60 10.86 36.10
41435 2021-04-03 18:51:19 Terrasse 13.50 11.85 36.10
41434 2021-04-03 18:23:19 Terrasse 14.00 12.39 35.80
41433 2021-04-03 17:55:19 Terrasse 14.20 12.63 36.50
41432 2021-04-03 17:27:24 Terrasse 15.50 14.05 36.00
41431 2021-04-03 16:59:24 Terrasse 16.20 14.80 35.60
41430 2021-04-03 16:31:29 Terrasse 16.00 14.59 35.70
41429 2021-04-03 16:03:26 Terrasse 16.00 14.56 34.80
41428 2021-04-03 15:35:25 Terrasse 16.70 15.35 35.30
41427 2021-04-03 15:07:37 Terrasse 18.10 16.84 33.40
41426 2021-04-03 14:39:40 Terrasse 20.60 19.57 32.80
41425 2021-04-03 14:11:08 Terrasse 15.50 13.99 34.00
41424 2021-04-03 13:43:39 Terrasse 18.90 17.71 33.00
41423 2021-04-03 13:15:23 Terrasse 19.60 18.52 34.60
41422 2021-04-03 12:47:44 Terrasse 19.40 18.31 34.90
41421 2021-04-03 12:19:32 Terrasse 15.80 14.44 38.60
41420 2021-04-03 11:51:14 Terrasse 14.50 13.09 41.50
41419 2021-04-03 11:23:01 Terrasse 12.50 10.93 43.10
41418 2021-04-03 10:54:50 Terrasse 11.00 9.40 47.60
41417 2021-04-03 10:26:41 Terrasse 9.50 7.82 50.20
41416 2021-04-03 09:58:34 Terrasse 8.50 6.79 53.10
41415 2021-04-03 09:30:28 Terrasse 7.80 6.03 53.40
41414 2021-04-03 09:02:24 Terrasse 7.10 5.32 55.60
41413 2021-04-03 08:34:20 Terrasse 6.50 4.70 57.20
41412 2021-04-03 08:06:18 Terrasse 6.00 4.21 59.50
41411 2021-04-03 07:38:18 Terrasse 6.00 4.30 63.00
41410 2021-04-03 07:10:19 Terrasse 6.20 4.52 63.00
41409 2021-04-03 06:42:18 Terrasse 6.20 4.66 68.40
41408 2021-04-03 06:14:18 Terrasse 6.30 4.69 65.20
41407 2021-04-03 05:46:19 Terrasse 6.40 4.76 63.80
41406 2021-04-03 05:18:19 Terrasse 6.60 4.90 60.50
41405 2021-04-03 04:50:21 Terrasse 7.10 5.37 57.70
41404 2021-04-03 04:22:23 Terrasse 7.40 5.68 57.00
41403 2021-04-03 03:54:24 Terrasse 7.50 5.77 55.90
41402 2021-04-03 03:26:24 Terrasse 7.60 5.83 54.10
41401 2021-04-03 02:58:27 Terrasse 7.70 5.90 52.80
41400 2021-04-03 02:30:28 Terrasse 7.90 6.09 51.50
41399 2021-04-03 02:02:30 Terrasse 8.00 6.17 50.30
41398 2021-04-03 01:34:30 Terrasse 8.20 6.37 49.70
41397 2021-04-03 01:06:30 Terrasse 8.40 6.58 49.30
41396 2021-04-03 00:38:31 Terrasse 8.50 6.69 49.20
41395 2021-04-03 00:10:31 Terrasse 8.70 6.90 48.90
41394 2021-04-02 23:42:34 Terrasse 8.90 7.12 49.00
41393 2021-04-02 23:14:36 Terrasse 9.10 7.37 49.90
41392 2021-04-02 22:46:39 Terrasse 9.30 7.56 48.70
41391 2021-04-02 22:18:40 Terrasse 9.30 7.56 48.70
41390 2021-04-02 21:50:46 Terrasse 9.90 8.20 48.10
41389 2021-04-02 21:22:59 Terrasse 10.80 9.16 46.90
41388 2021-04-02 20:55:14 Terrasse 12.50 10.97 44.50
41387 2021-04-02 20:27:27 Terrasse 19.80 19.14 49.80
41386 2021-04-02 00:13:03 Terrasse 14.50 13.27 48.60
41385 2021-04-01 23:44:40 Terrasse 15.30 14.21 50.90
41384 2021-04-01 23:16:30 Terrasse 16.00 14.98 50.90
41383 2021-04-01 22:16:48 Terrasse 17.40 16.46 48.60
41382 2021-04-01 21:48:39 Terrasse 18.10 17.19 46.90
41381 2021-04-01 21:20:28 Terrasse 18.90 18.07 46.90
41380 2021-04-01 20:52:11 Terrasse 19.60 18.84 47.00
41379 2021-04-01 20:23:55 Terrasse 20.30 19.55 44.50
41378 2021-04-01 19:55:39 Terrasse 21.10 20.38 42.60
41377 2021-04-01 19:27:25 Terrasse 22.00 21.31 40.30
41376 2021-04-01 18:59:10 Terrasse 22.80 22.15 38.80
41375 2021-04-01 18:30:56 Terrasse 23.70 23.10 37.20
41374 2021-04-01 18:02:47 Terrasse 24.90 24.39 36.20
41373 2021-04-01 17:34:17 Terrasse 26.00 25.54 33.70
41372 2021-04-01 17:06:15 Terrasse 26.60 26.34 34.10
41371 2021-04-01 16:37:52 Terrasse 27.40 26.79 32.70
41370 2021-04-01 16:09:33 Terrasse 28.10 27.24 31.40
41369 2021-04-01 15:41:13 Terrasse 28.50 27.47 30.00
41368 2021-04-01 15:12:57 Terrasse 28.90 27.92 32.20
41367 2021-04-01 14:44:46 Terrasse 30.30 29.11 30.90
41366 2021-04-01 14:16:28 Terrasse 30.70 29.53 31.10
41365 2021-04-01 13:48:13 Terrasse 30.20 28.98 30.50
41364 2021-04-01 13:19:58 Terrasse 32.10 31.11 31.50
41363 2021-04-01 12:51:03 Terrasse 29.40 28.37 32.40
41362 2021-04-01 12:22:15 Terrasse 23.90 23.33 37.90
41361 2021-04-01 11:53:36 Terrasse 21.70 21.14 46.40
41360 2021-04-01 11:25:20 Terrasse 19.70 18.95 46.90
41359 2021-04-01 10:56:47 Terrasse 17.80 17.00 52.30
41358 2021-04-01 10:28:15 Terrasse 16.20 15.39 57.90
41357 2021-04-01 09:59:52 Terrasse 15.60 14.72 57.80
41356 2021-04-01 09:31:33 Terrasse 15.50 14.59 57.00
41355 2021-04-01 09:03:07 Terrasse 14.70 13.75